<?xml version="1.0" encoding="UTF-8" standalone="no" ?>
<gpx xmlns="http://www.topografix.com/GPX/1/1" xmlns:xsi="http://www.w3.org/2001/XMLSchema-instance" xsi:schemaLocation="http://www.topografix.com/GPX/1/1 http://www.topografix.com/GPX/1/1/gpx.xsd" version="1.1" creator="VisuGPX - https://www.visugpx.com">
  <metadata>
    <name>visugpx_KWZObLIo81</name>
  </metadata>
  <trk>
    <name><![CDATA[visugpx_KWZObLIo81_1]]></name>
    <extensions>
      <line xmlns="http://www.topografix.com/GPX/gpx_style/0/2">
        <color>0000FF</color>
        <width>4</width>
      </line>
    </extensions>
    <trkseg>
      <trkpt lat="50.39007" lon="4.45708">
        <ele>116.6</ele>
        <time>2024-03-07T12:30:44Z</time>
      </trkpt>
      <trkpt lat="50.39008" lon="4.45711">
        <ele>115.8</ele>
        <time>2024-03-07T12:30:53Z</time>
      </trkpt>
      <trkpt lat="50.3901" lon="4.45711">
        <ele>115.4</ele>
        <time>2024-03-07T12:31:02Z</time>
      </trkpt>
      <trkpt lat="50.39008" lon="4.4571">
        <ele>115.6</ele>
        <time>2024-03-07T12:31:08Z</time>
      </trkpt>
      <trkpt lat="50.39006" lon="4.45708">
        <ele>115</ele>
        <time>2024-03-07T12:31:18Z</time>
      </trkpt>
      <trkpt lat="50.39006" lon="4.4571">
        <ele>115.8</ele>
        <time>2024-03-07T12:31:33Z</time>
      </trkpt>
      <trkpt lat="50.39006" lon="4.4571">
        <ele>116</ele>
        <time>2024-03-07T12:31:48Z</time>
      </trkpt>
      <trkpt lat="50.39008" lon="4.45711">
        <ele>116</ele>
        <time>2024-03-07T12:32:05Z</time>
      </trkpt>
      <trkpt lat="50.39008" lon="4.45711">
        <ele>116</ele>
        <time>2024-03-07T12:32:17Z</time>
      </trkpt>
      <trkpt lat="50.39008" lon="4.45711">
        <ele>116.2</ele>
        <time>2024-03-07T12:32:33Z</time>
      </trkpt>
      <trkpt lat="50.39008" lon="4.45711">
        <ele>116.2</ele>
        <time>2024-03-07T12:32:49Z</time>
      </trkpt>
      <trkpt lat="50.39008" lon="4.45711">
        <ele>116.2</ele>
        <time>2024-03-07T12:32:59Z</time>
      </trkpt>
      <trkpt lat="50.39008" lon="4.4571">
        <ele>116.4</ele>
        <time>2024-03-07T12:33:14Z</time>
      </trkpt>
      <trkpt lat="50.39008" lon="4.4571">
        <ele>116.6</ele>
        <time>2024-03-07T12:33:35Z</time>
      </trkpt>
      <trkpt lat="50.39009" lon="4.4571">
        <ele>116.8</ele>
        <time>2024-03-07T12:33:53Z</time>
      </trkpt>
      <trkpt lat="50.39009" lon="4.4571">
        <ele>117</ele>
        <time>2024-03-07T12:34:07Z</time>
      </trkpt>
      <trkpt lat="50.39009" lon="4.4571">
        <ele>117.2</ele>
        <time>2024-03-07T12:34:28Z</time>
      </trkpt>
      <trkpt lat="50.39009" lon="4.4571">
        <ele>117.2</ele>
        <time>2024-03-07T12:34:49Z</time>
      </trkpt>
      <trkpt lat="50.39009" lon="4.4571">
        <ele>117.2</ele>
        <time>2024-03-07T12:35:00Z</time>
      </trkpt>
      <trkpt lat="50.3901" lon="4.4571">
        <ele>117.2</ele>
        <time>2024-03-07T12:35:14Z</time>
      </trkpt>
      <trkpt lat="50.3901" lon="4.4571">
        <ele>117.2</ele>
        <time>2024-03-07T12:35:32Z</time>
      </trkpt>
      <trkpt lat="50.39009" lon="4.45709">
        <ele>117</ele>
        <time>2024-03-07T12:35:52Z</time>
      </trkpt>
      <trkpt lat="50.39009" lon="4.45709">
        <ele>117</ele>
        <time>2024-03-07T12:36:10Z</time>
      </trkpt>
      <trkpt lat="50.39009" lon="4.45709">
        <ele>117</ele>
        <time>2024-03-07T12:36:30Z</time>
      </trkpt>
      <trkpt lat="50.3901" lon="4.4571">
        <ele>117.2</ele>
        <time>2024-03-07T12:36:55Z</time>
      </trkpt>
      <trkpt lat="50.3901" lon="4.4571">
        <ele>117.2</ele>
        <time>2024-03-07T12:37:13Z</time>
      </trkpt>
      <trkpt lat="50.3901" lon="4.4571">
        <ele>117.4</ele>
        <time>2024-03-07T12:37:28Z</time>
      </trkpt>
      <trkpt lat="50.3901" lon="4.4571">
        <ele>117.4</ele>
        <time>2024-03-07T12:37:46Z</time>
      </trkpt>
      <trkpt lat="50.3901" lon="4.45709">
        <ele>117.8</ele>
        <time>2024-03-07T12:38:07Z</time>
      </trkpt>
      <trkpt lat="50.3901" lon="4.45709">
        <ele>118.2</ele>
        <time>2024-03-07T12:38:30Z</time>
      </trkpt>
      <trkpt lat="50.3901" lon="4.45709">
        <ele>118.2</ele>
        <time>2024-03-07T12:38:51Z</time>
      </trkpt>
      <trkpt lat="50.3901" lon="4.45709">
        <ele>118.4</ele>
        <time>2024-03-07T12:39:14Z</time>
      </trkpt>
      <trkpt lat="50.3901" lon="4.45709">
        <ele>118.4</ele>
        <time>2024-03-07T12:39:24Z</time>
      </trkpt>
      <trkpt lat="50.3901" lon="4.45709">
        <ele>118.4</ele>
        <time>2024-03-07T12:39:46Z</time>
      </trkpt>
      <trkpt lat="50.3901" lon="4.4571">
        <ele>118.4</ele>
        <time>2024-03-07T12:40:04Z</time>
      </trkpt>
      <trkpt lat="50.3901" lon="4.4571">
        <ele>118.4</ele>
        <time>2024-03-07T12:40:26Z</time>
      </trkpt>
      <trkpt lat="50.3901" lon="4.4571">
        <ele>118.4</ele>
        <time>2024-03-07T12:40:45Z</time>
      </trkpt>
      <trkpt lat="50.3901" lon="4.4571">
        <ele>118.4</ele>
        <time>2024-03-07T12:41:03Z</time>
      </trkpt>
      <trkpt lat="50.3901" lon="4.4571">
        <ele>118.4</ele>
        <time>2024-03-07T12:41:08Z</time>
      </trkpt>
      <trkpt lat="50.3901" lon="4.45708">
        <ele>118.4</ele>
        <time>2024-03-07T12:41:09Z</time>
      </trkpt>
      <trkpt lat="50.3901" lon="4.45704">
        <ele>118.4</ele>
        <time>2024-03-07T12:41:11Z</time>
      </trkpt>
      <trkpt lat="50.39006" lon="4.45701">
        <ele>118.4</ele>
        <time>2024-03-07T12:41:13Z</time>
      </trkpt>
      <trkpt lat="50.39004" lon="4.457">
        <ele>118.4</ele>
        <time>2024-03-07T12:41:15Z</time>
      </trkpt>
      <trkpt lat="50.39002" lon="4.45695">
        <ele>118.4</ele>
        <time>2024-03-07T12:41:17Z</time>
      </trkpt>
      <trkpt lat="50.39004" lon="4.45683">
        <ele>118.6</ele>
        <time>2024-03-07T12:41:22Z</time>
      </trkpt>
      <trkpt lat="50.39006" lon="4.45681">
        <ele>118.6</ele>
        <time>2024-03-07T12:41:24Z</time>
      </trkpt>
      <trkpt lat="50.3901" lon="4.4568">
        <ele>118.6</ele>
        <time>2024-03-07T12:41:27Z</time>
      </trkpt>
      <trkpt lat="50.3902" lon="4.45682">
        <ele>118.6</ele>
        <time>2024-03-07T12:41:32Z</time>
      </trkpt>
      <trkpt lat="50.3904" lon="4.45692">
        <ele>118.6</ele>
        <time>2024-03-07T12:41:38Z</time>
      </trkpt>
      <trkpt lat="50.39065" lon="4.45711">
        <ele>118.8</ele>
        <time>2024-03-07T12:41:46Z</time>
      </trkpt>
      <trkpt lat="50.39083" lon="4.45727">
        <ele>118.8</ele>
        <time>2024-03-07T12:41:52Z</time>
      </trkpt>
      <trkpt lat="50.39103" lon="4.45736">
        <ele>118.6</ele>
        <time>2024-03-07T12:41:59Z</time>
      </trkpt>
      <trkpt lat="50.39114" lon="4.45729">
        <ele>118.2</ele>
        <time>2024-03-07T12:42:02Z</time>
      </trkpt>
      <trkpt lat="50.39117" lon="4.45725">
        <ele>118.2</ele>
        <time>2024-03-07T12:42:03Z</time>
      </trkpt>
      <trkpt lat="50.3912" lon="4.45719">
        <ele>118.2</ele>
        <time>2024-03-07T12:42:04Z</time>
      </trkpt>
      <trkpt lat="50.39128" lon="4.45699">
        <ele>117.8</ele>
        <time>2024-03-07T12:42:08Z</time>
      </trkpt>
      <trkpt lat="50.3913" lon="4.45694">
        <ele>117.8</ele>
        <time>2024-03-07T12:42:09Z</time>
      </trkpt>
      <trkpt lat="50.39141" lon="4.45668">
        <ele>117.4</ele>
        <time>2024-03-07T12:42:13Z</time>
      </trkpt>
      <trkpt lat="50.39165" lon="4.45613">
        <ele>116.8</ele>
        <time>2024-03-07T12:42:21Z</time>
      </trkpt>
      <trkpt lat="50.39169" lon="4.45603">
        <ele>116.4</ele>
        <time>2024-03-07T12:42:24Z</time>
      </trkpt>
      <trkpt lat="50.39171" lon="4.45597">
        <ele>116</ele>
        <time>2024-03-07T12:42:26Z</time>
      </trkpt>
      <trkpt lat="50.39169" lon="4.4559">
        <ele>115.6</ele>
        <time>2024-03-07T12:42:28Z</time>
      </trkpt>
      <trkpt lat="50.39159" lon="4.45581">
        <ele>115.4</ele>
        <time>2024-03-07T12:42:32Z</time>
      </trkpt>
      <trkpt lat="50.39137" lon="4.45565">
        <ele>115</ele>
        <time>2024-03-07T12:42:38Z</time>
      </trkpt>
      <trkpt lat="50.39113" lon="4.45547">
        <ele>114.8</ele>
        <time>2024-03-07T12:42:45Z</time>
      </trkpt>
      <trkpt lat="50.39082" lon="4.45528">
        <ele>115</ele>
        <time>2024-03-07T12:42:54Z</time>
      </trkpt>
      <trkpt lat="50.39061" lon="4.45517">
        <ele>115.2</ele>
        <time>2024-03-07T12:43:00Z</time>
      </trkpt>
      <trkpt lat="50.39033" lon="4.45502">
        <ele>115.6</ele>
        <time>2024-03-07T12:43:08Z</time>
      </trkpt>
      <trkpt lat="50.39003" lon="4.4549">
        <ele>116</ele>
        <time>2024-03-07T12:43:16Z</time>
      </trkpt>
      <trkpt lat="50.38977" lon="4.45479">
        <ele>116.6</ele>
        <time>2024-03-07T12:43:23Z</time>
      </trkpt>
      <trkpt lat="50.38948" lon="4.45469">
        <ele>117.2</ele>
        <time>2024-03-07T12:43:31Z</time>
      </trkpt>
      <trkpt lat="50.38921" lon="4.45458">
        <ele>117.6</ele>
        <time>2024-03-07T12:43:38Z</time>
      </trkpt>
      <trkpt lat="50.38889" lon="4.45442">
        <ele>118</ele>
        <time>2024-03-07T12:43:46Z</time>
      </trkpt>
      <trkpt lat="50.38866" lon="4.45432">
        <ele>118.2</ele>
        <time>2024-03-07T12:43:52Z</time>
      </trkpt>
      <trkpt lat="50.38863" lon="4.4543">
        <ele>118.4</ele>
        <time>2024-03-07T12:43:53Z</time>
      </trkpt>
      <trkpt lat="50.38839" lon="4.45418">
        <ele>118.6</ele>
        <time>2024-03-07T12:43:59Z</time>
      </trkpt>
      <trkpt lat="50.38803" lon="4.45408">
        <ele>119.2</ele>
        <time>2024-03-07T12:44:08Z</time>
      </trkpt>
      <trkpt lat="50.38776" lon="4.45402">
        <ele>119.8</ele>
        <time>2024-03-07T12:44:15Z</time>
      </trkpt>
      <trkpt lat="50.38763" lon="4.45405">
        <ele>120</ele>
        <time>2024-03-07T12:44:18Z</time>
      </trkpt>
      <trkpt lat="50.3875" lon="4.45412">
        <ele>120.2</ele>
        <time>2024-03-07T12:44:21Z</time>
      </trkpt>
      <trkpt lat="50.38719" lon="4.45427">
        <ele>121</ele>
        <time>2024-03-07T12:44:28Z</time>
      </trkpt>
      <trkpt lat="50.38708" lon="4.4543">
        <ele>121</ele>
        <time>2024-03-07T12:44:31Z</time>
      </trkpt>
      <trkpt lat="50.38703" lon="4.45432">
        <ele>121</ele>
        <time>2024-03-07T12:44:32Z</time>
      </trkpt>
      <trkpt lat="50.38676" lon="4.45443">
        <ele>121</ele>
        <time>2024-03-07T12:44:38Z</time>
      </trkpt>
      <trkpt lat="50.38642" lon="4.45446">
        <ele>121.6</ele>
        <time>2024-03-07T12:44:46Z</time>
      </trkpt>
      <trkpt lat="50.38612" lon="4.45447">
        <ele>122.4</ele>
        <time>2024-03-07T12:44:54Z</time>
      </trkpt>
      <trkpt lat="50.38583" lon="4.45443">
        <ele>123.2</ele>
        <time>2024-03-07T12:45:01Z</time>
      </trkpt>
      <trkpt lat="50.38559" lon="4.45434">
        <ele>123.8</ele>
        <time>2024-03-07T12:45:07Z</time>
      </trkpt>
      <trkpt lat="50.38523" lon="4.45422">
        <ele>125.2</ele>
        <time>2024-03-07T12:45:16Z</time>
      </trkpt>
      <trkpt lat="50.385" lon="4.45413">
        <ele>125.8</ele>
        <time>2024-03-07T12:45:22Z</time>
      </trkpt>
      <trkpt lat="50.38464" lon="4.45399">
        <ele>127.2</ele>
        <time>2024-03-07T12:45:31Z</time>
      </trkpt>
      <trkpt lat="50.38423" lon="4.45375">
        <ele>128.6</ele>
        <time>2024-03-07T12:45:41Z</time>
      </trkpt>
      <trkpt lat="50.38386" lon="4.45353">
        <ele>130.2</ele>
        <time>2024-03-07T12:45:50Z</time>
      </trkpt>
      <trkpt lat="50.3836" lon="4.45337">
        <ele>131</ele>
        <time>2024-03-07T12:45:57Z</time>
      </trkpt>
      <trkpt lat="50.38342" lon="4.45328">
        <ele>131.8</ele>
        <time>2024-03-07T12:46:04Z</time>
      </trkpt>
      <trkpt lat="50.38335" lon="4.4532">
        <ele>132.4</ele>
        <time>2024-03-07T12:46:08Z</time>
      </trkpt>
      <trkpt lat="50.38334" lon="4.45317">
        <ele>132.4</ele>
        <time>2024-03-07T12:46:09Z</time>
      </trkpt>
      <trkpt lat="50.38329" lon="4.4531">
        <ele>133</ele>
        <time>2024-03-07T12:46:13Z</time>
      </trkpt>
      <trkpt lat="50.38327" lon="4.45311">
        <ele>133</ele>
        <time>2024-03-07T12:46:14Z</time>
      </trkpt>
      <trkpt lat="50.38326" lon="4.45313">
        <ele>133.2</ele>
        <time>2024-03-07T12:46:15Z</time>
      </trkpt>
      <trkpt lat="50.38326" lon="4.45321">
        <ele>133.4</ele>
        <time>2024-03-07T12:46:17Z</time>
      </trkpt>
      <trkpt lat="50.38332" lon="4.45332">
        <ele>133.6</ele>
        <time>2024-03-07T12:46:21Z</time>
      </trkpt>
      <trkpt lat="50.38332" lon="4.45332">
        <ele>133.8</ele>
        <time>2024-03-07T12:46:22Z</time>
      </trkpt>
      <trkpt lat="50.38332" lon="4.45332">
        <ele>134.6</ele>
        <time>2024-03-07T12:46:33Z</time>
      </trkpt>
      <trkpt lat="50.38332" lon="4.45332">
        <ele>136.6</ele>
        <time>2024-03-07T12:47:01Z</time>
      </trkpt>
      <trkpt lat="50.38332" lon="4.45332">
        <ele>137.4</ele>
        <time>2024-03-07T12:47:16Z</time>
      </trkpt>
      <trkpt lat="50.38332" lon="4.45332">
        <ele>138.4</ele>
        <time>2024-03-07T12:47:37Z</time>
      </trkpt>
      <trkpt lat="50.38333" lon="4.45332">
        <ele>138.8</ele>
        <time>2024-03-07T12:47:47Z</time>
      </trkpt>
      <trkpt lat="50.38333" lon="4.45324">
        <ele>139</ele>
        <time>2024-03-07T12:47:53Z</time>
      </trkpt>
      <trkpt lat="50.38339" lon="4.45301">
        <ele>139.2</ele>
        <time>2024-03-07T12:47:58Z</time>
      </trkpt>
      <trkpt lat="50.38341" lon="4.4528">
        <ele>139.4</ele>
        <time>2024-03-07T12:48:03Z</time>
      </trkpt>
      <trkpt lat="50.38341" lon="4.45276">
        <ele>139.4</ele>
        <time>2024-03-07T12:48:05Z</time>
      </trkpt>
      <trkpt lat="50.38341" lon="4.45272">
        <ele>139.6</ele>
        <time>2024-03-07T12:48:08Z</time>
      </trkpt>
      <trkpt lat="50.38341" lon="4.45272">
        <ele>140</ele>
        <time>2024-03-07T12:48:13Z</time>
      </trkpt>
      <trkpt lat="50.38343" lon="4.45262">
        <ele>140</ele>
        <time>2024-03-07T12:48:17Z</time>
      </trkpt>
      <trkpt lat="50.38345" lon="4.45245">
        <ele>139.8</ele>
        <time>2024-03-07T12:48:20Z</time>
      </trkpt>
      <trkpt lat="50.38347" lon="4.45239">
        <ele>139.8</ele>
        <time>2024-03-07T12:48:21Z</time>
      </trkpt>
      <trkpt lat="50.38352" lon="4.45203">
        <ele>139.6</ele>
        <time>2024-03-07T12:48:27Z</time>
      </trkpt>
      <trkpt lat="50.38353" lon="4.45197">
        <ele>139.2</ele>
        <time>2024-03-07T12:48:28Z</time>
      </trkpt>
      <trkpt lat="50.38357" lon="4.45173">
        <ele>139.4</ele>
        <time>2024-03-07T12:48:32Z</time>
      </trkpt>
      <trkpt lat="50.38361" lon="4.45144">
        <ele>139</ele>
        <time>2024-03-07T12:48:37Z</time>
      </trkpt>
      <trkpt lat="50.3837" lon="4.45124">
        <ele>138.4</ele>
        <time>2024-03-07T12:48:42Z</time>
      </trkpt>
      <trkpt lat="50.38374" lon="4.45121">
        <ele>138.2</ele>
        <time>2024-03-07T12:48:43Z</time>
      </trkpt>
      <trkpt lat="50.38381" lon="4.45114">
        <ele>138</ele>
        <time>2024-03-07T12:48:45Z</time>
      </trkpt>
      <trkpt lat="50.38384" lon="4.4511">
        <ele>137.8</ele>
        <time>2024-03-07T12:48:46Z</time>
      </trkpt>
      <trkpt lat="50.38386" lon="4.45105">
        <ele>137.6</ele>
        <time>2024-03-07T12:48:47Z</time>
      </trkpt>
      <trkpt lat="50.38387" lon="4.45098">
        <ele>137.2</ele>
        <time>2024-03-07T12:48:49Z</time>
      </trkpt>
      <trkpt lat="50.38385" lon="4.45082">
        <ele>136.4</ele>
        <time>2024-03-07T12:48:54Z</time>
      </trkpt>
      <trkpt lat="50.38383" lon="4.45074">
        <ele>136.2</ele>
        <time>2024-03-07T12:48:56Z</time>
      </trkpt>
      <trkpt lat="50.38382" lon="4.45068">
        <ele>136.2</ele>
        <time>2024-03-07T12:48:57Z</time>
      </trkpt>
      <trkpt lat="50.3838" lon="4.45061">
        <ele>136</ele>
        <time>2024-03-07T12:48:58Z</time>
      </trkpt>
      <trkpt lat="50.38373" lon="4.45038">
        <ele>135.6</ele>
        <time>2024-03-07T12:49:01Z</time>
      </trkpt>
      <trkpt lat="50.38361" lon="4.45012">
        <ele>134.8</ele>
        <time>2024-03-07T12:49:06Z</time>
      </trkpt>
      <trkpt lat="50.38352" lon="4.44997">
        <ele>134</ele>
        <time>2024-03-07T12:49:11Z</time>
      </trkpt>
      <trkpt lat="50.38344" lon="4.44978">
        <ele>133.6</ele>
        <time>2024-03-07T12:49:15Z</time>
      </trkpt>
      <trkpt lat="50.38332" lon="4.44952">
        <ele>133.4</ele>
        <time>2024-03-07T12:49:20Z</time>
      </trkpt>
      <trkpt lat="50.38329" lon="4.44941">
        <ele>133.4</ele>
        <time>2024-03-07T12:49:22Z</time>
      </trkpt>
      <trkpt lat="50.38329" lon="4.44935">
        <ele>133.4</ele>
        <time>2024-03-07T12:49:23Z</time>
      </trkpt>
      <trkpt lat="50.38331" lon="4.44923">
        <ele>133.2</ele>
        <time>2024-03-07T12:49:25Z</time>
      </trkpt>
      <trkpt lat="50.38334" lon="4.44904">
        <ele>133.2</ele>
        <time>2024-03-07T12:49:28Z</time>
      </trkpt>
      <trkpt lat="50.38336" lon="4.44891">
        <ele>133.4</ele>
        <time>2024-03-07T12:49:30Z</time>
      </trkpt>
      <trkpt lat="50.38338" lon="4.44878">
        <ele>133.6</ele>
        <time>2024-03-07T12:49:32Z</time>
      </trkpt>
      <trkpt lat="50.38341" lon="4.44843">
        <ele>133.4</ele>
        <time>2024-03-07T12:49:37Z</time>
      </trkpt>
      <trkpt lat="50.38344" lon="4.448">
        <ele>134.2</ele>
        <time>2024-03-07T12:49:43Z</time>
      </trkpt>
      <trkpt lat="50.38345" lon="4.44769">
        <ele>134.6</ele>
        <time>2024-03-07T12:49:49Z</time>
      </trkpt>
      <trkpt lat="50.38342" lon="4.4476">
        <ele>134.6</ele>
        <time>2024-03-07T12:49:51Z</time>
      </trkpt>
      <trkpt lat="50.3834" lon="4.44757">
        <ele>134.8</ele>
        <time>2024-03-07T12:49:52Z</time>
      </trkpt>
      <trkpt lat="50.3833" lon="4.44756">
        <ele>135.2</ele>
        <time>2024-03-07T12:49:56Z</time>
      </trkpt>
      <trkpt lat="50.38323" lon="4.44743">
        <ele>135.4</ele>
        <time>2024-03-07T12:50:01Z</time>
      </trkpt>
      <trkpt lat="50.38322" lon="4.44738">
        <ele>135.6</ele>
        <time>2024-03-07T12:50:03Z</time>
      </trkpt>
      <trkpt lat="50.3832" lon="4.44738">
        <ele>135.8</ele>
        <time>2024-03-07T12:50:05Z</time>
      </trkpt>
      <trkpt lat="50.38321" lon="4.44741">
        <ele>136</ele>
        <time>2024-03-07T12:50:11Z</time>
      </trkpt>
      <trkpt lat="50.38321" lon="4.44741">
        <ele>136.6</ele>
        <time>2024-03-07T12:50:24Z</time>
      </trkpt>
      <trkpt lat="50.38321" lon="4.44741">
        <ele>137.2</ele>
        <time>2024-03-07T12:50:37Z</time>
      </trkpt>
      <trkpt lat="50.3832" lon="4.44741">
        <ele>137.6</ele>
        <time>2024-03-07T12:50:48Z</time>
      </trkpt>
      <trkpt lat="50.3832" lon="4.44741">
        <ele>138.2</ele>
        <time>2024-03-07T12:51:05Z</time>
      </trkpt>
      <trkpt lat="50.3832" lon="4.44741">
        <ele>138.8</ele>
        <time>2024-03-07T12:51:27Z</time>
      </trkpt>
      <trkpt lat="50.3832" lon="4.44741">
        <ele>139.2</ele>
        <time>2024-03-07T12:51:43Z</time>
      </trkpt>
      <trkpt lat="50.3832" lon="4.44741">
        <ele>139.2</ele>
        <time>2024-03-07T12:51:44Z</time>
      </trkpt>
      <trkpt lat="50.38319" lon="4.44736">
        <ele>139.2</ele>
        <time>2024-03-07T12:51:46Z</time>
      </trkpt>
      <trkpt lat="50.38318" lon="4.44733">
        <ele>139.4</ele>
        <time>2024-03-07T12:51:47Z</time>
      </trkpt>
      <trkpt lat="50.38314" lon="4.44712">
        <ele>139.4</ele>
        <time>2024-03-07T12:51:52Z</time>
      </trkpt>
      <trkpt lat="50.38298" lon="4.44692">
        <ele>139.4</ele>
        <time>2024-03-07T12:51:57Z</time>
      </trkpt>
      <trkpt lat="50.38291" lon="4.44685">
        <ele>139.4</ele>
        <time>2024-03-07T12:51:59Z</time>
      </trkpt>
      <trkpt lat="50.38277" lon="4.44672">
        <ele>139.6</ele>
        <time>2024-03-07T12:52:03Z</time>
      </trkpt>
      <trkpt lat="50.38253" lon="4.44643">
        <ele>140.2</ele>
        <time>2024-03-07T12:52:11Z</time>
      </trkpt>
      <trkpt lat="50.3824" lon="4.44633">
        <ele>141</ele>
        <time>2024-03-07T12:52:16Z</time>
      </trkpt>
      <trkpt lat="50.38234" lon="4.44626">
        <ele>141.6</ele>
        <time>2024-03-07T12:52:20Z</time>
      </trkpt>
      <trkpt lat="50.3822" lon="4.44604">
        <ele>141.8</ele>
        <time>2024-03-07T12:52:26Z</time>
      </trkpt>
      <trkpt lat="50.38209" lon="4.44568">
        <ele>142.2</ele>
        <time>2024-03-07T12:52:33Z</time>
      </trkpt>
      <trkpt lat="50.38196" lon="4.44527">
        <ele>142.4</ele>
        <time>2024-03-07T12:52:41Z</time>
      </trkpt>
      <trkpt lat="50.38186" lon="4.44499">
        <ele>142.4</ele>
        <time>2024-03-07T12:52:47Z</time>
      </trkpt>
      <trkpt lat="50.38174" lon="4.44472">
        <ele>142.2</ele>
        <time>2024-03-07T12:52:53Z</time>
      </trkpt>
      <trkpt lat="50.38176" lon="4.44464">
        <ele>142.2</ele>
        <time>2024-03-07T12:52:55Z</time>
      </trkpt>
      <trkpt lat="50.38178" lon="4.44461">
        <ele>142.2</ele>
        <time>2024-03-07T12:52:56Z</time>
      </trkpt>
      <trkpt lat="50.38184" lon="4.44459">
        <ele>142.4</ele>
        <time>2024-03-07T12:52:59Z</time>
      </trkpt>
      <trkpt lat="50.38185" lon="4.44456">
        <ele>142</ele>
        <time>2024-03-07T12:53:00Z</time>
      </trkpt>
      <trkpt lat="50.38184" lon="4.44447">
        <ele>142</ele>
        <time>2024-03-07T12:53:03Z</time>
      </trkpt>
      <trkpt lat="50.38189" lon="4.44451">
        <ele>141.8</ele>
        <time>2024-03-07T12:53:06Z</time>
      </trkpt>
      <trkpt lat="50.38199" lon="4.44467">
        <ele>141.4</ele>
        <time>2024-03-07T12:53:10Z</time>
      </trkpt>
      <trkpt lat="50.38202" lon="4.4447">
        <ele>141.4</ele>
        <time>2024-03-07T12:53:11Z</time>
      </trkpt>
      <trkpt lat="50.38207" lon="4.44471">
        <ele>141.2</ele>
        <time>2024-03-07T12:53:13Z</time>
      </trkpt>
      <trkpt lat="50.38209" lon="4.4447">
        <ele>141</ele>
        <time>2024-03-07T12:53:14Z</time>
      </trkpt>
      <trkpt lat="50.38211" lon="4.44463">
        <ele>140.8</ele>
        <time>2024-03-07T12:53:17Z</time>
      </trkpt>
      <trkpt lat="50.38207" lon="4.44461">
        <ele>140.6</ele>
        <time>2024-03-07T12:53:19Z</time>
      </trkpt>
      <trkpt lat="50.38205" lon="4.44461">
        <ele>140.4</ele>
        <time>2024-03-07T12:53:20Z</time>
      </trkpt>
      <trkpt lat="50.382" lon="4.44458">
        <ele>140.2</ele>
        <time>2024-03-07T12:53:22Z</time>
      </trkpt>
      <trkpt lat="50.38197" lon="4.44448">
        <ele>140</ele>
        <time>2024-03-07T12:53:24Z</time>
      </trkpt>
      <trkpt lat="50.38194" lon="4.44432">
        <ele>139.6</ele>
        <time>2024-03-07T12:53:27Z</time>
      </trkpt>
      <trkpt lat="50.38196" lon="4.44429">
        <ele>139.6</ele>
        <time>2024-03-07T12:53:28Z</time>
      </trkpt>
      <trkpt lat="50.38206" lon="4.44415">
        <ele>139</ele>
        <time>2024-03-07T12:53:32Z</time>
      </trkpt>
      <trkpt lat="50.38213" lon="4.44397">
        <ele>138.4</ele>
        <time>2024-03-07T12:53:36Z</time>
      </trkpt>
      <trkpt lat="50.38219" lon="4.44398">
        <ele>138</ele>
        <time>2024-03-07T12:53:38Z</time>
      </trkpt>
      <trkpt lat="50.38222" lon="4.44401">
        <ele>137.8</ele>
        <time>2024-03-07T12:53:39Z</time>
      </trkpt>
      <trkpt lat="50.38231" lon="4.4441">
        <ele>137</ele>
        <time>2024-03-07T12:53:44Z</time>
      </trkpt>
      <trkpt lat="50.38243" lon="4.44421">
        <ele>135.4</ele>
        <time>2024-03-07T12:53:51Z</time>
      </trkpt>
      <trkpt lat="50.38249" lon="4.44424">
        <ele>134.8</ele>
        <time>2024-03-07T12:53:54Z</time>
      </trkpt>
      <trkpt lat="50.38251" lon="4.44421">
        <ele>134.4</ele>
        <time>2024-03-07T12:53:56Z</time>
      </trkpt>
      <trkpt lat="50.38252" lon="4.44418">
        <ele>134.2</ele>
        <time>2024-03-07T12:53:57Z</time>
      </trkpt>
      <trkpt lat="50.38247" lon="4.4441">
        <ele>133.8</ele>
        <time>2024-03-07T12:54:00Z</time>
      </trkpt>
      <trkpt lat="50.38235" lon="4.444">
        <ele>133.2</ele>
        <time>2024-03-07T12:54:05Z</time>
      </trkpt>
      <trkpt lat="50.38226" lon="4.44383">
        <ele>132.8</ele>
        <time>2024-03-07T12:54:10Z</time>
      </trkpt>
      <trkpt lat="50.3822" lon="4.4437">
        <ele>132.2</ele>
        <time>2024-03-07T12:54:14Z</time>
      </trkpt>
      <trkpt lat="50.38212" lon="4.44352">
        <ele>132</ele>
        <time>2024-03-07T12:54:20Z</time>
      </trkpt>
      <trkpt lat="50.38204" lon="4.44339">
        <ele>131.8</ele>
        <time>2024-03-07T12:54:25Z</time>
      </trkpt>
      <trkpt lat="50.38197" lon="4.44329">
        <ele>131.8</ele>
        <time>2024-03-07T12:54:30Z</time>
      </trkpt>
      <trkpt lat="50.38188" lon="4.44315">
        <ele>132</ele>
        <time>2024-03-07T12:54:37Z</time>
      </trkpt>
      <trkpt lat="50.38185" lon="4.44311">
        <ele>131.6</ele>
        <time>2024-03-07T12:54:39Z</time>
      </trkpt>
      <trkpt lat="50.38181" lon="4.44304">
        <ele>132.6</ele>
        <time>2024-03-07T12:54:42Z</time>
      </trkpt>
      <trkpt lat="50.38172" lon="4.44292">
        <ele>132.4</ele>
        <time>2024-03-07T12:54:47Z</time>
      </trkpt>
      <trkpt lat="50.38163" lon="4.44276">
        <ele>132.6</ele>
        <time>2024-03-07T12:54:53Z</time>
      </trkpt>
      <trkpt lat="50.38163" lon="4.44274">
        <ele>132.8</ele>
        <time>2024-03-07T12:54:54Z</time>
      </trkpt>
      <trkpt lat="50.38153" lon="4.44256">
        <ele>133.4</ele>
        <time>2024-03-07T12:55:01Z</time>
      </trkpt>
      <trkpt lat="50.38149" lon="4.44244">
        <ele>134</ele>
        <time>2024-03-07T12:55:06Z</time>
      </trkpt>
      <trkpt lat="50.38142" lon="4.44226">
        <ele>134.4</ele>
        <time>2024-03-07T12:55:10Z</time>
      </trkpt>
      <trkpt lat="50.38132" lon="4.44209">
        <ele>134.8</ele>
        <time>2024-03-07T12:55:15Z</time>
      </trkpt>
      <trkpt lat="50.38122" lon="4.44199">
        <ele>135.4</ele>
        <time>2024-03-07T12:55:21Z</time>
      </trkpt>
      <trkpt lat="50.38109" lon="4.44185">
        <ele>135.8</ele>
        <time>2024-03-07T12:55:26Z</time>
      </trkpt>
      <trkpt lat="50.38092" lon="4.44168">
        <ele>136.4</ele>
        <time>2024-03-07T12:55:33Z</time>
      </trkpt>
      <trkpt lat="50.38079" lon="4.4415">
        <ele>136.8</ele>
        <time>2024-03-07T12:55:39Z</time>
      </trkpt>
      <trkpt lat="50.38069" lon="4.44138">
        <ele>137.2</ele>
        <time>2024-03-07T12:55:43Z</time>
      </trkpt>
      <trkpt lat="50.38052" lon="4.44121">
        <ele>137.4</ele>
        <time>2024-03-07T12:55:49Z</time>
      </trkpt>
      <trkpt lat="50.38042" lon="4.44113">
        <ele>137.4</ele>
        <time>2024-03-07T12:55:53Z</time>
      </trkpt>
      <trkpt lat="50.38028" lon="4.44101">
        <ele>137.4</ele>
        <time>2024-03-07T12:55:57Z</time>
      </trkpt>
      <trkpt lat="50.38017" lon="4.44104">
        <ele>137.2</ele>
        <time>2024-03-07T12:56:00Z</time>
      </trkpt>
      <trkpt lat="50.38" lon="4.44116">
        <ele>136.8</ele>
        <time>2024-03-07T12:56:05Z</time>
      </trkpt>
      <trkpt lat="50.37999" lon="4.44118">
        <ele>136.6</ele>
        <time>2024-03-07T12:56:06Z</time>
      </trkpt>
      <trkpt lat="50.37997" lon="4.44122">
        <ele>136.4</ele>
        <time>2024-03-07T12:56:08Z</time>
      </trkpt>
      <trkpt lat="50.37996" lon="4.44127">
        <ele>136.2</ele>
        <time>2024-03-07T12:56:10Z</time>
      </trkpt>
      <trkpt lat="50.37993" lon="4.44129">
        <ele>136</ele>
        <time>2024-03-07T12:56:12Z</time>
      </trkpt>
      <trkpt lat="50.37991" lon="4.4413">
        <ele>136</ele>
        <time>2024-03-07T12:56:13Z</time>
      </trkpt>
      <trkpt lat="50.37981" lon="4.44137">
        <ele>135.6</ele>
        <time>2024-03-07T12:56:18Z</time>
      </trkpt>
      <trkpt lat="50.3798" lon="4.4414">
        <ele>135.6</ele>
        <time>2024-03-07T12:56:19Z</time>
      </trkpt>
      <trkpt lat="50.37977" lon="4.44153">
        <ele>135.6</ele>
        <time>2024-03-07T12:56:22Z</time>
      </trkpt>
      <trkpt lat="50.3797" lon="4.4418">
        <ele>135.2</ele>
        <time>2024-03-07T12:56:28Z</time>
      </trkpt>
      <trkpt lat="50.37962" lon="4.44208">
        <ele>135.2</ele>
        <time>2024-03-07T12:56:35Z</time>
      </trkpt>
      <trkpt lat="50.37956" lon="4.44229">
        <ele>135.8</ele>
        <time>2024-03-07T12:56:40Z</time>
      </trkpt>
      <trkpt lat="50.37946" lon="4.44255">
        <ele>136</ele>
        <time>2024-03-07T12:56:46Z</time>
      </trkpt>
      <trkpt lat="50.3794" lon="4.44271">
        <ele>136.4</ele>
        <time>2024-03-07T12:56:50Z</time>
      </trkpt>
      <trkpt lat="50.37937" lon="4.44272">
        <ele>136.6</ele>
        <time>2024-03-07T12:56:51Z</time>
      </trkpt>
      <trkpt lat="50.37926" lon="4.44263">
        <ele>137</ele>
        <time>2024-03-07T12:56:55Z</time>
      </trkpt>
      <trkpt lat="50.3791" lon="4.4425">
        <ele>137.2</ele>
        <time>2024-03-07T12:57:00Z</time>
      </trkpt>
      <trkpt lat="50.37893" lon="4.44238">
        <ele>137.6</ele>
        <time>2024-03-07T12:57:05Z</time>
      </trkpt>
      <trkpt lat="50.37871" lon="4.44224">
        <ele>138.2</ele>
        <time>2024-03-07T12:57:11Z</time>
      </trkpt>
      <trkpt lat="50.37856" lon="4.44211">
        <ele>138.6</ele>
        <time>2024-03-07T12:57:16Z</time>
      </trkpt>
      <trkpt lat="50.3784" lon="4.44197">
        <ele>138.8</ele>
        <time>2024-03-07T12:57:21Z</time>
      </trkpt>
      <trkpt lat="50.37821" lon="4.44181">
        <ele>138.8</ele>
        <time>2024-03-07T12:57:27Z</time>
      </trkpt>
      <trkpt lat="50.37808" lon="4.44174">
        <ele>138.6</ele>
        <time>2024-03-07T12:57:31Z</time>
      </trkpt>
      <trkpt lat="50.37786" lon="4.44159">
        <ele>138.6</ele>
        <time>2024-03-07T12:57:37Z</time>
      </trkpt>
      <trkpt lat="50.37766" lon="4.44145">
        <ele>138.4</ele>
        <time>2024-03-07T12:57:43Z</time>
      </trkpt>
      <trkpt lat="50.3775" lon="4.44132">
        <ele>137.6</ele>
        <time>2024-03-07T12:57:49Z</time>
      </trkpt>
      <trkpt lat="50.3774" lon="4.44123">
        <ele>137</ele>
        <time>2024-03-07T12:57:53Z</time>
      </trkpt>
      <trkpt lat="50.37721" lon="4.4411">
        <ele>136.8</ele>
        <time>2024-03-07T12:57:59Z</time>
      </trkpt>
      <trkpt lat="50.37704" lon="4.44098">
        <ele>136</ele>
        <time>2024-03-07T12:58:05Z</time>
      </trkpt>
      <trkpt lat="50.37692" lon="4.44086">
        <ele>136.2</ele>
        <time>2024-03-07T12:58:09Z</time>
      </trkpt>
      <trkpt lat="50.37676" lon="4.44078">
        <ele>138</ele>
        <time>2024-03-07T12:58:14Z</time>
      </trkpt>
      <trkpt lat="50.37656" lon="4.44069">
        <ele>137.8</ele>
        <time>2024-03-07T12:58:20Z</time>
      </trkpt>
      <trkpt lat="50.3765" lon="4.44062">
        <ele>138</ele>
        <time>2024-03-07T12:58:23Z</time>
      </trkpt>
      <trkpt lat="50.37649" lon="4.44061">
        <ele>138.2</ele>
        <time>2024-03-07T12:58:24Z</time>
      </trkpt>
      <trkpt lat="50.37644" lon="4.44061">
        <ele>138.4</ele>
        <time>2024-03-07T12:58:26Z</time>
      </trkpt>
      <trkpt lat="50.37641" lon="4.44059">
        <ele>138.4</ele>
        <time>2024-03-07T12:58:27Z</time>
      </trkpt>
      <trkpt lat="50.37623" lon="4.44046">
        <ele>138.8</ele>
        <time>2024-03-07T12:58:33Z</time>
      </trkpt>
      <trkpt lat="50.37605" lon="4.4404">
        <ele>139.2</ele>
        <time>2024-03-07T12:58:38Z</time>
      </trkpt>
      <trkpt lat="50.37584" lon="4.44041">
        <ele>139.8</ele>
        <time>2024-03-07T12:58:44Z</time>
      </trkpt>
      <trkpt lat="50.37559" lon="4.4405">
        <ele>140.4</ele>
        <time>2024-03-07T12:58:51Z</time>
      </trkpt>
      <trkpt lat="50.37543" lon="4.44064">
        <ele>140.8</ele>
        <time>2024-03-07T12:58:56Z</time>
      </trkpt>
      <trkpt lat="50.3753" lon="4.44083">
        <ele>141</ele>
        <time>2024-03-07T12:59:01Z</time>
      </trkpt>
      <trkpt lat="50.37522" lon="4.44102">
        <ele>141.2</ele>
        <time>2024-03-07T12:59:05Z</time>
      </trkpt>
      <trkpt lat="50.37513" lon="4.44131">
        <ele>141.2</ele>
        <time>2024-03-07T12:59:10Z</time>
      </trkpt>
      <trkpt lat="50.37509" lon="4.44161">
        <ele>141</ele>
        <time>2024-03-07T12:59:15Z</time>
      </trkpt>
      <trkpt lat="50.37503" lon="4.44193">
        <ele>141</ele>
        <time>2024-03-07T12:59:21Z</time>
      </trkpt>
      <trkpt lat="50.37498" lon="4.4424">
        <ele>141.4</ele>
        <time>2024-03-07T12:59:28Z</time>
      </trkpt>
      <trkpt lat="50.37492" lon="4.44266">
        <ele>141.6</ele>
        <time>2024-03-07T12:59:32Z</time>
      </trkpt>
      <trkpt lat="50.37487" lon="4.44278">
        <ele>141.8</ele>
        <time>2024-03-07T12:59:34Z</time>
      </trkpt>
      <trkpt lat="50.37471" lon="4.44308">
        <ele>142.6</ele>
        <time>2024-03-07T12:59:40Z</time>
      </trkpt>
      <trkpt lat="50.37451" lon="4.44327">
        <ele>144.4</ele>
        <time>2024-03-07T12:59:45Z</time>
      </trkpt>
      <trkpt lat="50.3744" lon="4.44336">
        <ele>145.2</ele>
        <time>2024-03-07T12:59:48Z</time>
      </trkpt>
      <trkpt lat="50.37435" lon="4.44337">
        <ele>145.6</ele>
        <time>2024-03-07T12:59:50Z</time>
      </trkpt>
      <trkpt lat="50.37434" lon="4.44338">
        <ele>145.6</ele>
        <time>2024-03-07T12:59:51Z</time>
      </trkpt>
      <trkpt lat="50.37429" lon="4.44343">
        <ele>145.6</ele>
        <time>2024-03-07T12:59:53Z</time>
      </trkpt>
      <trkpt lat="50.37412" lon="4.4435">
        <ele>145.6</ele>
        <time>2024-03-07T12:59:58Z</time>
      </trkpt>
      <trkpt lat="50.37397" lon="4.44351">
        <ele>146.8</ele>
        <time>2024-03-07T13:00:04Z</time>
      </trkpt>
      <trkpt lat="50.37397" lon="4.44351">
        <ele>147.4</ele>
        <time>2024-03-07T13:00:09Z</time>
      </trkpt>
      <trkpt lat="50.37397" lon="4.44351">
        <ele>148.8</ele>
        <time>2024-03-07T13:00:19Z</time>
      </trkpt>
      <trkpt lat="50.37397" lon="4.44351">
        <ele>149</ele>
        <time>2024-03-07T13:00:21Z</time>
      </trkpt>
      <trkpt lat="50.37391" lon="4.44351">
        <ele>149.4</ele>
        <time>2024-03-07T13:00:24Z</time>
      </trkpt>
      <trkpt lat="50.37375" lon="4.44344">
        <ele>150.2</ele>
        <time>2024-03-07T13:00:29Z</time>
      </trkpt>
      <trkpt lat="50.37362" lon="4.44335">
        <ele>151</ele>
        <time>2024-03-07T13:00:34Z</time>
      </trkpt>
      <trkpt lat="50.37344" lon="4.44323">
        <ele>152.2</ele>
        <time>2024-03-07T13:00:40Z</time>
      </trkpt>
      <trkpt lat="50.37316" lon="4.44304">
        <ele>154.2</ele>
        <time>2024-03-07T13:00:49Z</time>
      </trkpt>
      <trkpt lat="50.37284" lon="4.44282">
        <ele>156.6</ele>
        <time>2024-03-07T13:00:58Z</time>
      </trkpt>
      <trkpt lat="50.37247" lon="4.44255">
        <ele>158.8</ele>
        <time>2024-03-07T13:01:08Z</time>
      </trkpt>
      <trkpt lat="50.37216" lon="4.44234">
        <ele>160.2</ele>
        <time>2024-03-07T13:01:15Z</time>
      </trkpt>
      <trkpt lat="50.3719" lon="4.44215">
        <ele>161.6</ele>
        <time>2024-03-07T13:01:21Z</time>
      </trkpt>
      <trkpt lat="50.37158" lon="4.44188">
        <ele>163.8</ele>
        <time>2024-03-07T13:01:30Z</time>
      </trkpt>
      <trkpt lat="50.37132" lon="4.44174">
        <ele>165.2</ele>
        <time>2024-03-07T13:01:37Z</time>
      </trkpt>
      <trkpt lat="50.3712" lon="4.44171">
        <ele>165.8</ele>
        <time>2024-03-07T13:01:40Z</time>
      </trkpt>
      <trkpt lat="50.37104" lon="4.44169">
        <ele>166.4</ele>
        <time>2024-03-07T13:01:44Z</time>
      </trkpt>
      <trkpt lat="50.37082" lon="4.44161">
        <ele>167.4</ele>
        <time>2024-03-07T13:01:50Z</time>
      </trkpt>
      <trkpt lat="50.37067" lon="4.44159">
        <ele>168.4</ele>
        <time>2024-03-07T13:01:55Z</time>
      </trkpt>
      <trkpt lat="50.37047" lon="4.44154">
        <ele>169.8</ele>
        <time>2024-03-07T13:02:02Z</time>
      </trkpt>
      <trkpt lat="50.3702" lon="4.44148">
        <ele>171.2</ele>
        <time>2024-03-07T13:02:10Z</time>
      </trkpt>
      <trkpt lat="50.36995" lon="4.44142">
        <ele>172.6</ele>
        <time>2024-03-07T13:02:17Z</time>
      </trkpt>
      <trkpt lat="50.36976" lon="4.44132">
        <ele>173.6</ele>
        <time>2024-03-07T13:02:22Z</time>
      </trkpt>
      <trkpt lat="50.36967" lon="4.44128">
        <ele>173.8</ele>
        <time>2024-03-07T13:02:24Z</time>
      </trkpt>
      <trkpt lat="50.36956" lon="4.4412">
        <ele>174.2</ele>
        <time>2024-03-07T13:02:27Z</time>
      </trkpt>
      <trkpt lat="50.36931" lon="4.44098">
        <ele>175.6</ele>
        <time>2024-03-07T13:02:34Z</time>
      </trkpt>
      <trkpt lat="50.36915" lon="4.44078">
        <ele>176.2</ele>
        <time>2024-03-07T13:02:39Z</time>
      </trkpt>
      <trkpt lat="50.36896" lon="4.44054">
        <ele>177</ele>
        <time>2024-03-07T13:02:45Z</time>
      </trkpt>
      <trkpt lat="50.3688" lon="4.4403">
        <ele>177.6</ele>
        <time>2024-03-07T13:02:50Z</time>
      </trkpt>
      <trkpt lat="50.36862" lon="4.44003">
        <ele>178.4</ele>
        <time>2024-03-07T13:02:56Z</time>
      </trkpt>
      <trkpt lat="50.36848" lon="4.43984">
        <ele>179.2</ele>
        <time>2024-03-07T13:03:01Z</time>
      </trkpt>
      <trkpt lat="50.36837" lon="4.43967">
        <ele>179.8</ele>
        <time>2024-03-07T13:03:05Z</time>
      </trkpt>
      <trkpt lat="50.3682" lon="4.43942">
        <ele>180.4</ele>
        <time>2024-03-07T13:03:11Z</time>
      </trkpt>
      <trkpt lat="50.368" lon="4.43913">
        <ele>181.4</ele>
        <time>2024-03-07T13:03:18Z</time>
      </trkpt>
      <trkpt lat="50.36783" lon="4.4389">
        <ele>182.2</ele>
        <time>2024-03-07T13:03:24Z</time>
      </trkpt>
      <trkpt lat="50.36767" lon="4.43866">
        <ele>182.6</ele>
        <time>2024-03-07T13:03:30Z</time>
      </trkpt>
      <trkpt lat="50.36746" lon="4.43834">
        <ele>183.6</ele>
        <time>2024-03-07T13:03:38Z</time>
      </trkpt>
      <trkpt lat="50.36729" lon="4.43811">
        <ele>184.2</ele>
        <time>2024-03-07T13:03:44Z</time>
      </trkpt>
      <trkpt lat="50.36718" lon="4.43795">
        <ele>184.8</ele>
        <time>2024-03-07T13:03:48Z</time>
      </trkpt>
      <trkpt lat="50.36704" lon="4.43773">
        <ele>185.6</ele>
        <time>2024-03-07T13:03:53Z</time>
      </trkpt>
      <trkpt lat="50.36688" lon="4.43749">
        <ele>186.4</ele>
        <time>2024-03-07T13:03:59Z</time>
      </trkpt>
      <trkpt lat="50.36666" lon="4.43719">
        <ele>187.2</ele>
        <time>2024-03-07T13:04:06Z</time>
      </trkpt>
      <trkpt lat="50.36648" lon="4.43693">
        <ele>188.2</ele>
        <time>2024-03-07T13:04:12Z</time>
      </trkpt>
      <trkpt lat="50.36624" lon="4.43658">
        <ele>189.4</ele>
        <time>2024-03-07T13:04:20Z</time>
      </trkpt>
      <trkpt lat="50.36595" lon="4.43617">
        <ele>190.8</ele>
        <time>2024-03-07T13:04:29Z</time>
      </trkpt>
      <trkpt lat="50.36578" lon="4.43593">
        <ele>191.8</ele>
        <time>2024-03-07T13:04:35Z</time>
      </trkpt>
      <trkpt lat="50.36564" lon="4.43573">
        <ele>192.6</ele>
        <time>2024-03-07T13:04:40Z</time>
      </trkpt>
      <trkpt lat="50.36545" lon="4.43547">
        <ele>193.8</ele>
        <time>2024-03-07T13:04:46Z</time>
      </trkpt>
      <trkpt lat="50.3653" lon="4.43526">
        <ele>194.6</ele>
        <time>2024-03-07T13:04:51Z</time>
      </trkpt>
      <trkpt lat="50.36501" lon="4.43481">
        <ele>196.2</ele>
        <time>2024-03-07T13:05:01Z</time>
      </trkpt>
      <trkpt lat="50.3648" lon="4.4345">
        <ele>197.4</ele>
        <time>2024-03-07T13:05:08Z</time>
      </trkpt>
      <trkpt lat="50.36455" lon="4.43415">
        <ele>199</ele>
        <time>2024-03-07T13:05:17Z</time>
      </trkpt>
      <trkpt lat="50.36441" lon="4.43398">
        <ele>199.8</ele>
        <time>2024-03-07T13:05:23Z</time>
      </trkpt>
      <trkpt lat="50.36424" lon="4.43384">
        <ele>200.4</ele>
        <time>2024-03-07T13:05:29Z</time>
      </trkpt>
      <trkpt lat="50.36396" lon="4.43366">
        <ele>201.4</ele>
        <time>2024-03-07T13:05:38Z</time>
      </trkpt>
      <trkpt lat="50.36372" lon="4.4335">
        <ele>202</ele>
        <time>2024-03-07T13:05:45Z</time>
      </trkpt>
      <trkpt lat="50.36351" lon="4.43336">
        <ele>202.8</ele>
        <time>2024-03-07T13:05:52Z</time>
      </trkpt>
      <trkpt lat="50.36335" lon="4.43326">
        <ele>203.2</ele>
        <time>2024-03-07T13:05:58Z</time>
      </trkpt>
      <trkpt lat="50.3632" lon="4.43318">
        <ele>203.8</ele>
        <time>2024-03-07T13:06:04Z</time>
      </trkpt>
      <trkpt lat="50.36307" lon="4.43312">
        <ele>204</ele>
        <time>2024-03-07T13:06:08Z</time>
      </trkpt>
      <trkpt lat="50.36301" lon="4.43307">
        <ele>204.2</ele>
        <time>2024-03-07T13:06:10Z</time>
      </trkpt>
      <trkpt lat="50.36296" lon="4.43299">
        <ele>204.4</ele>
        <time>2024-03-07T13:06:12Z</time>
      </trkpt>
      <trkpt lat="50.3629" lon="4.43286">
        <ele>204.6</ele>
        <time>2024-03-07T13:06:16Z</time>
      </trkpt>
      <trkpt lat="50.36287" lon="4.43285">
        <ele>204.6</ele>
        <time>2024-03-07T13:06:17Z</time>
      </trkpt>
      <trkpt lat="50.36284" lon="4.43287">
        <ele>204.8</ele>
        <time>2024-03-07T13:06:18Z</time>
      </trkpt>
      <trkpt lat="50.36283" lon="4.43289">
        <ele>204.8</ele>
        <time>2024-03-07T13:06:20Z</time>
      </trkpt>
      <trkpt lat="50.36283" lon="4.43289">
        <ele>205.6</ele>
        <time>2024-03-07T13:06:33Z</time>
      </trkpt>
      <trkpt lat="50.36283" lon="4.43289">
        <ele>206.2</ele>
        <time>2024-03-07T13:06:43Z</time>
      </trkpt>
      <trkpt lat="50.36282" lon="4.4329">
        <ele>206.4</ele>
        <time>2024-03-07T13:06:44Z</time>
      </trkpt>
      <trkpt lat="50.36272" lon="4.43302">
        <ele>206.8</ele>
        <time>2024-03-07T13:06:48Z</time>
      </trkpt>
      <trkpt lat="50.36253" lon="4.43323">
        <ele>207.2</ele>
        <time>2024-03-07T13:06:55Z</time>
      </trkpt>
      <trkpt lat="50.36237" lon="4.43343">
        <ele>207.2</ele>
        <time>2024-03-07T13:07:01Z</time>
      </trkpt>
      <trkpt lat="50.36217" lon="4.43363">
        <ele>207.4</ele>
        <time>2024-03-07T13:07:07Z</time>
      </trkpt>
      <trkpt lat="50.36203" lon="4.43382">
        <ele>207.6</ele>
        <time>2024-03-07T13:07:12Z</time>
      </trkpt>
      <trkpt lat="50.362" lon="4.43386">
        <ele>207.6</ele>
        <time>2024-03-07T13:07:13Z</time>
      </trkpt>
      <trkpt lat="50.36182" lon="4.43419">
        <ele>207.8</ele>
        <time>2024-03-07T13:07:20Z</time>
      </trkpt>
      <trkpt lat="50.36168" lon="4.43448">
        <ele>207.6</ele>
        <time>2024-03-07T13:07:26Z</time>
      </trkpt>
      <trkpt lat="50.36165" lon="4.43453">
        <ele>207.6</ele>
        <time>2024-03-07T13:07:27Z</time>
      </trkpt>
      <trkpt lat="50.36157" lon="4.43474">
        <ele>207.8</ele>
        <time>2024-03-07T13:07:31Z</time>
      </trkpt>
      <trkpt lat="50.36147" lon="4.43497">
        <ele>207.6</ele>
        <time>2024-03-07T13:07:36Z</time>
      </trkpt>
      <trkpt lat="50.36131" lon="4.43532">
        <ele>207.4</ele>
        <time>2024-03-07T13:07:43Z</time>
      </trkpt>
      <trkpt lat="50.36116" lon="4.43566">
        <ele>207.4</ele>
        <time>2024-03-07T13:07:49Z</time>
      </trkpt>
      <trkpt lat="50.36101" lon="4.43599">
        <ele>207.4</ele>
        <time>2024-03-07T13:07:54Z</time>
      </trkpt>
      <trkpt lat="50.36098" lon="4.43605">
        <ele>207.4</ele>
        <time>2024-03-07T13:07:55Z</time>
      </trkpt>
      <trkpt lat="50.36081" lon="4.43641">
        <ele>207.2</ele>
        <time>2024-03-07T13:08:00Z</time>
      </trkpt>
      <trkpt lat="50.36074" lon="4.43652">
        <ele>207.2</ele>
        <time>2024-03-07T13:08:02Z</time>
      </trkpt>
      <trkpt lat="50.36062" lon="4.43666">
        <ele>207.8</ele>
        <time>2024-03-07T13:08:05Z</time>
      </trkpt>
      <trkpt lat="50.36039" lon="4.43691">
        <ele>207.6</ele>
        <time>2024-03-07T13:08:11Z</time>
      </trkpt>
      <trkpt lat="50.36015" lon="4.43716">
        <ele>207.4</ele>
        <time>2024-03-07T13:08:17Z</time>
      </trkpt>
      <trkpt lat="50.35987" lon="4.43748">
        <ele>206.8</ele>
        <time>2024-03-07T13:08:25Z</time>
      </trkpt>
      <trkpt lat="50.35978" lon="4.43758">
        <ele>206.8</ele>
        <time>2024-03-07T13:08:26Z</time>
      </trkpt>
      <trkpt lat="50.35964" lon="4.43775">
        <ele>206.2</ele>
        <time>2024-03-07T13:08:30Z</time>
      </trkpt>
      <trkpt lat="50.35945" lon="4.43795">
        <ele>205.6</ele>
        <time>2024-03-07T13:08:35Z</time>
      </trkpt>
      <trkpt lat="50.35932" lon="4.43811">
        <ele>204.8</ele>
        <time>2024-03-07T13:08:39Z</time>
      </trkpt>
      <trkpt lat="50.35914" lon="4.4383">
        <ele>204.4</ele>
        <time>2024-03-07T13:08:43Z</time>
      </trkpt>
      <trkpt lat="50.359" lon="4.43846">
        <ele>204</ele>
        <time>2024-03-07T13:08:46Z</time>
      </trkpt>
      <trkpt lat="50.35884" lon="4.43863">
        <ele>203.8</ele>
        <time>2024-03-07T13:08:49Z</time>
      </trkpt>
      <trkpt lat="50.35857" lon="4.43895">
        <ele>202.8</ele>
        <time>2024-03-07T13:08:55Z</time>
      </trkpt>
      <trkpt lat="50.35852" lon="4.439">
        <ele>202.6</ele>
        <time>2024-03-07T13:08:56Z</time>
      </trkpt>
      <trkpt lat="50.35842" lon="4.43909">
        <ele>202.4</ele>
        <time>2024-03-07T13:08:58Z</time>
      </trkpt>
      <trkpt lat="50.35837" lon="4.43912">
        <ele>202.4</ele>
        <time>2024-03-07T13:08:59Z</time>
      </trkpt>
      <trkpt lat="50.35826" lon="4.43919">
        <ele>202.4</ele>
        <time>2024-03-07T13:09:01Z</time>
      </trkpt>
      <trkpt lat="50.3581" lon="4.43927">
        <ele>202</ele>
        <time>2024-03-07T13:09:04Z</time>
      </trkpt>
      <trkpt lat="50.35799" lon="4.43932">
        <ele>201.8</ele>
        <time>2024-03-07T13:09:06Z</time>
      </trkpt>
      <trkpt lat="50.35783" lon="4.43936">
        <ele>201.8</ele>
        <time>2024-03-07T13:09:09Z</time>
      </trkpt>
      <trkpt lat="50.35734" lon="4.43955">
        <ele>201.8</ele>
        <time>2024-03-07T13:09:18Z</time>
      </trkpt>
      <trkpt lat="50.35702" lon="4.43975">
        <ele>203</ele>
        <time>2024-03-07T13:09:24Z</time>
      </trkpt>
      <trkpt lat="50.35698" lon="4.4398">
        <ele>203</ele>
        <time>2024-03-07T13:09:25Z</time>
      </trkpt>
      <trkpt lat="50.35694" lon="4.43985">
        <ele>203.2</ele>
        <time>2024-03-07T13:09:26Z</time>
      </trkpt>
      <trkpt lat="50.35676" lon="4.44013">
        <ele>203.6</ele>
        <time>2024-03-07T13:09:31Z</time>
      </trkpt>
      <trkpt lat="50.35672" lon="4.44018">
        <ele>203.6</ele>
        <time>2024-03-07T13:09:32Z</time>
      </trkpt>
      <trkpt lat="50.35653" lon="4.44047">
        <ele>204</ele>
        <time>2024-03-07T13:09:37Z</time>
      </trkpt>
      <trkpt lat="50.35635" lon="4.44075">
        <ele>204.6</ele>
        <time>2024-03-07T13:09:42Z</time>
      </trkpt>
      <trkpt lat="50.35624" lon="4.44091">
        <ele>204.8</ele>
        <time>2024-03-07T13:09:45Z</time>
      </trkpt>
      <trkpt lat="50.35609" lon="4.44112">
        <ele>205.2</ele>
        <time>2024-03-07T13:09:49Z</time>
      </trkpt>
      <trkpt lat="50.35601" lon="4.44121">
        <ele>205.2</ele>
        <time>2024-03-07T13:09:51Z</time>
      </trkpt>
      <trkpt lat="50.3558" lon="4.44146">
        <ele>205.6</ele>
        <time>2024-03-07T13:09:56Z</time>
      </trkpt>
      <trkpt lat="50.35577" lon="4.44151">
        <ele>205.6</ele>
        <time>2024-03-07T13:09:57Z</time>
      </trkpt>
      <trkpt lat="50.35573" lon="4.44156">
        <ele>205.8</ele>
        <time>2024-03-07T13:09:58Z</time>
      </trkpt>
      <trkpt lat="50.3556" lon="4.44168">
        <ele>206</ele>
        <time>2024-03-07T13:10:01Z</time>
      </trkpt>
      <trkpt lat="50.35536" lon="4.44194">
        <ele>206.2</ele>
        <time>2024-03-07T13:10:07Z</time>
      </trkpt>
      <trkpt lat="50.35532" lon="4.44199">
        <ele>206.4</ele>
        <time>2024-03-07T13:10:08Z</time>
      </trkpt>
      <trkpt lat="50.35521" lon="4.44214">
        <ele>206.6</ele>
        <time>2024-03-07T13:10:11Z</time>
      </trkpt>
      <trkpt lat="50.35513" lon="4.44222">
        <ele>206.6</ele>
        <time>2024-03-07T13:10:13Z</time>
      </trkpt>
      <trkpt lat="50.35494" lon="4.44243">
        <ele>206.8</ele>
        <time>2024-03-07T13:10:18Z</time>
      </trkpt>
      <trkpt lat="50.35489" lon="4.44247">
        <ele>206.8</ele>
        <time>2024-03-07T13:10:19Z</time>
      </trkpt>
      <trkpt lat="50.35473" lon="4.44265">
        <ele>206.8</ele>
        <time>2024-03-07T13:10:23Z</time>
      </trkpt>
      <trkpt lat="50.35464" lon="4.44274">
        <ele>206.8</ele>
        <time>2024-03-07T13:10:25Z</time>
      </trkpt>
      <trkpt lat="50.35449" lon="4.44289">
        <ele>207</ele>
        <time>2024-03-07T13:10:28Z</time>
      </trkpt>
      <trkpt lat="50.35412" lon="4.44333">
        <ele>207</ele>
        <time>2024-03-07T13:10:37Z</time>
      </trkpt>
      <trkpt lat="50.35397" lon="4.44355">
        <ele>207</ele>
        <time>2024-03-07T13:10:42Z</time>
      </trkpt>
      <trkpt lat="50.35381" lon="4.44368">
        <ele>207</ele>
        <time>2024-03-07T13:10:47Z</time>
      </trkpt>
      <trkpt lat="50.35377" lon="4.44368">
        <ele>207</ele>
        <time>2024-03-07T13:10:48Z</time>
      </trkpt>
      <trkpt lat="50.35369" lon="4.44361">
        <ele>207</ele>
        <time>2024-03-07T13:10:50Z</time>
      </trkpt>
      <trkpt lat="50.35365" lon="4.44344">
        <ele>207.4</ele>
        <time>2024-03-07T13:10:53Z</time>
      </trkpt>
      <trkpt lat="50.35359" lon="4.44307">
        <ele>207.4</ele>
        <time>2024-03-07T13:10:58Z</time>
      </trkpt>
      <trkpt lat="50.35357" lon="4.44301">
        <ele>207.4</ele>
        <time>2024-03-07T13:10:59Z</time>
      </trkpt>
      <trkpt lat="50.35354" lon="4.44276">
        <ele>207.6</ele>
        <time>2024-03-07T13:11:03Z</time>
      </trkpt>
      <trkpt lat="50.35352" lon="4.44271">
        <ele>207.6</ele>
        <time>2024-03-07T13:11:04Z</time>
      </trkpt>
      <trkpt lat="50.35342" lon="4.44245">
        <ele>207.8</ele>
        <time>2024-03-07T13:11:09Z</time>
      </trkpt>
      <trkpt lat="50.3534" lon="4.44231">
        <ele>208</ele>
        <time>2024-03-07T13:11:11Z</time>
      </trkpt>
      <trkpt lat="50.35337" lon="4.44217">
        <ele>208</ele>
        <time>2024-03-07T13:11:13Z</time>
      </trkpt>
      <trkpt lat="50.35334" lon="4.44201">
        <ele>208.2</ele>
        <time>2024-03-07T13:11:15Z</time>
      </trkpt>
      <trkpt lat="50.3533" lon="4.44188">
        <ele>208.2</ele>
        <time>2024-03-07T13:11:17Z</time>
      </trkpt>
      <trkpt lat="50.35323" lon="4.44177">
        <ele>208.4</ele>
        <time>2024-03-07T13:11:19Z</time>
      </trkpt>
      <trkpt lat="50.35317" lon="4.44165">
        <ele>208.4</ele>
        <time>2024-03-07T13:11:21Z</time>
      </trkpt>
      <trkpt lat="50.35314" lon="4.44148">
        <ele>208.6</ele>
        <time>2024-03-07T13:11:24Z</time>
      </trkpt>
      <trkpt lat="50.35313" lon="4.44141">
        <ele>208.8</ele>
        <time>2024-03-07T13:11:25Z</time>
      </trkpt>
      <trkpt lat="50.35307" lon="4.44119">
        <ele>209</ele>
        <time>2024-03-07T13:11:28Z</time>
      </trkpt>
      <trkpt lat="50.35305" lon="4.44111">
        <ele>209.2</ele>
        <time>2024-03-07T13:11:29Z</time>
      </trkpt>
      <trkpt lat="50.35297" lon="4.4408">
        <ele>209.6</ele>
        <time>2024-03-07T13:11:33Z</time>
      </trkpt>
      <trkpt lat="50.3529" lon="4.44057">
        <ele>209.8</ele>
        <time>2024-03-07T13:11:36Z</time>
      </trkpt>
      <trkpt lat="50.35284" lon="4.44042">
        <ele>210.2</ele>
        <time>2024-03-07T13:11:38Z</time>
      </trkpt>
      <trkpt lat="50.3528" lon="4.4402">
        <ele>210.4</ele>
        <time>2024-03-07T13:11:41Z</time>
      </trkpt>
      <trkpt lat="50.35277" lon="4.44004">
        <ele>210.6</ele>
        <time>2024-03-07T13:11:43Z</time>
      </trkpt>
      <trkpt lat="50.35274" lon="4.43997">
        <ele>210.8</ele>
        <time>2024-03-07T13:11:44Z</time>
      </trkpt>
      <trkpt lat="50.35268" lon="4.43984">
        <ele>211</ele>
        <time>2024-03-07T13:11:46Z</time>
      </trkpt>
      <trkpt lat="50.35265" lon="4.43977">
        <ele>211.2</ele>
        <time>2024-03-07T13:11:47Z</time>
      </trkpt>
      <trkpt lat="50.35264" lon="4.43964">
        <ele>211.2</ele>
        <time>2024-03-07T13:11:49Z</time>
      </trkpt>
      <trkpt lat="50.3527" lon="4.43938">
        <ele>211.6</ele>
        <time>2024-03-07T13:11:53Z</time>
      </trkpt>
      <trkpt lat="50.35271" lon="4.4393">
        <ele>211.6</ele>
        <time>2024-03-07T13:11:54Z</time>
      </trkpt>
      <trkpt lat="50.35272" lon="4.43921">
        <ele>211.6</ele>
        <time>2024-03-07T13:11:55Z</time>
      </trkpt>
      <trkpt lat="50.35272" lon="4.43905">
        <ele>211.8</ele>
        <time>2024-03-07T13:11:57Z</time>
      </trkpt>
      <trkpt lat="50.3527" lon="4.43891">
        <ele>211.8</ele>
        <time>2024-03-07T13:11:59Z</time>
      </trkpt>
      <trkpt lat="50.35267" lon="4.43876">
        <ele>212</ele>
        <time>2024-03-07T13:12:01Z</time>
      </trkpt>
      <trkpt lat="50.35265" lon="4.43868">
        <ele>212.2</ele>
        <time>2024-03-07T13:12:02Z</time>
      </trkpt>
      <trkpt lat="50.35264" lon="4.43851">
        <ele>212.4</ele>
        <time>2024-03-07T13:12:04Z</time>
      </trkpt>
      <trkpt lat="50.35265" lon="4.43843">
        <ele>212.4</ele>
        <time>2024-03-07T13:12:05Z</time>
      </trkpt>
      <trkpt lat="50.35267" lon="4.43836">
        <ele>212.4</ele>
        <time>2024-03-07T13:12:06Z</time>
      </trkpt>
      <trkpt lat="50.35272" lon="4.43822">
        <ele>212.6</ele>
        <time>2024-03-07T13:12:08Z</time>
      </trkpt>
      <trkpt lat="50.35273" lon="4.43814">
        <ele>212.8</ele>
        <time>2024-03-07T13:12:09Z</time>
      </trkpt>
      <trkpt lat="50.35275" lon="4.43806">
        <ele>212.8</ele>
        <time>2024-03-07T13:12:10Z</time>
      </trkpt>
      <trkpt lat="50.35277" lon="4.43788">
        <ele>213</ele>
        <time>2024-03-07T13:12:12Z</time>
      </trkpt>
      <trkpt lat="50.35277" lon="4.43779">
        <ele>213.2</ele>
        <time>2024-03-07T13:12:13Z</time>
      </trkpt>
      <trkpt lat="50.35276" lon="4.43771">
        <ele>213.2</ele>
        <time>2024-03-07T13:12:14Z</time>
      </trkpt>
      <trkpt lat="50.35268" lon="4.43758">
        <ele>213.6</ele>
        <time>2024-03-07T13:12:16Z</time>
      </trkpt>
      <trkpt lat="50.35254" lon="4.43746">
        <ele>214.4</ele>
        <time>2024-03-07T13:12:20Z</time>
      </trkpt>
      <trkpt lat="50.35251" lon="4.43747">
        <ele>214.4</ele>
        <time>2024-03-07T13:12:21Z</time>
      </trkpt>
      <trkpt lat="50.35243" lon="4.43751">
        <ele>214.8</ele>
        <time>2024-03-07T13:12:24Z</time>
      </trkpt>
      <trkpt lat="50.35236" lon="4.43755">
        <ele>215</ele>
        <time>2024-03-07T13:12:26Z</time>
      </trkpt>
      <trkpt lat="50.35227" lon="4.43756">
        <ele>215</ele>
        <time>2024-03-07T13:12:28Z</time>
      </trkpt>
      <trkpt lat="50.35212" lon="4.43753">
        <ele>215.4</ele>
        <time>2024-03-07T13:12:31Z</time>
      </trkpt>
      <trkpt lat="50.35204" lon="4.43747">
        <ele>215.6</ele>
        <time>2024-03-07T13:12:33Z</time>
      </trkpt>
      <trkpt lat="50.352" lon="4.43744">
        <ele>215.6</ele>
        <time>2024-03-07T13:12:34Z</time>
      </trkpt>
      <trkpt lat="50.35191" lon="4.43729">
        <ele>216</ele>
        <time>2024-03-07T13:12:37Z</time>
      </trkpt>
      <trkpt lat="50.35187" lon="4.43714">
        <ele>216</ele>
        <time>2024-03-07T13:12:39Z</time>
      </trkpt>
      <trkpt lat="50.35181" lon="4.43699">
        <ele>216.4</ele>
        <time>2024-03-07T13:12:41Z</time>
      </trkpt>
      <trkpt lat="50.35152" lon="4.43649">
        <ele>216.8</ele>
        <time>2024-03-07T13:12:48Z</time>
      </trkpt>
      <trkpt lat="50.35127" lon="4.43606">
        <ele>217.2</ele>
        <time>2024-03-07T13:12:54Z</time>
      </trkpt>
      <trkpt lat="50.35124" lon="4.43598">
        <ele>217.2</ele>
        <time>2024-03-07T13:12:55Z</time>
      </trkpt>
      <trkpt lat="50.35117" lon="4.43579">
        <ele>217.4</ele>
        <time>2024-03-07T13:12:57Z</time>
      </trkpt>
      <trkpt lat="50.35114" lon="4.43568">
        <ele>217.4</ele>
        <time>2024-03-07T13:12:58Z</time>
      </trkpt>
      <trkpt lat="50.35103" lon="4.43516">
        <ele>217.4</ele>
        <time>2024-03-07T13:13:02Z</time>
      </trkpt>
      <trkpt lat="50.35101" lon="4.43504">
        <ele>217.4</ele>
        <time>2024-03-07T13:13:03Z</time>
      </trkpt>
      <trkpt lat="50.35097" lon="4.43483">
        <ele>217.4</ele>
        <time>2024-03-07T13:13:05Z</time>
      </trkpt>
      <trkpt lat="50.35091" lon="4.43429">
        <ele>217.2</ele>
        <time>2024-03-07T13:13:11Z</time>
      </trkpt>
      <trkpt lat="50.35089" lon="4.43422">
        <ele>216.8</ele>
        <time>2024-03-07T13:13:12Z</time>
      </trkpt>
      <trkpt lat="50.35084" lon="4.43406">
        <ele>216.8</ele>
        <time>2024-03-07T13:13:15Z</time>
      </trkpt>
      <trkpt lat="50.35079" lon="4.43399">
        <ele>216.8</ele>
        <time>2024-03-07T13:13:17Z</time>
      </trkpt>
      <trkpt lat="50.35073" lon="4.43395">
        <ele>216.6</ele>
        <time>2024-03-07T13:13:19Z</time>
      </trkpt>
      <trkpt lat="50.3507" lon="4.43392">
        <ele>216.6</ele>
        <time>2024-03-07T13:13:20Z</time>
      </trkpt>
      <trkpt lat="50.3507" lon="4.43385">
        <ele>216.8</ele>
        <time>2024-03-07T13:13:22Z</time>
      </trkpt>
      <trkpt lat="50.3507" lon="4.43377">
        <ele>216.4</ele>
        <time>2024-03-07T13:13:26Z</time>
      </trkpt>
      <trkpt lat="50.3507" lon="4.43377">
        <ele>216</ele>
        <time>2024-03-07T13:13:39Z</time>
      </trkpt>
      <trkpt lat="50.3507" lon="4.43375">
        <ele>216</ele>
        <time>2024-03-07T13:13:40Z</time>
      </trkpt>
      <trkpt lat="50.35063" lon="4.43363">
        <ele>215.6</ele>
        <time>2024-03-07T13:13:44Z</time>
      </trkpt>
      <trkpt lat="50.35052" lon="4.43354">
        <ele>215.2</ele>
        <time>2024-03-07T13:13:49Z</time>
      </trkpt>
      <trkpt lat="50.3504" lon="4.43344">
        <ele>214.8</ele>
        <time>2024-03-07T13:13:54Z</time>
      </trkpt>
      <trkpt lat="50.35025" lon="4.43326">
        <ele>214.4</ele>
        <time>2024-03-07T13:14:00Z</time>
      </trkpt>
      <trkpt lat="50.35018" lon="4.4331">
        <ele>214</ele>
        <time>2024-03-07T13:14:04Z</time>
      </trkpt>
      <trkpt lat="50.35012" lon="4.43291">
        <ele>213.2</ele>
        <time>2024-03-07T13:14:08Z</time>
      </trkpt>
      <trkpt lat="50.35002" lon="4.43271">
        <ele>212.8</ele>
        <time>2024-03-07T13:14:13Z</time>
      </trkpt>
      <trkpt lat="50.34985" lon="4.43255">
        <ele>212.8</ele>
        <time>2024-03-07T13:14:18Z</time>
      </trkpt>
      <trkpt lat="50.34966" lon="4.43245">
        <ele>212.4</ele>
        <time>2024-03-07T13:14:23Z</time>
      </trkpt>
      <trkpt lat="50.34949" lon="4.43227">
        <ele>212.4</ele>
        <time>2024-03-07T13:14:28Z</time>
      </trkpt>
      <trkpt lat="50.34938" lon="4.43198">
        <ele>212.4</ele>
        <time>2024-03-07T13:14:33Z</time>
      </trkpt>
      <trkpt lat="50.3493" lon="4.43174">
        <ele>212.4</ele>
        <time>2024-03-07T13:14:37Z</time>
      </trkpt>
      <trkpt lat="50.34927" lon="4.4317">
        <ele>212.4</ele>
        <time>2024-03-07T13:14:38Z</time>
      </trkpt>
      <trkpt lat="50.34921" lon="4.43165">
        <ele>212.2</ele>
        <time>2024-03-07T13:14:40Z</time>
      </trkpt>
      <trkpt lat="50.34904" lon="4.43138">
        <ele>212</ele>
        <time>2024-03-07T13:14:45Z</time>
      </trkpt>
      <trkpt lat="50.34898" lon="4.43127">
        <ele>211.8</ele>
        <time>2024-03-07T13:14:47Z</time>
      </trkpt>
      <trkpt lat="50.34892" lon="4.43114">
        <ele>211.6</ele>
        <time>2024-03-07T13:14:49Z</time>
      </trkpt>
      <trkpt lat="50.34887" lon="4.43099">
        <ele>211.4</ele>
        <time>2024-03-07T13:14:51Z</time>
      </trkpt>
      <trkpt lat="50.34882" lon="4.43087">
        <ele>211.2</ele>
        <time>2024-03-07T13:14:53Z</time>
      </trkpt>
      <trkpt lat="50.3487" lon="4.43074">
        <ele>211.2</ele>
        <time>2024-03-07T13:14:56Z</time>
      </trkpt>
      <trkpt lat="50.34859" lon="4.43061">
        <ele>211.2</ele>
        <time>2024-03-07T13:14:59Z</time>
      </trkpt>
      <trkpt lat="50.34852" lon="4.43049">
        <ele>211.2</ele>
        <time>2024-03-07T13:15:01Z</time>
      </trkpt>
      <trkpt lat="50.34845" lon="4.4304">
        <ele>211.2</ele>
        <time>2024-03-07T13:15:03Z</time>
      </trkpt>
      <trkpt lat="50.34842" lon="4.43037">
        <ele>211.2</ele>
        <time>2024-03-07T13:15:04Z</time>
      </trkpt>
      <trkpt lat="50.34833" lon="4.43025">
        <ele>211.4</ele>
        <time>2024-03-07T13:15:07Z</time>
      </trkpt>
      <trkpt lat="50.34821" lon="4.43007">
        <ele>211.2</ele>
        <time>2024-03-07T13:15:10Z</time>
      </trkpt>
      <trkpt lat="50.3481" lon="4.42998">
        <ele>211.8</ele>
        <time>2024-03-07T13:15:12Z</time>
      </trkpt>
      <trkpt lat="50.34786" lon="4.42972">
        <ele>211.8</ele>
        <time>2024-03-07T13:15:17Z</time>
      </trkpt>
      <trkpt lat="50.34778" lon="4.42961">
        <ele>211.8</ele>
        <time>2024-03-07T13:15:19Z</time>
      </trkpt>
      <trkpt lat="50.34775" lon="4.42955">
        <ele>211.8</ele>
        <time>2024-03-07T13:15:20Z</time>
      </trkpt>
      <trkpt lat="50.34771" lon="4.4295">
        <ele>211.8</ele>
        <time>2024-03-07T13:15:21Z</time>
      </trkpt>
      <trkpt lat="50.34756" lon="4.42937">
        <ele>211.8</ele>
        <time>2024-03-07T13:15:24Z</time>
      </trkpt>
      <trkpt lat="50.34743" lon="4.42923">
        <ele>211.8</ele>
        <time>2024-03-07T13:15:27Z</time>
      </trkpt>
      <trkpt lat="50.34739" lon="4.42917">
        <ele>211.8</ele>
        <time>2024-03-07T13:15:28Z</time>
      </trkpt>
      <trkpt lat="50.34734" lon="4.42901">
        <ele>211.8</ele>
        <time>2024-03-07T13:15:31Z</time>
      </trkpt>
      <trkpt lat="50.34728" lon="4.42889">
        <ele>211.8</ele>
        <time>2024-03-07T13:15:33Z</time>
      </trkpt>
      <trkpt lat="50.3472" lon="4.42876">
        <ele>211.8</ele>
        <time>2024-03-07T13:15:35Z</time>
      </trkpt>
      <trkpt lat="50.34698" lon="4.42849">
        <ele>211.8</ele>
        <time>2024-03-07T13:15:40Z</time>
      </trkpt>
      <trkpt lat="50.3469" lon="4.42836">
        <ele>212</ele>
        <time>2024-03-07T13:15:42Z</time>
      </trkpt>
      <trkpt lat="50.34684" lon="4.4282">
        <ele>211.8</ele>
        <time>2024-03-07T13:15:44Z</time>
      </trkpt>
      <trkpt lat="50.3468" lon="4.42813">
        <ele>211.6</ele>
        <time>2024-03-07T13:15:45Z</time>
      </trkpt>
      <trkpt lat="50.34672" lon="4.42802">
        <ele>211.6</ele>
        <time>2024-03-07T13:15:47Z</time>
      </trkpt>
      <trkpt lat="50.34657" lon="4.42777">
        <ele>211.2</ele>
        <time>2024-03-07T13:15:52Z</time>
      </trkpt>
      <trkpt lat="50.34648" lon="4.42759">
        <ele>210.8</ele>
        <time>2024-03-07T13:15:55Z</time>
      </trkpt>
      <trkpt lat="50.34642" lon="4.42746">
        <ele>210.6</ele>
        <time>2024-03-07T13:15:57Z</time>
      </trkpt>
      <trkpt lat="50.34636" lon="4.42735">
        <ele>210.4</ele>
        <time>2024-03-07T13:15:59Z</time>
      </trkpt>
      <trkpt lat="50.34631" lon="4.42726">
        <ele>210.4</ele>
        <time>2024-03-07T13:16:01Z</time>
      </trkpt>
      <trkpt lat="50.34618" lon="4.42704">
        <ele>209.4</ele>
        <time>2024-03-07T13:16:06Z</time>
      </trkpt>
      <trkpt lat="50.34599" lon="4.42685">
        <ele>209.2</ele>
        <time>2024-03-07T13:16:11Z</time>
      </trkpt>
      <trkpt lat="50.34594" lon="4.42681">
        <ele>209.2</ele>
        <time>2024-03-07T13:16:12Z</time>
      </trkpt>
      <trkpt lat="50.34585" lon="4.4267">
        <ele>209.4</ele>
        <time>2024-03-07T13:16:15Z</time>
      </trkpt>
      <trkpt lat="50.34563" lon="4.42646">
        <ele>209.2</ele>
        <time>2024-03-07T13:16:21Z</time>
      </trkpt>
      <trkpt lat="50.34555" lon="4.4264">
        <ele>209</ele>
        <time>2024-03-07T13:16:23Z</time>
      </trkpt>
      <trkpt lat="50.34546" lon="4.42634">
        <ele>209</ele>
        <time>2024-03-07T13:16:25Z</time>
      </trkpt>
      <trkpt lat="50.34543" lon="4.42631">
        <ele>209.2</ele>
        <time>2024-03-07T13:16:26Z</time>
      </trkpt>
      <trkpt lat="50.34537" lon="4.42628">
        <ele>209.2</ele>
        <time>2024-03-07T13:16:28Z</time>
      </trkpt>
      <trkpt lat="50.34535" lon="4.42628">
        <ele>209.2</ele>
        <time>2024-03-07T13:16:29Z</time>
      </trkpt>
      <trkpt lat="50.34524" lon="4.42631">
        <ele>209</ele>
        <time>2024-03-07T13:16:33Z</time>
      </trkpt>
      <trkpt lat="50.34515" lon="4.42649">
        <ele>208.8</ele>
        <time>2024-03-07T13:16:37Z</time>
      </trkpt>
      <trkpt lat="50.3451" lon="4.42661">
        <ele>208.8</ele>
        <time>2024-03-07T13:16:39Z</time>
      </trkpt>
      <trkpt lat="50.34502" lon="4.42677">
        <ele>208.6</ele>
        <time>2024-03-07T13:16:42Z</time>
      </trkpt>
      <trkpt lat="50.34493" lon="4.42698">
        <ele>208.6</ele>
        <time>2024-03-07T13:16:46Z</time>
      </trkpt>
      <trkpt lat="50.34481" lon="4.42717">
        <ele>209.4</ele>
        <time>2024-03-07T13:16:50Z</time>
      </trkpt>
      <trkpt lat="50.34476" lon="4.4275">
        <ele>210</ele>
        <time>2024-03-07T13:16:55Z</time>
      </trkpt>
      <trkpt lat="50.34467" lon="4.42776">
        <ele>209.8</ele>
        <time>2024-03-07T13:17:00Z</time>
      </trkpt>
      <trkpt lat="50.34465" lon="4.42781">
        <ele>209.8</ele>
        <time>2024-03-07T13:17:01Z</time>
      </trkpt>
      <trkpt lat="50.34461" lon="4.42798">
        <ele>209.8</ele>
        <time>2024-03-07T13:17:04Z</time>
      </trkpt>
      <trkpt lat="50.3445" lon="4.42822">
        <ele>209.6</ele>
        <time>2024-03-07T13:17:09Z</time>
      </trkpt>
      <trkpt lat="50.34443" lon="4.42829">
        <ele>209.6</ele>
        <time>2024-03-07T13:17:12Z</time>
      </trkpt>
      <trkpt lat="50.34441" lon="4.4283">
        <ele>209.8</ele>
        <time>2024-03-07T13:17:13Z</time>
      </trkpt>
      <trkpt lat="50.3443" lon="4.42826">
        <ele>210.4</ele>
        <time>2024-03-07T13:17:18Z</time>
      </trkpt>
      <trkpt lat="50.34419" lon="4.42823">
        <ele>210.6</ele>
        <time>2024-03-07T13:17:22Z</time>
      </trkpt>
      <trkpt lat="50.34403" lon="4.42823">
        <ele>211</ele>
        <time>2024-03-07T13:17:26Z</time>
      </trkpt>
      <trkpt lat="50.34392" lon="4.42825">
        <ele>211.4</ele>
        <time>2024-03-07T13:17:28Z</time>
      </trkpt>
      <trkpt lat="50.34371" lon="4.42835">
        <ele>212</ele>
        <time>2024-03-07T13:17:33Z</time>
      </trkpt>
      <trkpt lat="50.34358" lon="4.4284">
        <ele>212.2</ele>
        <time>2024-03-07T13:17:37Z</time>
      </trkpt>
      <trkpt lat="50.3435" lon="4.42845">
        <ele>212.4</ele>
        <time>2024-03-07T13:17:39Z</time>
      </trkpt>
      <trkpt lat="50.34345" lon="4.42846">
        <ele>212.4</ele>
        <time>2024-03-07T13:17:40Z</time>
      </trkpt>
      <trkpt lat="50.34336" lon="4.42847">
        <ele>212.6</ele>
        <time>2024-03-07T13:17:42Z</time>
      </trkpt>
      <trkpt lat="50.34328" lon="4.42842">
        <ele>212.8</ele>
        <time>2024-03-07T13:17:44Z</time>
      </trkpt>
      <trkpt lat="50.34316" lon="4.42818">
        <ele>213.2</ele>
        <time>2024-03-07T13:17:48Z</time>
      </trkpt>
      <trkpt lat="50.34312" lon="4.42811">
        <ele>213.2</ele>
        <time>2024-03-07T13:17:49Z</time>
      </trkpt>
      <trkpt lat="50.34304" lon="4.42792">
        <ele>213.6</ele>
        <time>2024-03-07T13:17:52Z</time>
      </trkpt>
      <trkpt lat="50.34293" lon="4.42769">
        <ele>213.8</ele>
        <time>2024-03-07T13:17:56Z</time>
      </trkpt>
      <trkpt lat="50.34281" lon="4.42742">
        <ele>213.8</ele>
        <time>2024-03-07T13:18:01Z</time>
      </trkpt>
      <trkpt lat="50.34271" lon="4.42721">
        <ele>213.8</ele>
        <time>2024-03-07T13:18:05Z</time>
      </trkpt>
      <trkpt lat="50.3426" lon="4.42699">
        <ele>213.6</ele>
        <time>2024-03-07T13:18:09Z</time>
      </trkpt>
      <trkpt lat="50.34251" lon="4.42681">
        <ele>213.6</ele>
        <time>2024-03-07T13:18:12Z</time>
      </trkpt>
      <trkpt lat="50.34247" lon="4.4267">
        <ele>212.8</ele>
        <time>2024-03-07T13:18:14Z</time>
      </trkpt>
      <trkpt lat="50.34238" lon="4.4265">
        <ele>213</ele>
        <time>2024-03-07T13:18:19Z</time>
      </trkpt>
      <trkpt lat="50.34231" lon="4.42637">
        <ele>212.6</ele>
        <time>2024-03-07T13:18:24Z</time>
      </trkpt>
      <trkpt lat="50.34228" lon="4.42631">
        <ele>212.6</ele>
        <time>2024-03-07T13:18:30Z</time>
      </trkpt>
      <trkpt lat="50.34228" lon="4.42629">
        <ele>212.2</ele>
        <time>2024-03-07T13:18:38Z</time>
      </trkpt>
      <trkpt lat="50.34227" lon="4.42626">
        <ele>212</ele>
        <time>2024-03-07T13:18:39Z</time>
      </trkpt>
      <trkpt lat="50.34221" lon="4.42602">
        <ele>211.4</ele>
        <time>2024-03-07T13:18:44Z</time>
      </trkpt>
      <trkpt lat="50.34214" lon="4.42574">
        <ele>210.4</ele>
        <time>2024-03-07T13:18:50Z</time>
      </trkpt>
      <trkpt lat="50.34207" lon="4.42544">
        <ele>209.2</ele>
        <time>2024-03-07T13:18:58Z</time>
      </trkpt>
      <trkpt lat="50.34203" lon="4.42525">
        <ele>208.8</ele>
        <time>2024-03-07T13:19:03Z</time>
      </trkpt>
      <trkpt lat="50.34195" lon="4.425">
        <ele>208.2</ele>
        <time>2024-03-07T13:19:08Z</time>
      </trkpt>
      <trkpt lat="50.34185" lon="4.4246">
        <ele>207.4</ele>
        <time>2024-03-07T13:19:13Z</time>
      </trkpt>
      <trkpt lat="50.34168" lon="4.42391">
        <ele>205.8</ele>
        <time>2024-03-07T13:19:21Z</time>
      </trkpt>
      <trkpt lat="50.34158" lon="4.42348">
        <ele>205</ele>
        <time>2024-03-07T13:19:26Z</time>
      </trkpt>
      <trkpt lat="50.34151" lon="4.42322">
        <ele>204.6</ele>
        <time>2024-03-07T13:19:29Z</time>
      </trkpt>
      <trkpt lat="50.34145" lon="4.42295">
        <ele>204</ele>
        <time>2024-03-07T13:19:32Z</time>
      </trkpt>
      <trkpt lat="50.34143" lon="4.42278">
        <ele>203.8</ele>
        <time>2024-03-07T13:19:34Z</time>
      </trkpt>
      <trkpt lat="50.3414" lon="4.42264">
        <ele>203.2</ele>
        <time>2024-03-07T13:19:36Z</time>
      </trkpt>
      <trkpt lat="50.34128" lon="4.42233">
        <ele>202.4</ele>
        <time>2024-03-07T13:19:41Z</time>
      </trkpt>
      <trkpt lat="50.34125" lon="4.42229">
        <ele>202.2</ele>
        <time>2024-03-07T13:19:42Z</time>
      </trkpt>
      <trkpt lat="50.3412" lon="4.42227">
        <ele>202</ele>
        <time>2024-03-07T13:19:43Z</time>
      </trkpt>
      <trkpt lat="50.34112" lon="4.42231">
        <ele>201.6</ele>
        <time>2024-03-07T13:19:45Z</time>
      </trkpt>
      <trkpt lat="50.34104" lon="4.4224">
        <ele>201.4</ele>
        <time>2024-03-07T13:19:47Z</time>
      </trkpt>
      <trkpt lat="50.34088" lon="4.4225">
        <ele>201</ele>
        <time>2024-03-07T13:19:50Z</time>
      </trkpt>
      <trkpt lat="50.34057" lon="4.42273">
        <ele>200.2</ele>
        <time>2024-03-07T13:19:56Z</time>
      </trkpt>
      <trkpt lat="50.34034" lon="4.42291">
        <ele>199.4</ele>
        <time>2024-03-07T13:20:01Z</time>
      </trkpt>
      <trkpt lat="50.3403" lon="4.42295">
        <ele>199.4</ele>
        <time>2024-03-07T13:20:02Z</time>
      </trkpt>
      <trkpt lat="50.34017" lon="4.42306">
        <ele>198.8</ele>
        <time>2024-03-07T13:20:07Z</time>
      </trkpt>
      <trkpt lat="50.34009" lon="4.42324">
        <ele>198.6</ele>
        <time>2024-03-07T13:20:11Z</time>
      </trkpt>
      <trkpt lat="50.33994" lon="4.42345">
        <ele>199.4</ele>
        <time>2024-03-07T13:20:17Z</time>
      </trkpt>
      <trkpt lat="50.33973" lon="4.42383">
        <ele>199.8</ele>
        <time>2024-03-07T13:20:26Z</time>
      </trkpt>
      <trkpt lat="50.33957" lon="4.42412">
        <ele>199.8</ele>
        <time>2024-03-07T13:20:33Z</time>
      </trkpt>
      <trkpt lat="50.33938" lon="4.42439">
        <ele>200.4</ele>
        <time>2024-03-07T13:20:40Z</time>
      </trkpt>
      <trkpt lat="50.33918" lon="4.42467">
        <ele>201.4</ele>
        <time>2024-03-07T13:20:47Z</time>
      </trkpt>
      <trkpt lat="50.33909" lon="4.4248">
        <ele>201.6</ele>
        <time>2024-03-07T13:20:50Z</time>
      </trkpt>
      <trkpt lat="50.33901" lon="4.42492">
        <ele>202</ele>
        <time>2024-03-07T13:20:53Z</time>
      </trkpt>
      <trkpt lat="50.33885" lon="4.42511">
        <ele>202.6</ele>
        <time>2024-03-07T13:20:59Z</time>
      </trkpt>
      <trkpt lat="50.33882" lon="4.42508">
        <ele>202.8</ele>
        <time>2024-03-07T13:21:00Z</time>
      </trkpt>
      <trkpt lat="50.33869" lon="4.42477">
        <ele>203.4</ele>
        <time>2024-03-07T13:21:06Z</time>
      </trkpt>
      <trkpt lat="50.3385" lon="4.42439">
        <ele>204.6</ele>
        <time>2024-03-07T13:21:13Z</time>
      </trkpt>
      <trkpt lat="50.33827" lon="4.42392">
        <ele>205.2</ele>
        <time>2024-03-07T13:21:21Z</time>
      </trkpt>
      <trkpt lat="50.33812" lon="4.42348">
        <ele>205.6</ele>
        <time>2024-03-07T13:21:28Z</time>
      </trkpt>
      <trkpt lat="50.33803" lon="4.42325">
        <ele>206</ele>
        <time>2024-03-07T13:21:33Z</time>
      </trkpt>
      <trkpt lat="50.33798" lon="4.4231">
        <ele>206</ele>
        <time>2024-03-07T13:21:37Z</time>
      </trkpt>
      <trkpt lat="50.33798" lon="4.42303">
        <ele>206</ele>
        <time>2024-03-07T13:21:39Z</time>
      </trkpt>
      <trkpt lat="50.33796" lon="4.42298">
        <ele>206</ele>
        <time>2024-03-07T13:21:41Z</time>
      </trkpt>
      <trkpt lat="50.3379" lon="4.42282">
        <ele>206</ele>
        <time>2024-03-07T13:21:44Z</time>
      </trkpt>
      <trkpt lat="50.33789" lon="4.42274">
        <ele>206</ele>
        <time>2024-03-07T13:21:45Z</time>
      </trkpt>
      <trkpt lat="50.33788" lon="4.42266">
        <ele>206</ele>
        <time>2024-03-07T13:21:46Z</time>
      </trkpt>
      <trkpt lat="50.33786" lon="4.4225">
        <ele>206</ele>
        <time>2024-03-07T13:21:48Z</time>
      </trkpt>
      <trkpt lat="50.33787" lon="4.42242">
        <ele>206</ele>
        <time>2024-03-07T13:21:49Z</time>
      </trkpt>
      <trkpt lat="50.33788" lon="4.42229">
        <ele>206</ele>
        <time>2024-03-07T13:21:51Z</time>
      </trkpt>
      <trkpt lat="50.33791" lon="4.42216">
        <ele>206.2</ele>
        <time>2024-03-07T13:21:53Z</time>
      </trkpt>
      <trkpt lat="50.33792" lon="4.42209">
        <ele>206</ele>
        <time>2024-03-07T13:21:54Z</time>
      </trkpt>
      <trkpt lat="50.33795" lon="4.42174">
        <ele>205.2</ele>
        <time>2024-03-07T13:21:59Z</time>
      </trkpt>
      <trkpt lat="50.33796" lon="4.42159">
        <ele>205</ele>
        <time>2024-03-07T13:22:01Z</time>
      </trkpt>
      <trkpt lat="50.33797" lon="4.42144">
        <ele>204.8</ele>
        <time>2024-03-07T13:22:03Z</time>
      </trkpt>
      <trkpt lat="50.33797" lon="4.42136">
        <ele>204.6</ele>
        <time>2024-03-07T13:22:04Z</time>
      </trkpt>
      <trkpt lat="50.33796" lon="4.4211">
        <ele>204</ele>
        <time>2024-03-07T13:22:07Z</time>
      </trkpt>
      <trkpt lat="50.33794" lon="4.421">
        <ele>203.8</ele>
        <time>2024-03-07T13:22:08Z</time>
      </trkpt>
      <trkpt lat="50.33793" lon="4.42091">
        <ele>203.8</ele>
        <time>2024-03-07T13:22:09Z</time>
      </trkpt>
      <trkpt lat="50.33792" lon="4.42073">
        <ele>203.4</ele>
        <time>2024-03-07T13:22:11Z</time>
      </trkpt>
      <trkpt lat="50.33792" lon="4.42054">
        <ele>203</ele>
        <time>2024-03-07T13:22:13Z</time>
      </trkpt>
      <trkpt lat="50.33794" lon="4.42034">
        <ele>202.6</ele>
        <time>2024-03-07T13:22:15Z</time>
      </trkpt>
      <trkpt lat="50.33795" lon="4.42026">
        <ele>202.4</ele>
        <time>2024-03-07T13:22:16Z</time>
      </trkpt>
      <trkpt lat="50.33799" lon="4.42007">
        <ele>202</ele>
        <time>2024-03-07T13:22:18Z</time>
      </trkpt>
      <trkpt lat="50.338" lon="4.41998">
        <ele>202</ele>
        <time>2024-03-07T13:22:19Z</time>
      </trkpt>
      <trkpt lat="50.33801" lon="4.41988">
        <ele>201.6</ele>
        <time>2024-03-07T13:22:20Z</time>
      </trkpt>
      <trkpt lat="50.33802" lon="4.4196">
        <ele>201</ele>
        <time>2024-03-07T13:22:23Z</time>
      </trkpt>
      <trkpt lat="50.338" lon="4.41943">
        <ele>200.6</ele>
        <time>2024-03-07T13:22:25Z</time>
      </trkpt>
      <trkpt lat="50.33796" lon="4.41926">
        <ele>200.2</ele>
        <time>2024-03-07T13:22:27Z</time>
      </trkpt>
      <trkpt lat="50.33783" lon="4.41891">
        <ele>199.6</ele>
        <time>2024-03-07T13:22:31Z</time>
      </trkpt>
      <trkpt lat="50.33764" lon="4.41849">
        <ele>198.6</ele>
        <time>2024-03-07T13:22:36Z</time>
      </trkpt>
      <trkpt lat="50.33742" lon="4.41799">
        <ele>197.2</ele>
        <time>2024-03-07T13:22:42Z</time>
      </trkpt>
      <trkpt lat="50.33723" lon="4.41773">
        <ele>196.2</ele>
        <time>2024-03-07T13:22:46Z</time>
      </trkpt>
      <trkpt lat="50.33708" lon="4.41752">
        <ele>195.4</ele>
        <time>2024-03-07T13:22:49Z</time>
      </trkpt>
      <trkpt lat="50.33698" lon="4.41739">
        <ele>195</ele>
        <time>2024-03-07T13:22:51Z</time>
      </trkpt>
      <trkpt lat="50.33683" lon="4.41724">
        <ele>194.2</ele>
        <time>2024-03-07T13:22:54Z</time>
      </trkpt>
      <trkpt lat="50.33672" lon="4.41717">
        <ele>194</ele>
        <time>2024-03-07T13:22:56Z</time>
      </trkpt>
      <trkpt lat="50.33667" lon="4.41714">
        <ele>193.8</ele>
        <time>2024-03-07T13:22:57Z</time>
      </trkpt>
      <trkpt lat="50.3366" lon="4.41709">
        <ele>193.2</ele>
        <time>2024-03-07T13:22:59Z</time>
      </trkpt>
      <trkpt lat="50.33643" lon="4.41697">
        <ele>192.4</ele>
        <time>2024-03-07T13:23:05Z</time>
      </trkpt>
      <trkpt lat="50.33634" lon="4.41689">
        <ele>192.2</ele>
        <time>2024-03-07T13:23:09Z</time>
      </trkpt>
      <trkpt lat="50.33626" lon="4.41688">
        <ele>192.2</ele>
        <time>2024-03-07T13:23:13Z</time>
      </trkpt>
      <trkpt lat="50.33626" lon="4.41689">
        <ele>192</ele>
        <time>2024-03-07T13:23:14Z</time>
      </trkpt>
      <trkpt lat="50.33623" lon="4.41692">
        <ele>191.6</ele>
        <time>2024-03-07T13:23:16Z</time>
      </trkpt>
      <trkpt lat="50.33621" lon="4.41694">
        <ele>191.2</ele>
        <time>2024-03-07T13:23:18Z</time>
      </trkpt>
      <trkpt lat="50.33621" lon="4.41694">
        <ele>191.2</ele>
        <time>2024-03-07T13:23:19Z</time>
      </trkpt>
      <trkpt lat="50.33618" lon="4.41698">
        <ele>191.4</ele>
        <time>2024-03-07T13:23:21Z</time>
      </trkpt>
      <trkpt lat="50.33616" lon="4.41699">
        <ele>191.2</ele>
        <time>2024-03-07T13:23:22Z</time>
      </trkpt>
      <trkpt lat="50.33615" lon="4.417">
        <ele>190</ele>
        <time>2024-03-07T13:23:29Z</time>
      </trkpt>
      <trkpt lat="50.33615" lon="4.417">
        <ele>189</ele>
        <time>2024-03-07T13:23:42Z</time>
      </trkpt>
      <trkpt lat="50.33615" lon="4.417">
        <ele>187.8</ele>
        <time>2024-03-07T13:24:01Z</time>
      </trkpt>
      <trkpt lat="50.33615" lon="4.417">
        <ele>187.8</ele>
        <time>2024-03-07T13:24:02Z</time>
      </trkpt>
      <trkpt lat="50.33611" lon="4.41711">
        <ele>186.8</ele>
        <time>2024-03-07T13:24:06Z</time>
      </trkpt>
      <trkpt lat="50.33596" lon="4.41729">
        <ele>186.2</ele>
        <time>2024-03-07T13:24:12Z</time>
      </trkpt>
      <trkpt lat="50.33587" lon="4.41741">
        <ele>185.4</ele>
        <time>2024-03-07T13:24:16Z</time>
      </trkpt>
      <trkpt lat="50.33576" lon="4.41753">
        <ele>184.8</ele>
        <time>2024-03-07T13:24:21Z</time>
      </trkpt>
      <trkpt lat="50.33567" lon="4.41766">
        <ele>184.2</ele>
        <time>2024-03-07T13:24:25Z</time>
      </trkpt>
      <trkpt lat="50.33552" lon="4.41794">
        <ele>183.6</ele>
        <time>2024-03-07T13:24:31Z</time>
      </trkpt>
      <trkpt lat="50.33542" lon="4.41815">
        <ele>183.2</ele>
        <time>2024-03-07T13:24:36Z</time>
      </trkpt>
      <trkpt lat="50.33536" lon="4.41824">
        <ele>183.4</ele>
        <time>2024-03-07T13:24:39Z</time>
      </trkpt>
      <trkpt lat="50.33535" lon="4.41831">
        <ele>183.6</ele>
        <time>2024-03-07T13:24:41Z</time>
      </trkpt>
      <trkpt lat="50.33535" lon="4.41843">
        <ele>183.8</ele>
        <time>2024-03-07T13:24:44Z</time>
      </trkpt>
      <trkpt lat="50.33534" lon="4.41847">
        <ele>183.8</ele>
        <time>2024-03-07T13:24:45Z</time>
      </trkpt>
      <trkpt lat="50.33523" lon="4.41861">
        <ele>184.6</ele>
        <time>2024-03-07T13:24:50Z</time>
      </trkpt>
      <trkpt lat="50.33519" lon="4.41874">
        <ele>184.4</ele>
        <time>2024-03-07T13:24:54Z</time>
      </trkpt>
      <trkpt lat="50.33517" lon="4.4188">
        <ele>184.6</ele>
        <time>2024-03-07T13:24:56Z</time>
      </trkpt>
      <trkpt lat="50.33512" lon="4.41888">
        <ele>185</ele>
        <time>2024-03-07T13:24:59Z</time>
      </trkpt>
      <trkpt lat="50.33505" lon="4.41906">
        <ele>185.6</ele>
        <time>2024-03-07T13:25:04Z</time>
      </trkpt>
      <trkpt lat="50.33503" lon="4.41909">
        <ele>185.6</ele>
        <time>2024-03-07T13:25:05Z</time>
      </trkpt>
      <trkpt lat="50.33498" lon="4.41924">
        <ele>185.6</ele>
        <time>2024-03-07T13:25:08Z</time>
      </trkpt>
      <trkpt lat="50.33489" lon="4.41949">
        <ele>186.4</ele>
        <time>2024-03-07T13:25:13Z</time>
      </trkpt>
      <trkpt lat="50.33485" lon="4.41968">
        <ele>187.4</ele>
        <time>2024-03-07T13:25:18Z</time>
      </trkpt>
      <trkpt lat="50.33483" lon="4.41971">
        <ele>188</ele>
        <time>2024-03-07T13:25:23Z</time>
      </trkpt>
      <trkpt lat="50.33483" lon="4.41975">
        <ele>188.4</ele>
        <time>2024-03-07T13:25:28Z</time>
      </trkpt>
      <trkpt lat="50.33482" lon="4.41976">
        <ele>188.8</ele>
        <time>2024-03-07T13:25:34Z</time>
      </trkpt>
      <trkpt lat="50.33482" lon="4.41979">
        <ele>189</ele>
        <time>2024-03-07T13:25:40Z</time>
      </trkpt>
      <trkpt lat="50.33483" lon="4.41983">
        <ele>189.8</ele>
        <time>2024-03-07T13:25:47Z</time>
      </trkpt>
      <trkpt lat="50.33483" lon="4.41989">
        <ele>190.2</ele>
        <time>2024-03-07T13:25:55Z</time>
      </trkpt>
      <trkpt lat="50.33483" lon="4.41991">
        <ele>190.4</ele>
        <time>2024-03-07T13:26:02Z</time>
      </trkpt>
      <trkpt lat="50.33483" lon="4.41997">
        <ele>190.4</ele>
        <time>2024-03-07T13:26:08Z</time>
      </trkpt>
      <trkpt lat="50.33484" lon="4.42011">
        <ele>190.8</ele>
        <time>2024-03-07T13:26:14Z</time>
      </trkpt>
      <trkpt lat="50.33484" lon="4.42011">
        <ele>191.4</ele>
        <time>2024-03-07T13:26:26Z</time>
      </trkpt>
      <trkpt lat="50.33484" lon="4.42011">
        <ele>191.4</ele>
        <time>2024-03-07T13:26:29Z</time>
      </trkpt>
      <trkpt lat="50.33483" lon="4.42018">
        <ele>191.4</ele>
        <time>2024-03-07T13:26:31Z</time>
      </trkpt>
      <trkpt lat="50.33483" lon="4.42031">
        <ele>191.6</ele>
        <time>2024-03-07T13:26:34Z</time>
      </trkpt>
      <trkpt lat="50.33483" lon="4.42036">
        <ele>191.6</ele>
        <time>2024-03-07T13:26:35Z</time>
      </trkpt>
      <trkpt lat="50.33482" lon="4.42056">
        <ele>192.2</ele>
        <time>2024-03-07T13:26:39Z</time>
      </trkpt>
      <trkpt lat="50.33482" lon="4.42071">
        <ele>192.8</ele>
        <time>2024-03-07T13:26:42Z</time>
      </trkpt>
      <trkpt lat="50.33481" lon="4.42074">
        <ele>193</ele>
        <time>2024-03-07T13:26:43Z</time>
      </trkpt>
      <trkpt lat="50.33481" lon="4.42077">
        <ele>193.4</ele>
        <time>2024-03-07T13:26:47Z</time>
      </trkpt>
      <trkpt lat="50.33481" lon="4.42077">
        <ele>194.2</ele>
        <time>2024-03-07T13:27:02Z</time>
      </trkpt>
      <trkpt lat="50.33481" lon="4.42077">
        <ele>194.6</ele>
        <time>2024-03-07T13:27:08Z</time>
      </trkpt>
      <trkpt lat="50.33482" lon="4.42081">
        <ele>194.6</ele>
        <time>2024-03-07T13:27:10Z</time>
      </trkpt>
      <trkpt lat="50.33486" lon="4.42085">
        <ele>195.2</ele>
        <time>2024-03-07T13:27:15Z</time>
      </trkpt>
      <trkpt lat="50.3349" lon="4.42087">
        <ele>196.2</ele>
        <time>2024-03-07T13:27:21Z</time>
      </trkpt>
      <trkpt lat="50.3349" lon="4.42087">
        <ele>196.2</ele>
        <time>2024-03-07T13:27:22Z</time>
      </trkpt>
      <trkpt lat="50.33492" lon="4.42086">
        <ele>196.6</ele>
        <time>2024-03-07T13:27:25Z</time>
      </trkpt>
      <trkpt lat="50.33493" lon="4.42087">
        <ele>197.4</ele>
        <time>2024-03-07T13:27:29Z</time>
      </trkpt>
      <trkpt lat="50.33494" lon="4.42088">
        <ele>197.8</ele>
        <time>2024-03-07T13:27:30Z</time>
      </trkpt>
      <trkpt lat="50.33498" lon="4.42096">
        <ele>198.4</ele>
        <time>2024-03-07T13:27:33Z</time>
      </trkpt>
      <trkpt lat="50.33499" lon="4.42098">
        <ele>198.6</ele>
        <time>2024-03-07T13:27:34Z</time>
      </trkpt>
      <trkpt lat="50.33501" lon="4.42103">
        <ele>199</ele>
        <time>2024-03-07T13:27:36Z</time>
      </trkpt>
      <trkpt lat="50.33503" lon="4.42111">
        <ele>199.4</ele>
        <time>2024-03-07T13:27:38Z</time>
      </trkpt>
      <trkpt lat="50.33507" lon="4.42123">
        <ele>199.8</ele>
        <time>2024-03-07T13:27:42Z</time>
      </trkpt>
      <trkpt lat="50.33509" lon="4.42131">
        <ele>200.4</ele>
        <time>2024-03-07T13:27:45Z</time>
      </trkpt>
      <trkpt lat="50.3351" lon="4.42137">
        <ele>200.6</ele>
        <time>2024-03-07T13:27:47Z</time>
      </trkpt>
      <trkpt lat="50.33511" lon="4.42153">
        <ele>201</ele>
        <time>2024-03-07T13:27:51Z</time>
      </trkpt>
      <trkpt lat="50.33512" lon="4.42156">
        <ele>201</ele>
        <time>2024-03-07T13:27:52Z</time>
      </trkpt>
      <trkpt lat="50.33516" lon="4.42167">
        <ele>201.2</ele>
        <time>2024-03-07T13:27:55Z</time>
      </trkpt>
      <trkpt lat="50.3352" lon="4.42187">
        <ele>201.6</ele>
        <time>2024-03-07T13:27:59Z</time>
      </trkpt>
      <trkpt lat="50.33523" lon="4.422">
        <ele>201.8</ele>
        <time>2024-03-07T13:28:01Z</time>
      </trkpt>
      <trkpt lat="50.33526" lon="4.42211">
        <ele>202</ele>
        <time>2024-03-07T13:28:03Z</time>
      </trkpt>
      <trkpt lat="50.33533" lon="4.42234">
        <ele>202.2</ele>
        <time>2024-03-07T13:28:08Z</time>
      </trkpt>
      <trkpt lat="50.33534" lon="4.42244">
        <ele>202</ele>
        <time>2024-03-07T13:28:12Z</time>
      </trkpt>
      <trkpt lat="50.33535" lon="4.42249">
        <ele>201.8</ele>
        <time>2024-03-07T13:28:14Z</time>
      </trkpt>
      <trkpt lat="50.33534" lon="4.42264">
        <ele>202.4</ele>
        <time>2024-03-07T13:28:18Z</time>
      </trkpt>
      <trkpt lat="50.33535" lon="4.42268">
        <ele>202.4</ele>
        <time>2024-03-07T13:28:19Z</time>
      </trkpt>
      <trkpt lat="50.33536" lon="4.42271">
        <ele>202.6</ele>
        <time>2024-03-07T13:28:20Z</time>
      </trkpt>
      <trkpt lat="50.33536" lon="4.42282">
        <ele>202.6</ele>
        <time>2024-03-07T13:28:23Z</time>
      </trkpt>
      <trkpt lat="50.33537" lon="4.42291">
        <ele>202.4</ele>
        <time>2024-03-07T13:28:27Z</time>
      </trkpt>
      <trkpt lat="50.33537" lon="4.42294">
        <ele>202.4</ele>
        <time>2024-03-07T13:28:28Z</time>
      </trkpt>
      <trkpt lat="50.33534" lon="4.42311">
        <ele>202.6</ele>
        <time>2024-03-07T13:28:35Z</time>
      </trkpt>
      <trkpt lat="50.33535" lon="4.42313">
        <ele>202.6</ele>
        <time>2024-03-07T13:28:39Z</time>
      </trkpt>
      <trkpt lat="50.33535" lon="4.42313">
        <ele>202.8</ele>
        <time>2024-03-07T13:28:55Z</time>
      </trkpt>
      <trkpt lat="50.33535" lon="4.42313">
        <ele>202.8</ele>
        <time>2024-03-07T13:29:10Z</time>
      </trkpt>
      <trkpt lat="50.33535" lon="4.42313">
        <ele>202.8</ele>
        <time>2024-03-07T13:29:23Z</time>
      </trkpt>
      <trkpt lat="50.33535" lon="4.42313">
        <ele>202.8</ele>
        <time>2024-03-07T13:29:40Z</time>
      </trkpt>
      <trkpt lat="50.33534" lon="4.42318">
        <ele>202.4</ele>
        <time>2024-03-07T13:29:49Z</time>
      </trkpt>
      <trkpt lat="50.33533" lon="4.42336">
        <ele>202.6</ele>
        <time>2024-03-07T13:29:54Z</time>
      </trkpt>
      <trkpt lat="50.33531" lon="4.42357">
        <ele>203</ele>
        <time>2024-03-07T13:29:58Z</time>
      </trkpt>
      <trkpt lat="50.33528" lon="4.42379">
        <ele>203.4</ele>
        <time>2024-03-07T13:30:03Z</time>
      </trkpt>
      <trkpt lat="50.33525" lon="4.42407">
        <ele>203.4</ele>
        <time>2024-03-07T13:30:08Z</time>
      </trkpt>
      <trkpt lat="50.3352" lon="4.4244">
        <ele>203.8</ele>
        <time>2024-03-07T13:30:14Z</time>
      </trkpt>
      <trkpt lat="50.33516" lon="4.42481">
        <ele>204</ele>
        <time>2024-03-07T13:30:21Z</time>
      </trkpt>
      <trkpt lat="50.33512" lon="4.42504">
        <ele>204.2</ele>
        <time>2024-03-07T13:30:27Z</time>
      </trkpt>
      <trkpt lat="50.33507" lon="4.42512">
        <ele>204.2</ele>
        <time>2024-03-07T13:30:30Z</time>
      </trkpt>
      <trkpt lat="50.33504" lon="4.42513">
        <ele>204.2</ele>
        <time>2024-03-07T13:30:31Z</time>
      </trkpt>
      <trkpt lat="50.33501" lon="4.42511">
        <ele>204.2</ele>
        <time>2024-03-07T13:30:32Z</time>
      </trkpt>
      <trkpt lat="50.33496" lon="4.42504">
        <ele>204.4</ele>
        <time>2024-03-07T13:30:34Z</time>
      </trkpt>
      <trkpt lat="50.33485" lon="4.42474">
        <ele>204.4</ele>
        <time>2024-03-07T13:30:39Z</time>
      </trkpt>
      <trkpt lat="50.33481" lon="4.42463">
        <ele>204.4</ele>
        <time>2024-03-07T13:30:41Z</time>
      </trkpt>
      <trkpt lat="50.33474" lon="4.42454">
        <ele>204.4</ele>
        <time>2024-03-07T13:30:43Z</time>
      </trkpt>
      <trkpt lat="50.33471" lon="4.4245">
        <ele>204.4</ele>
        <time>2024-03-07T13:30:44Z</time>
      </trkpt>
      <trkpt lat="50.33467" lon="4.42448">
        <ele>204.4</ele>
        <time>2024-03-07T13:30:45Z</time>
      </trkpt>
      <trkpt lat="50.33449" lon="4.42442">
        <ele>204.4</ele>
        <time>2024-03-07T13:30:49Z</time>
      </trkpt>
      <trkpt lat="50.3344" lon="4.42441">
        <ele>204.4</ele>
        <time>2024-03-07T13:30:51Z</time>
      </trkpt>
      <trkpt lat="50.33422" lon="4.42433">
        <ele>204.4</ele>
        <time>2024-03-07T13:30:55Z</time>
      </trkpt>
      <trkpt lat="50.33397" lon="4.42427">
        <ele>204.2</ele>
        <time>2024-03-07T13:31:00Z</time>
      </trkpt>
      <trkpt lat="50.33388" lon="4.42428">
        <ele>204.2</ele>
        <time>2024-03-07T13:31:02Z</time>
      </trkpt>
      <trkpt lat="50.33353" lon="4.42433">
        <ele>203.8</ele>
        <time>2024-03-07T13:31:09Z</time>
      </trkpt>
      <trkpt lat="50.33342" lon="4.42432">
        <ele>203.8</ele>
        <time>2024-03-07T13:31:11Z</time>
      </trkpt>
      <trkpt lat="50.33325" lon="4.42424">
        <ele>203.4</ele>
        <time>2024-03-07T13:31:14Z</time>
      </trkpt>
      <trkpt lat="50.33291" lon="4.42399">
        <ele>202.6</ele>
        <time>2024-03-07T13:31:20Z</time>
      </trkpt>
      <trkpt lat="50.33251" lon="4.42368">
        <ele>201</ele>
        <time>2024-03-07T13:31:26Z</time>
      </trkpt>
      <trkpt lat="50.33238" lon="4.42352">
        <ele>200.4</ele>
        <time>2024-03-07T13:31:28Z</time>
      </trkpt>
      <trkpt lat="50.33232" lon="4.42342">
        <ele>200</ele>
        <time>2024-03-07T13:31:29Z</time>
      </trkpt>
      <trkpt lat="50.3322" lon="4.42303">
        <ele>199.2</ele>
        <time>2024-03-07T13:31:32Z</time>
      </trkpt>
      <trkpt lat="50.33217" lon="4.42289">
        <ele>198.8</ele>
        <time>2024-03-07T13:31:33Z</time>
      </trkpt>
      <trkpt lat="50.3321" lon="4.42249">
        <ele>198</ele>
        <time>2024-03-07T13:31:36Z</time>
      </trkpt>
      <trkpt lat="50.33206" lon="4.42238">
        <ele>197.8</ele>
        <time>2024-03-07T13:31:37Z</time>
      </trkpt>
      <trkpt lat="50.33191" lon="4.42205">
        <ele>197.4</ele>
        <time>2024-03-07T13:31:41Z</time>
      </trkpt>
      <trkpt lat="50.33176" lon="4.42161">
        <ele>196.6</ele>
        <time>2024-03-07T13:31:47Z</time>
      </trkpt>
      <trkpt lat="50.33173" lon="4.42149">
        <ele>196.4</ele>
        <time>2024-03-07T13:31:49Z</time>
      </trkpt>
      <trkpt lat="50.33169" lon="4.42123">
        <ele>196</ele>
        <time>2024-03-07T13:31:53Z</time>
      </trkpt>
      <trkpt lat="50.33165" lon="4.42092">
        <ele>195.8</ele>
        <time>2024-03-07T13:31:58Z</time>
      </trkpt>
      <trkpt lat="50.33163" lon="4.42079">
        <ele>195.8</ele>
        <time>2024-03-07T13:32:00Z</time>
      </trkpt>
      <trkpt lat="50.33162" lon="4.42073">
        <ele>196</ele>
        <time>2024-03-07T13:32:01Z</time>
      </trkpt>
      <trkpt lat="50.33154" lon="4.42045">
        <ele>194.8</ele>
        <time>2024-03-07T13:32:06Z</time>
      </trkpt>
      <trkpt lat="50.33152" lon="4.42042">
        <ele>195.6</ele>
        <time>2024-03-07T13:32:07Z</time>
      </trkpt>
      <trkpt lat="50.33147" lon="4.42042">
        <ele>197.2</ele>
        <time>2024-03-07T13:32:09Z</time>
      </trkpt>
      <trkpt lat="50.33141" lon="4.42059">
        <ele>197.2</ele>
        <time>2024-03-07T13:32:13Z</time>
      </trkpt>
      <trkpt lat="50.33132" lon="4.42088">
        <ele>197.6</ele>
        <time>2024-03-07T13:32:19Z</time>
      </trkpt>
      <trkpt lat="50.3312" lon="4.42116">
        <ele>197.8</ele>
        <time>2024-03-07T13:32:25Z</time>
      </trkpt>
      <trkpt lat="50.33108" lon="4.4213">
        <ele>197.8</ele>
        <time>2024-03-07T13:32:29Z</time>
      </trkpt>
      <trkpt lat="50.33089" lon="4.42132">
        <ele>198.2</ele>
        <time>2024-03-07T13:32:34Z</time>
      </trkpt>
      <trkpt lat="50.33056" lon="4.42122">
        <ele>199</ele>
        <time>2024-03-07T13:32:42Z</time>
      </trkpt>
      <trkpt lat="50.33018" lon="4.4211">
        <ele>199.8</ele>
        <time>2024-03-07T13:32:50Z</time>
      </trkpt>
      <trkpt lat="50.32997" lon="4.42105">
        <ele>200.2</ele>
        <time>2024-03-07T13:32:55Z</time>
      </trkpt>
      <trkpt lat="50.32982" lon="4.42104">
        <ele>200.8</ele>
        <time>2024-03-07T13:33:00Z</time>
      </trkpt>
      <trkpt lat="50.32958" lon="4.42095">
        <ele>201</ele>
        <time>2024-03-07T13:33:06Z</time>
      </trkpt>
      <trkpt lat="50.32933" lon="4.42081">
        <ele>201.6</ele>
        <time>2024-03-07T13:33:13Z</time>
      </trkpt>
      <trkpt lat="50.32922" lon="4.42075">
        <ele>201.6</ele>
        <time>2024-03-07T13:33:16Z</time>
      </trkpt>
      <trkpt lat="50.32914" lon="4.4207">
        <ele>202</ele>
        <time>2024-03-07T13:33:18Z</time>
      </trkpt>
      <trkpt lat="50.32889" lon="4.42053">
        <ele>202.4</ele>
        <time>2024-03-07T13:33:24Z</time>
      </trkpt>
      <trkpt lat="50.32857" lon="4.42032">
        <ele>202.8</ele>
        <time>2024-03-07T13:33:32Z</time>
      </trkpt>
      <trkpt lat="50.32826" lon="4.42011">
        <ele>203</ele>
        <time>2024-03-07T13:33:39Z</time>
      </trkpt>
      <trkpt lat="50.32796" lon="4.41993">
        <ele>203.2</ele>
        <time>2024-03-07T13:33:45Z</time>
      </trkpt>
      <trkpt lat="50.32757" lon="4.41969">
        <ele>203.6</ele>
        <time>2024-03-07T13:33:52Z</time>
      </trkpt>
      <trkpt lat="50.32721" lon="4.41942">
        <ele>203.6</ele>
        <time>2024-03-07T13:33:59Z</time>
      </trkpt>
      <trkpt lat="50.32673" lon="4.419">
        <ele>203.8</ele>
        <time>2024-03-07T13:34:09Z</time>
      </trkpt>
      <trkpt lat="50.32645" lon="4.41874">
        <ele>203.8</ele>
        <time>2024-03-07T13:34:16Z</time>
      </trkpt>
      <trkpt lat="50.32614" lon="4.41846">
        <ele>204.2</ele>
        <time>2024-03-07T13:34:24Z</time>
      </trkpt>
      <trkpt lat="50.32579" lon="4.41814">
        <ele>204</ele>
        <time>2024-03-07T13:34:32Z</time>
      </trkpt>
      <trkpt lat="50.32561" lon="4.418">
        <ele>204.2</ele>
        <time>2024-03-07T13:34:38Z</time>
      </trkpt>
      <trkpt lat="50.32547" lon="4.41788">
        <ele>204.2</ele>
        <time>2024-03-07T13:34:44Z</time>
      </trkpt>
      <trkpt lat="50.32528" lon="4.41777">
        <ele>204</ele>
        <time>2024-03-07T13:34:49Z</time>
      </trkpt>
      <trkpt lat="50.32498" lon="4.41751">
        <ele>203.8</ele>
        <time>2024-03-07T13:34:56Z</time>
      </trkpt>
      <trkpt lat="50.32461" lon="4.41718">
        <ele>203.4</ele>
        <time>2024-03-07T13:35:05Z</time>
      </trkpt>
      <trkpt lat="50.32441" lon="4.41701">
        <ele>203</ele>
        <time>2024-03-07T13:35:10Z</time>
      </trkpt>
      <trkpt lat="50.32432" lon="4.41696">
        <ele>202.8</ele>
        <time>2024-03-07T13:35:12Z</time>
      </trkpt>
      <trkpt lat="50.32418" lon="4.41689">
        <ele>202.8</ele>
        <time>2024-03-07T13:35:15Z</time>
      </trkpt>
      <trkpt lat="50.324" lon="4.41687">
        <ele>202.8</ele>
        <time>2024-03-07T13:35:18Z</time>
      </trkpt>
      <trkpt lat="50.32356" lon="4.41694">
        <ele>202.4</ele>
        <time>2024-03-07T13:35:25Z</time>
      </trkpt>
      <trkpt lat="50.32313" lon="4.41701">
        <ele>202</ele>
        <time>2024-03-07T13:35:32Z</time>
      </trkpt>
      <trkpt lat="50.32258" lon="4.41712">
        <ele>201.6</ele>
        <time>2024-03-07T13:35:41Z</time>
      </trkpt>
      <trkpt lat="50.32209" lon="4.41719">
        <ele>201.2</ele>
        <time>2024-03-07T13:35:49Z</time>
      </trkpt>
      <trkpt lat="50.32155" lon="4.41728">
        <ele>200.4</ele>
        <time>2024-03-07T13:35:58Z</time>
      </trkpt>
      <trkpt lat="50.32149" lon="4.41729">
        <ele>200.2</ele>
        <time>2024-03-07T13:35:59Z</time>
      </trkpt>
      <trkpt lat="50.32111" lon="4.41735">
        <ele>199.8</ele>
        <time>2024-03-07T13:36:05Z</time>
      </trkpt>
      <trkpt lat="50.32059" lon="4.41747">
        <ele>199.4</ele>
        <time>2024-03-07T13:36:14Z</time>
      </trkpt>
      <trkpt lat="50.32055" lon="4.41746">
        <ele>199.2</ele>
        <time>2024-03-07T13:36:15Z</time>
      </trkpt>
      <trkpt lat="50.32049" lon="4.41739">
        <ele>199.2</ele>
        <time>2024-03-07T13:36:17Z</time>
      </trkpt>
      <trkpt lat="50.3205" lon="4.41724">
        <ele>199</ele>
        <time>2024-03-07T13:36:19Z</time>
      </trkpt>
      <trkpt lat="50.32051" lon="4.41717">
        <ele>198.8</ele>
        <time>2024-03-07T13:36:20Z</time>
      </trkpt>
      <trkpt lat="50.3206" lon="4.41671">
        <ele>198.4</ele>
        <time>2024-03-07T13:36:25Z</time>
      </trkpt>
      <trkpt lat="50.32074" lon="4.41596">
        <ele>197.4</ele>
        <time>2024-03-07T13:36:32Z</time>
      </trkpt>
      <trkpt lat="50.32087" lon="4.41531">
        <ele>196.4</ele>
        <time>2024-03-07T13:36:39Z</time>
      </trkpt>
      <trkpt lat="50.32089" lon="4.41515">
        <ele>196</ele>
        <time>2024-03-07T13:36:41Z</time>
      </trkpt>
      <trkpt lat="50.32088" lon="4.41504">
        <ele>195.6</ele>
        <time>2024-03-07T13:36:43Z</time>
      </trkpt>
      <trkpt lat="50.32086" lon="4.41499">
        <ele>195</ele>
        <time>2024-03-07T13:36:45Z</time>
      </trkpt>
      <trkpt lat="50.32085" lon="4.41489">
        <ele>194.4</ele>
        <time>2024-03-07T13:36:48Z</time>
      </trkpt>
      <trkpt lat="50.32084" lon="4.41488">
        <ele>194.2</ele>
        <time>2024-03-07T13:36:49Z</time>
      </trkpt>
      <trkpt lat="50.32082" lon="4.41489">
        <ele>194</ele>
        <time>2024-03-07T13:36:51Z</time>
      </trkpt>
      <trkpt lat="50.32076" lon="4.4149">
        <ele>193.4</ele>
        <time>2024-03-07T13:36:54Z</time>
      </trkpt>
      <trkpt lat="50.32072" lon="4.41488">
        <ele>193</ele>
        <time>2024-03-07T13:36:56Z</time>
      </trkpt>
      <trkpt lat="50.32058" lon="4.41474">
        <ele>191.8</ele>
        <time>2024-03-07T13:37:02Z</time>
      </trkpt>
      <trkpt lat="50.32043" lon="4.41458">
        <ele>190.8</ele>
        <time>2024-03-07T13:37:07Z</time>
      </trkpt>
      <trkpt lat="50.32031" lon="4.41439">
        <ele>189.8</ele>
        <time>2024-03-07T13:37:12Z</time>
      </trkpt>
      <trkpt lat="50.32018" lon="4.41418">
        <ele>189</ele>
        <time>2024-03-07T13:37:17Z</time>
      </trkpt>
      <trkpt lat="50.32009" lon="4.41401">
        <ele>188.4</ele>
        <time>2024-03-07T13:37:21Z</time>
      </trkpt>
      <trkpt lat="50.32007" lon="4.41396">
        <ele>188.2</ele>
        <time>2024-03-07T13:37:22Z</time>
      </trkpt>
      <trkpt lat="50.32004" lon="4.4139">
        <ele>188.2</ele>
        <time>2024-03-07T13:37:23Z</time>
      </trkpt>
      <trkpt lat="50.31995" lon="4.41377">
        <ele>187.6</ele>
        <time>2024-03-07T13:37:26Z</time>
      </trkpt>
      <trkpt lat="50.31985" lon="4.41357">
        <ele>187.2</ele>
        <time>2024-03-07T13:37:30Z</time>
      </trkpt>
      <trkpt lat="50.31982" lon="4.41351">
        <ele>187</ele>
        <time>2024-03-07T13:37:31Z</time>
      </trkpt>
      <trkpt lat="50.31965" lon="4.41314">
        <ele>186.2</ele>
        <time>2024-03-07T13:37:37Z</time>
      </trkpt>
      <trkpt lat="50.3196" lon="4.41301">
        <ele>186</ele>
        <time>2024-03-07T13:37:39Z</time>
      </trkpt>
      <trkpt lat="50.31952" lon="4.41281">
        <ele>185.6</ele>
        <time>2024-03-07T13:37:42Z</time>
      </trkpt>
      <trkpt lat="50.3194" lon="4.41257">
        <ele>185.2</ele>
        <time>2024-03-07T13:37:46Z</time>
      </trkpt>
      <trkpt lat="50.31933" lon="4.41243">
        <ele>185</ele>
        <time>2024-03-07T13:37:48Z</time>
      </trkpt>
      <trkpt lat="50.31902" lon="4.41187">
        <ele>184.4</ele>
        <time>2024-03-07T13:37:55Z</time>
      </trkpt>
      <trkpt lat="50.31867" lon="4.41138">
        <ele>184.6</ele>
        <time>2024-03-07T13:38:02Z</time>
      </trkpt>
      <trkpt lat="50.31837" lon="4.41119">
        <ele>184.8</ele>
        <time>2024-03-07T13:38:08Z</time>
      </trkpt>
      <trkpt lat="50.31822" lon="4.41118">
        <ele>184.6</ele>
        <time>2024-03-07T13:38:12Z</time>
      </trkpt>
      <trkpt lat="50.31808" lon="4.41125">
        <ele>184.2</ele>
        <time>2024-03-07T13:38:16Z</time>
      </trkpt>
      <trkpt lat="50.31793" lon="4.41142">
        <ele>184.2</ele>
        <time>2024-03-07T13:38:21Z</time>
      </trkpt>
      <trkpt lat="50.31789" lon="4.41149">
        <ele>184.2</ele>
        <time>2024-03-07T13:38:23Z</time>
      </trkpt>
      <trkpt lat="50.31786" lon="4.41157">
        <ele>184.2</ele>
        <time>2024-03-07T13:38:25Z</time>
      </trkpt>
      <trkpt lat="50.31775" lon="4.41185">
        <ele>184.2</ele>
        <time>2024-03-07T13:38:31Z</time>
      </trkpt>
      <trkpt lat="50.31767" lon="4.41208">
        <ele>183.8</ele>
        <time>2024-03-07T13:38:36Z</time>
      </trkpt>
      <trkpt lat="50.3176" lon="4.41236">
        <ele>183.6</ele>
        <time>2024-03-07T13:38:41Z</time>
      </trkpt>
      <trkpt lat="50.31755" lon="4.41252">
        <ele>183.4</ele>
        <time>2024-03-07T13:38:45Z</time>
      </trkpt>
      <trkpt lat="50.31744" lon="4.41267">
        <ele>183.2</ele>
        <time>2024-03-07T13:38:50Z</time>
      </trkpt>
      <trkpt lat="50.31726" lon="4.41284">
        <ele>183.2</ele>
        <time>2024-03-07T13:38:56Z</time>
      </trkpt>
      <trkpt lat="50.31707" lon="4.41304">
        <ele>183</ele>
        <time>2024-03-07T13:39:01Z</time>
      </trkpt>
      <trkpt lat="50.31686" lon="4.41325">
        <ele>182.8</ele>
        <time>2024-03-07T13:39:06Z</time>
      </trkpt>
      <trkpt lat="50.31673" lon="4.41326">
        <ele>182.8</ele>
        <time>2024-03-07T13:39:09Z</time>
      </trkpt>
      <trkpt lat="50.31666" lon="4.41319">
        <ele>182.8</ele>
        <time>2024-03-07T13:39:11Z</time>
      </trkpt>
      <trkpt lat="50.31664" lon="4.41314">
        <ele>182.8</ele>
        <time>2024-03-07T13:39:12Z</time>
      </trkpt>
      <trkpt lat="50.31663" lon="4.41308">
        <ele>182.8</ele>
        <time>2024-03-07T13:39:13Z</time>
      </trkpt>
      <trkpt lat="50.31664" lon="4.41295">
        <ele>183</ele>
        <time>2024-03-07T13:39:15Z</time>
      </trkpt>
      <trkpt lat="50.3167" lon="4.41264">
        <ele>182.6</ele>
        <time>2024-03-07T13:39:20Z</time>
      </trkpt>
      <trkpt lat="50.31671" lon="4.41257">
        <ele>182.6</ele>
        <time>2024-03-07T13:39:21Z</time>
      </trkpt>
      <trkpt lat="50.31672" lon="4.41237">
        <ele>182.4</ele>
        <time>2024-03-07T13:39:24Z</time>
      </trkpt>
      <trkpt lat="50.31672" lon="4.4123">
        <ele>182.4</ele>
        <time>2024-03-07T13:39:25Z</time>
      </trkpt>
      <trkpt lat="50.31673" lon="4.41216">
        <ele>182.2</ele>
        <time>2024-03-07T13:39:27Z</time>
      </trkpt>
      <trkpt lat="50.31676" lon="4.41197">
        <ele>182.2</ele>
        <time>2024-03-07T13:39:30Z</time>
      </trkpt>
      <trkpt lat="50.31682" lon="4.41179">
        <ele>182</ele>
        <time>2024-03-07T13:39:33Z</time>
      </trkpt>
      <trkpt lat="50.31684" lon="4.41172">
        <ele>182</ele>
        <time>2024-03-07T13:39:34Z</time>
      </trkpt>
      <trkpt lat="50.3169" lon="4.41153">
        <ele>181.8</ele>
        <time>2024-03-07T13:39:37Z</time>
      </trkpt>
      <trkpt lat="50.31692" lon="4.41148">
        <ele>181.6</ele>
        <time>2024-03-07T13:39:38Z</time>
      </trkpt>
      <trkpt lat="50.31694" lon="4.4114">
        <ele>181.6</ele>
        <time>2024-03-07T13:39:39Z</time>
      </trkpt>
      <trkpt lat="50.31699" lon="4.41118">
        <ele>181.6</ele>
        <time>2024-03-07T13:39:42Z</time>
      </trkpt>
      <trkpt lat="50.31705" lon="4.41094">
        <ele>181.2</ele>
        <time>2024-03-07T13:39:45Z</time>
      </trkpt>
      <trkpt lat="50.31706" lon="4.41085">
        <ele>181.2</ele>
        <time>2024-03-07T13:39:46Z</time>
      </trkpt>
      <trkpt lat="50.31706" lon="4.41076">
        <ele>181</ele>
        <time>2024-03-07T13:39:47Z</time>
      </trkpt>
      <trkpt lat="50.31705" lon="4.4106">
        <ele>181</ele>
        <time>2024-03-07T13:39:49Z</time>
      </trkpt>
      <trkpt lat="50.31704" lon="4.41052">
        <ele>180.8</ele>
        <time>2024-03-07T13:39:50Z</time>
      </trkpt>
      <trkpt lat="50.31692" lon="4.41025">
        <ele>180.8</ele>
        <time>2024-03-07T13:39:54Z</time>
      </trkpt>
      <trkpt lat="50.31688" lon="4.41019">
        <ele>180.8</ele>
        <time>2024-03-07T13:39:55Z</time>
      </trkpt>
      <trkpt lat="50.31679" lon="4.41011">
        <ele>180.8</ele>
        <time>2024-03-07T13:39:57Z</time>
      </trkpt>
      <trkpt lat="50.3167" lon="4.41006">
        <ele>180.8</ele>
        <time>2024-03-07T13:39:59Z</time>
      </trkpt>
      <trkpt lat="50.31666" lon="4.41005">
        <ele>181</ele>
        <time>2024-03-07T13:40:00Z</time>
      </trkpt>
      <trkpt lat="50.31641" lon="4.40997">
        <ele>181.8</ele>
        <time>2024-03-07T13:40:05Z</time>
      </trkpt>
      <trkpt lat="50.31636" lon="4.40995">
        <ele>181.6</ele>
        <time>2024-03-07T13:40:06Z</time>
      </trkpt>
      <trkpt lat="50.31631" lon="4.40992">
        <ele>181.6</ele>
        <time>2024-03-07T13:40:07Z</time>
      </trkpt>
      <trkpt lat="50.31622" lon="4.40984">
        <ele>181.8</ele>
        <time>2024-03-07T13:40:09Z</time>
      </trkpt>
      <trkpt lat="50.31618" lon="4.40979">
        <ele>182</ele>
        <time>2024-03-07T13:40:10Z</time>
      </trkpt>
      <trkpt lat="50.31615" lon="4.40974">
        <ele>182</ele>
        <time>2024-03-07T13:40:11Z</time>
      </trkpt>
      <trkpt lat="50.31605" lon="4.4096">
        <ele>182.4</ele>
        <time>2024-03-07T13:40:14Z</time>
      </trkpt>
      <trkpt lat="50.31588" lon="4.40932">
        <ele>182.6</ele>
        <time>2024-03-07T13:40:20Z</time>
      </trkpt>
      <trkpt lat="50.31581" lon="4.40912">
        <ele>182.4</ele>
        <time>2024-03-07T13:40:23Z</time>
      </trkpt>
      <trkpt lat="50.31578" lon="4.40904">
        <ele>182.4</ele>
        <time>2024-03-07T13:40:24Z</time>
      </trkpt>
      <trkpt lat="50.31577" lon="4.40896">
        <ele>182.4</ele>
        <time>2024-03-07T13:40:25Z</time>
      </trkpt>
      <trkpt lat="50.31571" lon="4.40873">
        <ele>182.6</ele>
        <time>2024-03-07T13:40:28Z</time>
      </trkpt>
      <trkpt lat="50.31568" lon="4.40858">
        <ele>182.4</ele>
        <time>2024-03-07T13:40:30Z</time>
      </trkpt>
      <trkpt lat="50.31565" lon="4.40844">
        <ele>182.4</ele>
        <time>2024-03-07T13:40:32Z</time>
      </trkpt>
      <trkpt lat="50.31563" lon="4.40836">
        <ele>182.4</ele>
        <time>2024-03-07T13:40:33Z</time>
      </trkpt>
      <trkpt lat="50.31556" lon="4.40805">
        <ele>181.8</ele>
        <time>2024-03-07T13:40:37Z</time>
      </trkpt>
      <trkpt lat="50.31543" lon="4.40747">
        <ele>181.4</ele>
        <time>2024-03-07T13:40:44Z</time>
      </trkpt>
      <trkpt lat="50.31534" lon="4.4071">
        <ele>181</ele>
        <time>2024-03-07T13:40:49Z</time>
      </trkpt>
      <trkpt lat="50.31528" lon="4.40688">
        <ele>180.8</ele>
        <time>2024-03-07T13:40:52Z</time>
      </trkpt>
      <trkpt lat="50.31522" lon="4.40664">
        <ele>180.6</ele>
        <time>2024-03-07T13:40:55Z</time>
      </trkpt>
      <trkpt lat="50.3152" lon="4.40656">
        <ele>180.4</ele>
        <time>2024-03-07T13:40:56Z</time>
      </trkpt>
      <trkpt lat="50.31515" lon="4.40644">
        <ele>180.2</ele>
        <time>2024-03-07T13:40:58Z</time>
      </trkpt>
      <trkpt lat="50.31513" lon="4.4064">
        <ele>180</ele>
        <time>2024-03-07T13:40:59Z</time>
      </trkpt>
      <trkpt lat="50.31505" lon="4.40622">
        <ele>179.8</ele>
        <time>2024-03-07T13:41:03Z</time>
      </trkpt>
      <trkpt lat="50.315" lon="4.40614">
        <ele>179</ele>
        <time>2024-03-07T13:41:07Z</time>
      </trkpt>
      <trkpt lat="50.315" lon="4.40614">
        <ele>178.2</ele>
        <time>2024-03-07T13:41:17Z</time>
      </trkpt>
      <trkpt lat="50.315" lon="4.40614">
        <ele>177.4</ele>
        <time>2024-03-07T13:41:30Z</time>
      </trkpt>
      <trkpt lat="50.315" lon="4.40614">
        <ele>176.4</ele>
        <time>2024-03-07T13:41:45Z</time>
      </trkpt>
      <trkpt lat="50.31499" lon="4.40615">
        <ele>176.4</ele>
        <time>2024-03-07T13:41:53Z</time>
      </trkpt>
      <trkpt lat="50.31499" lon="4.40615">
        <ele>175.8</ele>
        <time>2024-03-07T13:42:15Z</time>
      </trkpt>
      <trkpt lat="50.31499" lon="4.40615">
        <ele>176</ele>
        <time>2024-03-07T13:42:29Z</time>
      </trkpt>
      <trkpt lat="50.31499" lon="4.40615">
        <ele>176</ele>
        <time>2024-03-07T13:42:42Z</time>
      </trkpt>
      <trkpt lat="50.31499" lon="4.40615">
        <ele>176</ele>
        <time>2024-03-07T13:42:56Z</time>
      </trkpt>
      <trkpt lat="50.31499" lon="4.40615">
        <ele>176</ele>
        <time>2024-03-07T13:43:03Z</time>
      </trkpt>
      <trkpt lat="50.31498" lon="4.40613">
        <ele>176.4</ele>
        <time>2024-03-07T13:43:10Z</time>
      </trkpt>
      <trkpt lat="50.31498" lon="4.40613">
        <ele>176.6</ele>
        <time>2024-03-07T13:43:25Z</time>
      </trkpt>
      <trkpt lat="50.31498" lon="4.40613">
        <ele>176.8</ele>
        <time>2024-03-07T13:43:39Z</time>
      </trkpt>
      <trkpt lat="50.31498" lon="4.40613">
        <ele>177</ele>
        <time>2024-03-07T13:43:46Z</time>
      </trkpt>
      <trkpt lat="50.31495" lon="4.40609">
        <ele>178</ele>
        <time>2024-03-07T13:43:59Z</time>
      </trkpt>
      <trkpt lat="50.31496" lon="4.4061">
        <ele>179</ele>
        <time>2024-03-07T13:44:28Z</time>
      </trkpt>
      <trkpt lat="50.31496" lon="4.4061">
        <ele>179.6</ele>
        <time>2024-03-07T13:44:52Z</time>
      </trkpt>
      <trkpt lat="50.31496" lon="4.40609">
        <ele>180.6</ele>
        <time>2024-03-07T13:45:21Z</time>
      </trkpt>
      <trkpt lat="50.31495" lon="4.40606">
        <ele>181.4</ele>
        <time>2024-03-07T13:45:47Z</time>
      </trkpt>
      <trkpt lat="50.31495" lon="4.40606">
        <ele>182</ele>
        <time>2024-03-07T13:46:13Z</time>
      </trkpt>
      <trkpt lat="50.31495" lon="4.40604">
        <ele>182.8</ele>
        <time>2024-03-07T13:46:46Z</time>
      </trkpt>
      <trkpt lat="50.31495" lon="4.40605">
        <ele>183.2</ele>
        <time>2024-03-07T13:47:10Z</time>
      </trkpt>
      <trkpt lat="50.31495" lon="4.40605">
        <ele>183.6</ele>
        <time>2024-03-07T13:47:39Z</time>
      </trkpt>
      <trkpt lat="50.31495" lon="4.40604">
        <ele>184.2</ele>
        <time>2024-03-07T13:48:08Z</time>
      </trkpt>
      <trkpt lat="50.31494" lon="4.40603">
        <ele>184.6</ele>
        <time>2024-03-07T13:48:36Z</time>
      </trkpt>
      <trkpt lat="50.31494" lon="4.40602">
        <ele>185.2</ele>
        <time>2024-03-07T13:49:11Z</time>
      </trkpt>
      <trkpt lat="50.31494" lon="4.40602">
        <ele>185.6</ele>
        <time>2024-03-07T13:49:43Z</time>
      </trkpt>
      <trkpt lat="50.31495" lon="4.40602">
        <ele>186.2</ele>
        <time>2024-03-07T13:50:10Z</time>
      </trkpt>
      <trkpt lat="50.31495" lon="4.40601">
        <ele>186.4</ele>
        <time>2024-03-07T13:50:38Z</time>
      </trkpt>
      <trkpt lat="50.31494" lon="4.40602">
        <ele>186.8</ele>
        <time>2024-03-07T13:51:09Z</time>
      </trkpt>
      <trkpt lat="50.31494" lon="4.40602">
        <ele>187</ele>
        <time>2024-03-07T13:51:39Z</time>
      </trkpt>
      <trkpt lat="50.31494" lon="4.40602">
        <ele>187.2</ele>
        <time>2024-03-07T13:52:09Z</time>
      </trkpt>
      <trkpt lat="50.31494" lon="4.40602">
        <ele>187</ele>
        <time>2024-03-07T13:52:37Z</time>
      </trkpt>
      <trkpt lat="50.31494" lon="4.40602">
        <ele>187</ele>
        <time>2024-03-07T13:53:03Z</time>
      </trkpt>
      <trkpt lat="50.31494" lon="4.40602">
        <ele>187.2</ele>
        <time>2024-03-07T13:53:28Z</time>
      </trkpt>
      <trkpt lat="50.31494" lon="4.40601">
        <ele>187.4</ele>
        <time>2024-03-07T13:53:55Z</time>
      </trkpt>
      <trkpt lat="50.31494" lon="4.40601">
        <ele>187.6</ele>
        <time>2024-03-07T13:54:17Z</time>
      </trkpt>
      <trkpt lat="50.31494" lon="4.406">
        <ele>188</ele>
        <time>2024-03-07T13:54:43Z</time>
      </trkpt>
      <trkpt lat="50.31494" lon="4.406">
        <ele>188</ele>
        <time>2024-03-07T13:54:50Z</time>
      </trkpt>
      <trkpt lat="50.31494" lon="4.406">
        <ele>188.2</ele>
        <time>2024-03-07T13:54:56Z</time>
      </trkpt>
      <trkpt lat="50.31494" lon="4.406">
        <ele>188.2</ele>
        <time>2024-03-07T13:55:02Z</time>
      </trkpt>
      <trkpt lat="50.31494" lon="4.406">
        <ele>188.6</ele>
        <time>2024-03-07T13:55:15Z</time>
      </trkpt>
      <trkpt lat="50.31494" lon="4.406">
        <ele>188.8</ele>
        <time>2024-03-07T13:55:31Z</time>
      </trkpt>
      <trkpt lat="50.31495" lon="4.40601">
        <ele>189</ele>
        <time>2024-03-07T13:55:48Z</time>
      </trkpt>
      <trkpt lat="50.31495" lon="4.40601">
        <ele>189.2</ele>
        <time>2024-03-07T13:56:00Z</time>
      </trkpt>
      <trkpt lat="50.31495" lon="4.40601">
        <ele>189.4</ele>
        <time>2024-03-07T13:56:14Z</time>
      </trkpt>
      <trkpt lat="50.31496" lon="4.40603">
        <ele>189.6</ele>
        <time>2024-03-07T13:56:28Z</time>
      </trkpt>
      <trkpt lat="50.31496" lon="4.40603">
        <ele>189.8</ele>
        <time>2024-03-07T13:56:44Z</time>
      </trkpt>
      <trkpt lat="50.31496" lon="4.40603">
        <ele>189.8</ele>
        <time>2024-03-07T13:56:52Z</time>
      </trkpt>
      <trkpt lat="50.31495" lon="4.40603">
        <ele>190.2</ele>
        <time>2024-03-07T13:57:07Z</time>
      </trkpt>
      <trkpt lat="50.31495" lon="4.40603">
        <ele>190.2</ele>
        <time>2024-03-07T13:57:18Z</time>
      </trkpt>
      <trkpt lat="50.31495" lon="4.40603">
        <ele>190.4</ele>
        <time>2024-03-07T13:57:27Z</time>
      </trkpt>
      <trkpt lat="50.31495" lon="4.40603">
        <ele>190.6</ele>
        <time>2024-03-07T13:57:37Z</time>
      </trkpt>
      <trkpt lat="50.31495" lon="4.40603">
        <ele>190.6</ele>
        <time>2024-03-07T13:57:45Z</time>
      </trkpt>
      <trkpt lat="50.31495" lon="4.40605">
        <ele>190.8</ele>
        <time>2024-03-07T13:57:59Z</time>
      </trkpt>
      <trkpt lat="50.31495" lon="4.40605">
        <ele>191</ele>
        <time>2024-03-07T13:58:17Z</time>
      </trkpt>
      <trkpt lat="50.31495" lon="4.40606">
        <ele>191.6</ele>
        <time>2024-03-07T13:58:35Z</time>
      </trkpt>
      <trkpt lat="50.31495" lon="4.40606">
        <ele>191.8</ele>
        <time>2024-03-07T13:58:50Z</time>
      </trkpt>
      <trkpt lat="50.31495" lon="4.40606">
        <ele>192</ele>
        <time>2024-03-07T13:59:01Z</time>
      </trkpt>
      <trkpt lat="50.31493" lon="4.40603">
        <ele>192.2</ele>
        <time>2024-03-07T13:59:07Z</time>
      </trkpt>
      <trkpt lat="50.31484" lon="4.4059">
        <ele>192.6</ele>
        <time>2024-03-07T13:59:12Z</time>
      </trkpt>
      <trkpt lat="50.31475" lon="4.40579">
        <ele>192.6</ele>
        <time>2024-03-07T13:59:17Z</time>
      </trkpt>
      <trkpt lat="50.31466" lon="4.40567">
        <ele>192.8</ele>
        <time>2024-03-07T13:59:22Z</time>
      </trkpt>
      <trkpt lat="50.31456" lon="4.4056">
        <ele>193.2</ele>
        <time>2024-03-07T13:59:25Z</time>
      </trkpt>
      <trkpt lat="50.3144" lon="4.40549">
        <ele>193.6</ele>
        <time>2024-03-07T13:59:29Z</time>
      </trkpt>
      <trkpt lat="50.31422" lon="4.40542">
        <ele>194</ele>
        <time>2024-03-07T13:59:34Z</time>
      </trkpt>
      <trkpt lat="50.31404" lon="4.40533">
        <ele>194.4</ele>
        <time>2024-03-07T13:59:38Z</time>
      </trkpt>
      <trkpt lat="50.31388" lon="4.40526">
        <ele>195</ele>
        <time>2024-03-07T13:59:41Z</time>
      </trkpt>
      <trkpt lat="50.31384" lon="4.40525">
        <ele>195</ele>
        <time>2024-03-07T13:59:42Z</time>
      </trkpt>
      <trkpt lat="50.31365" lon="4.40516">
        <ele>195.6</ele>
        <time>2024-03-07T13:59:46Z</time>
      </trkpt>
      <trkpt lat="50.31348" lon="4.40505">
        <ele>196.4</ele>
        <time>2024-03-07T13:59:51Z</time>
      </trkpt>
      <trkpt lat="50.31345" lon="4.4049">
        <ele>196.8</ele>
        <time>2024-03-07T13:59:55Z</time>
      </trkpt>
      <trkpt lat="50.31348" lon="4.40466">
        <ele>197.4</ele>
        <time>2024-03-07T14:00:01Z</time>
      </trkpt>
      <trkpt lat="50.31352" lon="4.40437">
        <ele>197.8</ele>
        <time>2024-03-07T14:00:06Z</time>
      </trkpt>
      <trkpt lat="50.3135" lon="4.40405">
        <ele>198.2</ele>
        <time>2024-03-07T14:00:11Z</time>
      </trkpt>
      <trkpt lat="50.31343" lon="4.40375">
        <ele>198.2</ele>
        <time>2024-03-07T14:00:15Z</time>
      </trkpt>
      <trkpt lat="50.31339" lon="4.40363">
        <ele>198.4</ele>
        <time>2024-03-07T14:00:17Z</time>
      </trkpt>
      <trkpt lat="50.3133" lon="4.40346">
        <ele>198.2</ele>
        <time>2024-03-07T14:00:20Z</time>
      </trkpt>
      <trkpt lat="50.31323" lon="4.40336">
        <ele>198.2</ele>
        <time>2024-03-07T14:00:22Z</time>
      </trkpt>
      <trkpt lat="50.31311" lon="4.40316">
        <ele>198.2</ele>
        <time>2024-03-07T14:00:26Z</time>
      </trkpt>
      <trkpt lat="50.31308" lon="4.40311">
        <ele>198.2</ele>
        <time>2024-03-07T14:00:27Z</time>
      </trkpt>
      <trkpt lat="50.31304" lon="4.40306">
        <ele>198.2</ele>
        <time>2024-03-07T14:00:28Z</time>
      </trkpt>
      <trkpt lat="50.31298" lon="4.40297">
        <ele>198.2</ele>
        <time>2024-03-07T14:00:30Z</time>
      </trkpt>
      <trkpt lat="50.3128" lon="4.40266">
        <ele>197.6</ele>
        <time>2024-03-07T14:00:36Z</time>
      </trkpt>
      <trkpt lat="50.31261" lon="4.40235">
        <ele>197</ele>
        <time>2024-03-07T14:00:42Z</time>
      </trkpt>
      <trkpt lat="50.31248" lon="4.40219">
        <ele>196.4</ele>
        <time>2024-03-07T14:00:45Z</time>
      </trkpt>
      <trkpt lat="50.3124" lon="4.4021">
        <ele>196</ele>
        <time>2024-03-07T14:00:47Z</time>
      </trkpt>
      <trkpt lat="50.31212" lon="4.40177">
        <ele>194.4</ele>
        <time>2024-03-07T14:00:53Z</time>
      </trkpt>
      <trkpt lat="50.3119" lon="4.4015">
        <ele>193</ele>
        <time>2024-03-07T14:00:58Z</time>
      </trkpt>
      <trkpt lat="50.31178" lon="4.40134">
        <ele>191.8</ele>
        <time>2024-03-07T14:01:01Z</time>
      </trkpt>
      <trkpt lat="50.3117" lon="4.40124">
        <ele>191.2</ele>
        <time>2024-03-07T14:01:03Z</time>
      </trkpt>
      <trkpt lat="50.3115" lon="4.40101">
        <ele>189.6</ele>
        <time>2024-03-07T14:01:08Z</time>
      </trkpt>
      <trkpt lat="50.31142" lon="4.40093">
        <ele>188.8</ele>
        <time>2024-03-07T14:01:10Z</time>
      </trkpt>
      <trkpt lat="50.31133" lon="4.40085">
        <ele>188.2</ele>
        <time>2024-03-07T14:01:12Z</time>
      </trkpt>
      <trkpt lat="50.31118" lon="4.40073">
        <ele>186.6</ele>
        <time>2024-03-07T14:01:16Z</time>
      </trkpt>
      <trkpt lat="50.31105" lon="4.40057">
        <ele>184.8</ele>
        <time>2024-03-07T14:01:21Z</time>
      </trkpt>
      <trkpt lat="50.31105" lon="4.4005">
        <ele>183.8</ele>
        <time>2024-03-07T14:01:23Z</time>
      </trkpt>
      <trkpt lat="50.31107" lon="4.40047">
        <ele>183.6</ele>
        <time>2024-03-07T14:01:24Z</time>
      </trkpt>
      <trkpt lat="50.31121" lon="4.40041">
        <ele>182.2</ele>
        <time>2024-03-07T14:01:28Z</time>
      </trkpt>
      <trkpt lat="50.31146" lon="4.4003">
        <ele>180.4</ele>
        <time>2024-03-07T14:01:33Z</time>
      </trkpt>
      <trkpt lat="50.31158" lon="4.40024">
        <ele>178.8</ele>
        <time>2024-03-07T14:01:36Z</time>
      </trkpt>
      <trkpt lat="50.31163" lon="4.40023">
        <ele>178.4</ele>
        <time>2024-03-07T14:01:37Z</time>
      </trkpt>
      <trkpt lat="50.31183" lon="4.40017">
        <ele>176</ele>
        <time>2024-03-07T14:01:42Z</time>
      </trkpt>
      <trkpt lat="50.31192" lon="4.40006">
        <ele>174.4</ele>
        <time>2024-03-07T14:01:45Z</time>
      </trkpt>
      <trkpt lat="50.31195" lon="4.39991">
        <ele>172.4</ele>
        <time>2024-03-07T14:01:48Z</time>
      </trkpt>
      <trkpt lat="50.31194" lon="4.39986">
        <ele>171.8</ele>
        <time>2024-03-07T14:01:49Z</time>
      </trkpt>
      <trkpt lat="50.31183" lon="4.39968">
        <ele>169.4</ele>
        <time>2024-03-07T14:01:53Z</time>
      </trkpt>
      <trkpt lat="50.31179" lon="4.39966">
        <ele>169</ele>
        <time>2024-03-07T14:01:54Z</time>
      </trkpt>
      <trkpt lat="50.31169" lon="4.39962">
        <ele>168</ele>
        <time>2024-03-07T14:01:56Z</time>
      </trkpt>
      <trkpt lat="50.31163" lon="4.39961">
        <ele>167.4</ele>
        <time>2024-03-07T14:01:57Z</time>
      </trkpt>
      <trkpt lat="50.31153" lon="4.39961">
        <ele>166.4</ele>
        <time>2024-03-07T14:01:59Z</time>
      </trkpt>
      <trkpt lat="50.31142" lon="4.39962">
        <ele>165.6</ele>
        <time>2024-03-07T14:02:01Z</time>
      </trkpt>
      <trkpt lat="50.31137" lon="4.39962">
        <ele>165</ele>
        <time>2024-03-07T14:02:02Z</time>
      </trkpt>
      <trkpt lat="50.31127" lon="4.39964">
        <ele>164</ele>
        <time>2024-03-07T14:02:04Z</time>
      </trkpt>
      <trkpt lat="50.31118" lon="4.39966">
        <ele>163</ele>
        <time>2024-03-07T14:02:06Z</time>
      </trkpt>
      <trkpt lat="50.31099" lon="4.39969">
        <ele>160.6</ele>
        <time>2024-03-07T14:02:11Z</time>
      </trkpt>
      <trkpt lat="50.31086" lon="4.39971">
        <ele>158.2</ele>
        <time>2024-03-07T14:02:17Z</time>
      </trkpt>
      <trkpt lat="50.31073" lon="4.39971">
        <ele>156.4</ele>
        <time>2024-03-07T14:02:22Z</time>
      </trkpt>
      <trkpt lat="50.31059" lon="4.39968">
        <ele>154.8</ele>
        <time>2024-03-07T14:02:27Z</time>
      </trkpt>
      <trkpt lat="50.31035" lon="4.39954">
        <ele>153</ele>
        <time>2024-03-07T14:02:33Z</time>
      </trkpt>
      <trkpt lat="50.31015" lon="4.39944">
        <ele>151.4</ele>
        <time>2024-03-07T14:02:39Z</time>
      </trkpt>
      <trkpt lat="50.30992" lon="4.39932">
        <ele>150.4</ele>
        <time>2024-03-07T14:02:46Z</time>
      </trkpt>
      <trkpt lat="50.30974" lon="4.39928">
        <ele>149.6</ele>
        <time>2024-03-07T14:02:52Z</time>
      </trkpt>
      <trkpt lat="50.30972" lon="4.39927">
        <ele>149.4</ele>
        <time>2024-03-07T14:02:53Z</time>
      </trkpt>
      <trkpt lat="50.30963" lon="4.39925">
        <ele>149.4</ele>
        <time>2024-03-07T14:02:56Z</time>
      </trkpt>
      <trkpt lat="50.30946" lon="4.39924">
        <ele>149</ele>
        <time>2024-03-07T14:03:01Z</time>
      </trkpt>
      <trkpt lat="50.30928" lon="4.39904">
        <ele>149</ele>
        <time>2024-03-07T14:03:07Z</time>
      </trkpt>
      <trkpt lat="50.30924" lon="4.39895">
        <ele>149</ele>
        <time>2024-03-07T14:03:09Z</time>
      </trkpt>
      <trkpt lat="50.30922" lon="4.39895">
        <ele>149</ele>
        <time>2024-03-07T14:03:10Z</time>
      </trkpt>
      <trkpt lat="50.3092" lon="4.39901">
        <ele>148.6</ele>
        <time>2024-03-07T14:03:13Z</time>
      </trkpt>
      <trkpt lat="50.30919" lon="4.39923">
        <ele>148.4</ele>
        <time>2024-03-07T14:03:19Z</time>
      </trkpt>
      <trkpt lat="50.30916" lon="4.39944">
        <ele>148</ele>
        <time>2024-03-07T14:03:25Z</time>
      </trkpt>
      <trkpt lat="50.30913" lon="4.39952">
        <ele>148.2</ele>
        <time>2024-03-07T14:03:27Z</time>
      </trkpt>
      <trkpt lat="50.30907" lon="4.39956">
        <ele>148.2</ele>
        <time>2024-03-07T14:03:29Z</time>
      </trkpt>
      <trkpt lat="50.3089" lon="4.39956">
        <ele>149.2</ele>
        <time>2024-03-07T14:03:34Z</time>
      </trkpt>
      <trkpt lat="50.30876" lon="4.39962">
        <ele>149</ele>
        <time>2024-03-07T14:03:39Z</time>
      </trkpt>
      <trkpt lat="50.30866" lon="4.39971">
        <ele>149.2</ele>
        <time>2024-03-07T14:03:44Z</time>
      </trkpt>
      <trkpt lat="50.30858" lon="4.39979">
        <ele>149.4</ele>
        <time>2024-03-07T14:03:48Z</time>
      </trkpt>
      <trkpt lat="50.30853" lon="4.39986">
        <ele>149.6</ele>
        <time>2024-03-07T14:03:51Z</time>
      </trkpt>
      <trkpt lat="50.3085" lon="4.39994">
        <ele>150</ele>
        <time>2024-03-07T14:03:56Z</time>
      </trkpt>
      <trkpt lat="50.30848" lon="4.39995">
        <ele>150.4</ele>
        <time>2024-03-07T14:04:01Z</time>
      </trkpt>
      <trkpt lat="50.30846" lon="4.39996">
        <ele>150.4</ele>
        <time>2024-03-07T14:04:02Z</time>
      </trkpt>
      <trkpt lat="50.30835" lon="4.40008">
        <ele>150.8</ele>
        <time>2024-03-07T14:04:07Z</time>
      </trkpt>
      <trkpt lat="50.30827" lon="4.40018">
        <ele>151.2</ele>
        <time>2024-03-07T14:04:11Z</time>
      </trkpt>
      <trkpt lat="50.30815" lon="4.40033">
        <ele>151.8</ele>
        <time>2024-03-07T14:04:16Z</time>
      </trkpt>
      <trkpt lat="50.30802" lon="4.40049">
        <ele>152.6</ele>
        <time>2024-03-07T14:04:22Z</time>
      </trkpt>
      <trkpt lat="50.30801" lon="4.40051">
        <ele>153</ele>
        <time>2024-03-07T14:04:26Z</time>
      </trkpt>
      <trkpt lat="50.30801" lon="4.40051">
        <ele>153.6</ele>
        <time>2024-03-07T14:04:34Z</time>
      </trkpt>
      <trkpt lat="50.30801" lon="4.40051">
        <ele>154.6</ele>
        <time>2024-03-07T14:04:46Z</time>
      </trkpt>
      <trkpt lat="50.30801" lon="4.40051">
        <ele>155</ele>
        <time>2024-03-07T14:04:52Z</time>
      </trkpt>
      <trkpt lat="50.30802" lon="4.40048">
        <ele>155.2</ele>
        <time>2024-03-07T14:04:53Z</time>
      </trkpt>
      <trkpt lat="50.30809" lon="4.40039">
        <ele>155.6</ele>
        <time>2024-03-07T14:04:56Z</time>
      </trkpt>
      <trkpt lat="50.30828" lon="4.40015">
        <ele>155.6</ele>
        <time>2024-03-07T14:05:02Z</time>
      </trkpt>
      <trkpt lat="50.30842" lon="4.39998">
        <ele>155.4</ele>
        <time>2024-03-07T14:05:08Z</time>
      </trkpt>
      <trkpt lat="50.30843" lon="4.39995">
        <ele>155.4</ele>
        <time>2024-03-07T14:05:13Z</time>
      </trkpt>
      <trkpt lat="50.30843" lon="4.39995">
        <ele>155.6</ele>
        <time>2024-03-07T14:05:26Z</time>
      </trkpt>
      <trkpt lat="50.30843" lon="4.39997">
        <ele>155.6</ele>
        <time>2024-03-07T14:05:32Z</time>
      </trkpt>
      <trkpt lat="50.30843" lon="4.39996">
        <ele>155.8</ele>
        <time>2024-03-07T14:05:38Z</time>
      </trkpt>
      <trkpt lat="50.30843" lon="4.39996">
        <ele>156</ele>
        <time>2024-03-07T14:06:06Z</time>
      </trkpt>
      <trkpt lat="50.30843" lon="4.39996">
        <ele>156.2</ele>
        <time>2024-03-07T14:06:29Z</time>
      </trkpt>
      <trkpt lat="50.30841" lon="4.39998">
        <ele>156.4</ele>
        <time>2024-03-07T14:06:55Z</time>
      </trkpt>
      <trkpt lat="50.30841" lon="4.39998">
        <ele>156.4</ele>
        <time>2024-03-07T14:07:17Z</time>
      </trkpt>
      <trkpt lat="50.30841" lon="4.39998">
        <ele>156.4</ele>
        <time>2024-03-07T14:07:44Z</time>
      </trkpt>
      <trkpt lat="50.30841" lon="4.39998">
        <ele>156.4</ele>
        <time>2024-03-07T14:08:09Z</time>
      </trkpt>
      <trkpt lat="50.30841" lon="4.39998">
        <ele>156.6</ele>
        <time>2024-03-07T14:08:33Z</time>
      </trkpt>
      <trkpt lat="50.30841" lon="4.39997">
        <ele>156.8</ele>
        <time>2024-03-07T14:08:55Z</time>
      </trkpt>
      <trkpt lat="50.30841" lon="4.39997">
        <ele>157</ele>
        <time>2024-03-07T14:09:16Z</time>
      </trkpt>
      <trkpt lat="50.30841" lon="4.39997">
        <ele>157</ele>
        <time>2024-03-07T14:09:37Z</time>
      </trkpt>
      <trkpt lat="50.30841" lon="4.39997">
        <ele>157.2</ele>
        <time>2024-03-07T14:09:55Z</time>
      </trkpt>
      <trkpt lat="50.30841" lon="4.39997">
        <ele>157.2</ele>
        <time>2024-03-07T14:10:12Z</time>
      </trkpt>
      <trkpt lat="50.3084" lon="4.39997">
        <ele>157.4</ele>
        <time>2024-03-07T14:10:35Z</time>
      </trkpt>
      <trkpt lat="50.30841" lon="4.39996">
        <ele>157.4</ele>
        <time>2024-03-07T14:11:01Z</time>
      </trkpt>
      <trkpt lat="50.30841" lon="4.39996">
        <ele>157.2</ele>
        <time>2024-03-07T14:11:21Z</time>
      </trkpt>
      <trkpt lat="50.30841" lon="4.39997">
        <ele>157.2</ele>
        <time>2024-03-07T14:11:35Z</time>
      </trkpt>
      <trkpt lat="50.30841" lon="4.39997">
        <ele>157</ele>
        <time>2024-03-07T14:11:53Z</time>
      </trkpt>
      <trkpt lat="50.30841" lon="4.39997">
        <ele>157</ele>
        <time>2024-03-07T14:12:07Z</time>
      </trkpt>
      <trkpt lat="50.3084" lon="4.4">
        <ele>157</ele>
        <time>2024-03-07T14:12:14Z</time>
      </trkpt>
      <trkpt lat="50.30831" lon="4.40013">
        <ele>157</ele>
        <time>2024-03-07T14:12:18Z</time>
      </trkpt>
      <trkpt lat="50.30811" lon="4.40038">
        <ele>157.2</ele>
        <time>2024-03-07T14:12:25Z</time>
      </trkpt>
      <trkpt lat="50.30794" lon="4.40059">
        <ele>157.6</ele>
        <time>2024-03-07T14:12:31Z</time>
      </trkpt>
      <trkpt lat="50.30779" lon="4.40082">
        <ele>158.4</ele>
        <time>2024-03-07T14:12:38Z</time>
      </trkpt>
      <trkpt lat="50.30764" lon="4.40099">
        <ele>159.6</ele>
        <time>2024-03-07T14:12:44Z</time>
      </trkpt>
      <trkpt lat="50.30753" lon="4.40113">
        <ele>160.6</ele>
        <time>2024-03-07T14:12:49Z</time>
      </trkpt>
      <trkpt lat="50.30736" lon="4.40131">
        <ele>162.2</ele>
        <time>2024-03-07T14:12:56Z</time>
      </trkpt>
      <trkpt lat="50.30725" lon="4.40138">
        <ele>163</ele>
        <time>2024-03-07T14:13:00Z</time>
      </trkpt>
      <trkpt lat="50.30712" lon="4.40149">
        <ele>164.4</ele>
        <time>2024-03-07T14:13:05Z</time>
      </trkpt>
      <trkpt lat="50.30694" lon="4.40165">
        <ele>166.2</ele>
        <time>2024-03-07T14:13:12Z</time>
      </trkpt>
      <trkpt lat="50.30674" lon="4.40183">
        <ele>168.2</ele>
        <time>2024-03-07T14:13:20Z</time>
      </trkpt>
      <trkpt lat="50.30661" lon="4.402">
        <ele>170</ele>
        <time>2024-03-07T14:13:26Z</time>
      </trkpt>
      <trkpt lat="50.30653" lon="4.40207">
        <ele>171</ele>
        <time>2024-03-07T14:13:30Z</time>
      </trkpt>
      <trkpt lat="50.30639" lon="4.40218">
        <ele>172.2</ele>
        <time>2024-03-07T14:13:35Z</time>
      </trkpt>
      <trkpt lat="50.30622" lon="4.40234">
        <ele>174.2</ele>
        <time>2024-03-07T14:13:42Z</time>
      </trkpt>
      <trkpt lat="50.30608" lon="4.40246">
        <ele>175.6</ele>
        <time>2024-03-07T14:13:48Z</time>
      </trkpt>
      <trkpt lat="50.30593" lon="4.40255">
        <ele>177.2</ele>
        <time>2024-03-07T14:13:54Z</time>
      </trkpt>
      <trkpt lat="50.30593" lon="4.40258">
        <ele>178</ele>
        <time>2024-03-07T14:13:57Z</time>
      </trkpt>
      <trkpt lat="50.30593" lon="4.40258">
        <ele>179.6</ele>
        <time>2024-03-07T14:14:05Z</time>
      </trkpt>
      <trkpt lat="50.30593" lon="4.40258">
        <ele>182</ele>
        <time>2024-03-07T14:14:18Z</time>
      </trkpt>
      <trkpt lat="50.30593" lon="4.40258">
        <ele>184.2</ele>
        <time>2024-03-07T14:14:32Z</time>
      </trkpt>
      <trkpt lat="50.30593" lon="4.40259">
        <ele>186</ele>
        <time>2024-03-07T14:14:46Z</time>
      </trkpt>
      <trkpt lat="50.30592" lon="4.40261">
        <ele>186.6</ele>
        <time>2024-03-07T14:14:51Z</time>
      </trkpt>
      <trkpt lat="50.30592" lon="4.40265">
        <ele>186.8</ele>
        <time>2024-03-07T14:14:52Z</time>
      </trkpt>
      <trkpt lat="50.30589" lon="4.40267">
        <ele>186.8</ele>
        <time>2024-03-07T14:14:53Z</time>
      </trkpt>
      <trkpt lat="50.30581" lon="4.40274">
        <ele>187.2</ele>
        <time>2024-03-07T14:14:56Z</time>
      </trkpt>
      <trkpt lat="50.30571" lon="4.4028">
        <ele>187.6</ele>
        <time>2024-03-07T14:14:59Z</time>
      </trkpt>
      <trkpt lat="50.30556" lon="4.40298">
        <ele>188.4</ele>
        <time>2024-03-07T14:15:05Z</time>
      </trkpt>
      <trkpt lat="50.30541" lon="4.40315">
        <ele>189.4</ele>
        <time>2024-03-07T14:15:11Z</time>
      </trkpt>
      <trkpt lat="50.3053" lon="4.4033">
        <ele>190.2</ele>
        <time>2024-03-07T14:15:16Z</time>
      </trkpt>
      <trkpt lat="50.30519" lon="4.40349">
        <ele>190.6</ele>
        <time>2024-03-07T14:15:21Z</time>
      </trkpt>
      <trkpt lat="50.30511" lon="4.40365">
        <ele>191</ele>
        <time>2024-03-07T14:15:25Z</time>
      </trkpt>
      <trkpt lat="50.305" lon="4.40391">
        <ele>191.4</ele>
        <time>2024-03-07T14:15:31Z</time>
      </trkpt>
      <trkpt lat="50.3049" lon="4.40413">
        <ele>191.8</ele>
        <time>2024-03-07T14:15:36Z</time>
      </trkpt>
      <trkpt lat="50.30481" lon="4.40434">
        <ele>192.2</ele>
        <time>2024-03-07T14:15:41Z</time>
      </trkpt>
      <trkpt lat="50.30475" lon="4.40452">
        <ele>192.2</ele>
        <time>2024-03-07T14:15:45Z</time>
      </trkpt>
      <trkpt lat="50.30461" lon="4.40478">
        <ele>192.4</ele>
        <time>2024-03-07T14:15:51Z</time>
      </trkpt>
      <trkpt lat="50.30451" lon="4.40498">
        <ele>192.4</ele>
        <time>2024-03-07T14:15:56Z</time>
      </trkpt>
      <trkpt lat="50.3044" lon="4.40518">
        <ele>192.6</ele>
        <time>2024-03-07T14:16:01Z</time>
      </trkpt>
      <trkpt lat="50.30425" lon="4.40539">
        <ele>192.8</ele>
        <time>2024-03-07T14:16:07Z</time>
      </trkpt>
      <trkpt lat="50.30417" lon="4.40552">
        <ele>193.2</ele>
        <time>2024-03-07T14:16:12Z</time>
      </trkpt>
      <trkpt lat="50.30409" lon="4.40558">
        <ele>193.6</ele>
        <time>2024-03-07T14:16:16Z</time>
      </trkpt>
      <trkpt lat="50.30409" lon="4.40558">
        <ele>194</ele>
        <time>2024-03-07T14:16:28Z</time>
      </trkpt>
      <trkpt lat="50.30409" lon="4.40561">
        <ele>194.2</ele>
        <time>2024-03-07T14:16:32Z</time>
      </trkpt>
      <trkpt lat="50.30409" lon="4.40563">
        <ele>194.2</ele>
        <time>2024-03-07T14:16:33Z</time>
      </trkpt>
      <trkpt lat="50.3041" lon="4.40566">
        <ele>194.6</ele>
        <time>2024-03-07T14:16:40Z</time>
      </trkpt>
      <trkpt lat="50.3041" lon="4.40566">
        <ele>195</ele>
        <time>2024-03-07T14:16:48Z</time>
      </trkpt>
      <trkpt lat="50.3041" lon="4.40572">
        <ele>195.2</ele>
        <time>2024-03-07T14:16:50Z</time>
      </trkpt>
      <trkpt lat="50.3041" lon="4.40574">
        <ele>195.4</ele>
        <time>2024-03-07T14:16:52Z</time>
      </trkpt>
      <trkpt lat="50.3041" lon="4.40574">
        <ele>195.8</ele>
        <time>2024-03-07T14:17:01Z</time>
      </trkpt>
      <trkpt lat="50.3041" lon="4.40574">
        <ele>196</ele>
        <time>2024-03-07T14:17:07Z</time>
      </trkpt>
      <trkpt lat="50.30408" lon="4.40578">
        <ele>196.2</ele>
        <time>2024-03-07T14:17:11Z</time>
      </trkpt>
      <trkpt lat="50.30408" lon="4.40578">
        <ele>196.4</ele>
        <time>2024-03-07T14:17:18Z</time>
      </trkpt>
      <trkpt lat="50.30408" lon="4.4058">
        <ele>196.8</ele>
        <time>2024-03-07T14:17:24Z</time>
      </trkpt>
      <trkpt lat="50.30405" lon="4.40587">
        <ele>196.8</ele>
        <time>2024-03-07T14:17:28Z</time>
      </trkpt>
      <trkpt lat="50.30399" lon="4.40593">
        <ele>196.8</ele>
        <time>2024-03-07T14:17:30Z</time>
      </trkpt>
      <trkpt lat="50.30392" lon="4.40608">
        <ele>197.2</ele>
        <time>2024-03-07T14:17:34Z</time>
      </trkpt>
      <trkpt lat="50.30385" lon="4.40625">
        <ele>197.8</ele>
        <time>2024-03-07T14:17:40Z</time>
      </trkpt>
      <trkpt lat="50.30383" lon="4.40634">
        <ele>198.4</ele>
        <time>2024-03-07T14:17:43Z</time>
      </trkpt>
      <trkpt lat="50.30382" lon="4.40637">
        <ele>198.4</ele>
        <time>2024-03-07T14:17:44Z</time>
      </trkpt>
      <trkpt lat="50.30374" lon="4.40651">
        <ele>198.6</ele>
        <time>2024-03-07T14:17:48Z</time>
      </trkpt>
      <trkpt lat="50.30372" lon="4.40653">
        <ele>198.6</ele>
        <time>2024-03-07T14:17:49Z</time>
      </trkpt>
      <trkpt lat="50.30368" lon="4.40659">
        <ele>199</ele>
        <time>2024-03-07T14:17:52Z</time>
      </trkpt>
      <trkpt lat="50.30367" lon="4.40662">
        <ele>199</ele>
        <time>2024-03-07T14:17:53Z</time>
      </trkpt>
      <trkpt lat="50.30357" lon="4.40677">
        <ele>199.8</ele>
        <time>2024-03-07T14:17:58Z</time>
      </trkpt>
      <trkpt lat="50.30345" lon="4.40698">
        <ele>200.4</ele>
        <time>2024-03-07T14:18:03Z</time>
      </trkpt>
      <trkpt lat="50.30337" lon="4.40718">
        <ele>200.8</ele>
        <time>2024-03-07T14:18:08Z</time>
      </trkpt>
      <trkpt lat="50.30336" lon="4.40725">
        <ele>201</ele>
        <time>2024-03-07T14:18:10Z</time>
      </trkpt>
      <trkpt lat="50.30333" lon="4.40729">
        <ele>201.2</ele>
        <time>2024-03-07T14:18:12Z</time>
      </trkpt>
      <trkpt lat="50.30326" lon="4.40737">
        <ele>201.4</ele>
        <time>2024-03-07T14:18:15Z</time>
      </trkpt>
      <trkpt lat="50.30324" lon="4.4074">
        <ele>201.4</ele>
        <time>2024-03-07T14:18:16Z</time>
      </trkpt>
      <trkpt lat="50.3032" lon="4.40744">
        <ele>201.4</ele>
        <time>2024-03-07T14:18:18Z</time>
      </trkpt>
      <trkpt lat="50.30319" lon="4.40749">
        <ele>201.4</ele>
        <time>2024-03-07T14:18:20Z</time>
      </trkpt>
      <trkpt lat="50.30319" lon="4.40749">
        <ele>202</ele>
        <time>2024-03-07T14:18:30Z</time>
      </trkpt>
      <trkpt lat="50.30319" lon="4.40749">
        <ele>202.8</ele>
        <time>2024-03-07T14:18:42Z</time>
      </trkpt>
      <trkpt lat="50.30319" lon="4.40749">
        <ele>203</ele>
        <time>2024-03-07T14:18:50Z</time>
      </trkpt>
      <trkpt lat="50.30319" lon="4.40749">
        <ele>203.4</ele>
        <time>2024-03-07T14:18:59Z</time>
      </trkpt>
      <trkpt lat="50.30318" lon="4.40754">
        <ele>203.6</ele>
        <time>2024-03-07T14:19:05Z</time>
      </trkpt>
      <trkpt lat="50.30311" lon="4.40768">
        <ele>203.8</ele>
        <time>2024-03-07T14:19:08Z</time>
      </trkpt>
      <trkpt lat="50.30299" lon="4.40787">
        <ele>204</ele>
        <time>2024-03-07T14:19:12Z</time>
      </trkpt>
      <trkpt lat="50.30289" lon="4.40804">
        <ele>204.6</ele>
        <time>2024-03-07T14:19:16Z</time>
      </trkpt>
      <trkpt lat="50.30277" lon="4.40824">
        <ele>204.8</ele>
        <time>2024-03-07T14:19:21Z</time>
      </trkpt>
      <trkpt lat="50.3027" lon="4.40842">
        <ele>205</ele>
        <time>2024-03-07T14:19:27Z</time>
      </trkpt>
      <trkpt lat="50.30263" lon="4.40852">
        <ele>205.4</ele>
        <time>2024-03-07T14:19:31Z</time>
      </trkpt>
      <trkpt lat="50.30259" lon="4.40862">
        <ele>205.8</ele>
        <time>2024-03-07T14:19:34Z</time>
      </trkpt>
      <trkpt lat="50.3025" lon="4.40877">
        <ele>206.2</ele>
        <time>2024-03-07T14:19:39Z</time>
      </trkpt>
      <trkpt lat="50.30248" lon="4.40883">
        <ele>206.4</ele>
        <time>2024-03-07T14:19:42Z</time>
      </trkpt>
      <trkpt lat="50.30247" lon="4.40883">
        <ele>207</ele>
        <time>2024-03-07T14:19:51Z</time>
      </trkpt>
      <trkpt lat="50.30246" lon="4.40887">
        <ele>207.4</ele>
        <time>2024-03-07T14:19:57Z</time>
      </trkpt>
      <trkpt lat="50.30247" lon="4.40894">
        <ele>207.8</ele>
        <time>2024-03-07T14:20:01Z</time>
      </trkpt>
      <trkpt lat="50.30247" lon="4.40894">
        <ele>208.4</ele>
        <time>2024-03-07T14:20:14Z</time>
      </trkpt>
      <trkpt lat="50.30247" lon="4.40894">
        <ele>209</ele>
        <time>2024-03-07T14:20:24Z</time>
      </trkpt>
      <trkpt lat="50.30239" lon="4.40905">
        <ele>209.2</ele>
        <time>2024-03-07T14:20:28Z</time>
      </trkpt>
      <trkpt lat="50.30231" lon="4.40912">
        <ele>209.2</ele>
        <time>2024-03-07T14:20:31Z</time>
      </trkpt>
      <trkpt lat="50.30227" lon="4.40919">
        <ele>209.2</ele>
        <time>2024-03-07T14:20:33Z</time>
      </trkpt>
      <trkpt lat="50.30226" lon="4.40924">
        <ele>209.4</ele>
        <time>2024-03-07T14:20:34Z</time>
      </trkpt>
      <trkpt lat="50.30225" lon="4.4093">
        <ele>209.4</ele>
        <time>2024-03-07T14:20:35Z</time>
      </trkpt>
      <trkpt lat="50.3022" lon="4.40939">
        <ele>209.4</ele>
        <time>2024-03-07T14:20:37Z</time>
      </trkpt>
      <trkpt lat="50.30214" lon="4.40954">
        <ele>209.4</ele>
        <time>2024-03-07T14:20:41Z</time>
      </trkpt>
      <trkpt lat="50.30204" lon="4.40971">
        <ele>209.2</ele>
        <time>2024-03-07T14:20:45Z</time>
      </trkpt>
      <trkpt lat="50.30194" lon="4.40991">
        <ele>209.4</ele>
        <time>2024-03-07T14:20:49Z</time>
      </trkpt>
      <trkpt lat="50.30184" lon="4.41006">
        <ele>208.8</ele>
        <time>2024-03-07T14:20:54Z</time>
      </trkpt>
      <trkpt lat="50.30179" lon="4.41012">
        <ele>208.8</ele>
        <time>2024-03-07T14:20:58Z</time>
      </trkpt>
      <trkpt lat="50.30177" lon="4.41013">
        <ele>208.8</ele>
        <time>2024-03-07T14:20:59Z</time>
      </trkpt>
      <trkpt lat="50.30175" lon="4.41015">
        <ele>208.8</ele>
        <time>2024-03-07T14:21:00Z</time>
      </trkpt>
      <trkpt lat="50.30171" lon="4.41021">
        <ele>208.6</ele>
        <time>2024-03-07T14:21:02Z</time>
      </trkpt>
      <trkpt lat="50.30164" lon="4.41045">
        <ele>208.6</ele>
        <time>2024-03-07T14:21:08Z</time>
      </trkpt>
      <trkpt lat="50.30155" lon="4.4106">
        <ele>208.6</ele>
        <time>2024-03-07T14:21:13Z</time>
      </trkpt>
      <trkpt lat="50.30155" lon="4.41061">
        <ele>208.6</ele>
        <time>2024-03-07T14:21:16Z</time>
      </trkpt>
      <trkpt lat="50.30154" lon="4.4106">
        <ele>208.6</ele>
        <time>2024-03-07T14:21:24Z</time>
      </trkpt>
      <trkpt lat="50.30154" lon="4.41061">
        <ele>208.2</ele>
        <time>2024-03-07T14:21:36Z</time>
      </trkpt>
      <trkpt lat="50.30154" lon="4.41061">
        <ele>208</ele>
        <time>2024-03-07T14:21:51Z</time>
      </trkpt>
      <trkpt lat="50.30154" lon="4.41061">
        <ele>208</ele>
        <time>2024-03-07T14:22:02Z</time>
      </trkpt>
      <trkpt lat="50.30154" lon="4.41061">
        <ele>207.8</ele>
        <time>2024-03-07T14:22:14Z</time>
      </trkpt>
      <trkpt lat="50.30154" lon="4.41061">
        <ele>207.6</ele>
        <time>2024-03-07T14:22:29Z</time>
      </trkpt>
      <trkpt lat="50.30154" lon="4.41061">
        <ele>207.6</ele>
        <time>2024-03-07T14:22:42Z</time>
      </trkpt>
      <trkpt lat="50.30154" lon="4.41061">
        <ele>207.4</ele>
        <time>2024-03-07T14:22:48Z</time>
      </trkpt>
      <trkpt lat="50.30154" lon="4.41061">
        <ele>207.2</ele>
        <time>2024-03-07T14:23:07Z</time>
      </trkpt>
      <trkpt lat="50.30153" lon="4.41062">
        <ele>207.4</ele>
        <time>2024-03-07T14:23:19Z</time>
      </trkpt>
      <trkpt lat="50.30149" lon="4.41074">
        <ele>207.4</ele>
        <time>2024-03-07T14:23:23Z</time>
      </trkpt>
      <trkpt lat="50.30141" lon="4.41091">
        <ele>207.4</ele>
        <time>2024-03-07T14:23:28Z</time>
      </trkpt>
      <trkpt lat="50.30133" lon="4.41107">
        <ele>207.4</ele>
        <time>2024-03-07T14:23:33Z</time>
      </trkpt>
      <trkpt lat="50.30127" lon="4.41119">
        <ele>207.6</ele>
        <time>2024-03-07T14:23:37Z</time>
      </trkpt>
      <trkpt lat="50.30119" lon="4.41133">
        <ele>207.6</ele>
        <time>2024-03-07T14:23:42Z</time>
      </trkpt>
      <trkpt lat="50.30111" lon="4.41144">
        <ele>207.8</ele>
        <time>2024-03-07T14:23:47Z</time>
      </trkpt>
      <trkpt lat="50.30108" lon="4.41149">
        <ele>207.8</ele>
        <time>2024-03-07T14:23:49Z</time>
      </trkpt>
      <trkpt lat="50.30105" lon="4.41155">
        <ele>207.8</ele>
        <time>2024-03-07T14:23:51Z</time>
      </trkpt>
      <trkpt lat="50.30097" lon="4.41171">
        <ele>208.2</ele>
        <time>2024-03-07T14:23:56Z</time>
      </trkpt>
      <trkpt lat="50.30089" lon="4.41188">
        <ele>208.2</ele>
        <time>2024-03-07T14:24:01Z</time>
      </trkpt>
      <trkpt lat="50.30079" lon="4.41202">
        <ele>208.2</ele>
        <time>2024-03-07T14:24:06Z</time>
      </trkpt>
      <trkpt lat="50.3007" lon="4.41216">
        <ele>208.2</ele>
        <time>2024-03-07T14:24:11Z</time>
      </trkpt>
      <trkpt lat="50.30064" lon="4.41228">
        <ele>208.2</ele>
        <time>2024-03-07T14:24:15Z</time>
      </trkpt>
      <trkpt lat="50.30061" lon="4.41231">
        <ele>208.4</ele>
        <time>2024-03-07T14:24:19Z</time>
      </trkpt>
      <trkpt lat="50.3006" lon="4.41234">
        <ele>208.2</ele>
        <time>2024-03-07T14:24:28Z</time>
      </trkpt>
      <trkpt lat="50.3006" lon="4.41234">
        <ele>208.2</ele>
        <time>2024-03-07T14:24:37Z</time>
      </trkpt>
      <trkpt lat="50.30062" lon="4.41241">
        <ele>208.6</ele>
        <time>2024-03-07T14:24:42Z</time>
      </trkpt>
      <trkpt lat="50.30059" lon="4.41246">
        <ele>209.2</ele>
        <time>2024-03-07T14:24:49Z</time>
      </trkpt>
      <trkpt lat="50.30057" lon="4.41248">
        <ele>209.8</ele>
        <time>2024-03-07T14:24:54Z</time>
      </trkpt>
      <trkpt lat="50.30057" lon="4.41249">
        <ele>210</ele>
        <time>2024-03-07T14:24:59Z</time>
      </trkpt>
      <trkpt lat="50.30056" lon="4.41255">
        <ele>210.2</ele>
        <time>2024-03-07T14:25:04Z</time>
      </trkpt>
      <trkpt lat="50.30054" lon="4.4126">
        <ele>210.4</ele>
        <time>2024-03-07T14:25:10Z</time>
      </trkpt>
      <trkpt lat="50.30052" lon="4.41265">
        <ele>210.6</ele>
        <time>2024-03-07T14:25:15Z</time>
      </trkpt>
      <trkpt lat="50.3005" lon="4.41264">
        <ele>210.6</ele>
        <time>2024-03-07T14:25:21Z</time>
      </trkpt>
      <trkpt lat="50.30041" lon="4.41259">
        <ele>210.6</ele>
        <time>2024-03-07T14:25:27Z</time>
      </trkpt>
      <trkpt lat="50.30034" lon="4.41261">
        <ele>210.2</ele>
        <time>2024-03-07T14:25:33Z</time>
      </trkpt>
      <trkpt lat="50.30029" lon="4.41262">
        <ele>210.2</ele>
        <time>2024-03-07T14:25:38Z</time>
      </trkpt>
      <trkpt lat="50.30029" lon="4.41265">
        <ele>209.8</ele>
        <time>2024-03-07T14:25:42Z</time>
      </trkpt>
      <trkpt lat="50.30024" lon="4.41271">
        <ele>209.8</ele>
        <time>2024-03-07T14:25:48Z</time>
      </trkpt>
      <trkpt lat="50.3002" lon="4.41274">
        <ele>210</ele>
        <time>2024-03-07T14:25:55Z</time>
      </trkpt>
      <trkpt lat="50.3002" lon="4.41274">
        <ele>209.8</ele>
        <time>2024-03-07T14:26:14Z</time>
      </trkpt>
      <trkpt lat="50.3002" lon="4.41274">
        <ele>209.6</ele>
        <time>2024-03-07T14:26:25Z</time>
      </trkpt>
      <trkpt lat="50.30019" lon="4.41273">
        <ele>209.6</ele>
        <time>2024-03-07T14:26:40Z</time>
      </trkpt>
      <trkpt lat="50.30019" lon="4.41273">
        <ele>209.6</ele>
        <time>2024-03-07T14:26:44Z</time>
      </trkpt>
      <trkpt lat="50.30019" lon="4.41273">
        <ele>209.6</ele>
        <time>2024-03-07T14:26:47Z</time>
      </trkpt>
      <trkpt lat="50.30016" lon="4.41278">
        <ele>209.6</ele>
        <time>2024-03-07T14:26:49Z</time>
      </trkpt>
      <trkpt lat="50.30008" lon="4.41286">
        <ele>209.4</ele>
        <time>2024-03-07T14:26:53Z</time>
      </trkpt>
      <trkpt lat="50.30009" lon="4.41286">
        <ele>209.4</ele>
        <time>2024-03-07T14:27:01Z</time>
      </trkpt>
      <trkpt lat="50.3001" lon="4.41287">
        <ele>209.2</ele>
        <time>2024-03-07T14:27:08Z</time>
      </trkpt>
      <trkpt lat="50.3001" lon="4.41287">
        <ele>209.2</ele>
        <time>2024-03-07T14:27:11Z</time>
      </trkpt>
      <trkpt lat="50.30012" lon="4.41285">
        <ele>209</ele>
        <time>2024-03-07T14:27:12Z</time>
      </trkpt>
      <trkpt lat="50.30014" lon="4.41275">
        <ele>209.2</ele>
        <time>2024-03-07T14:27:17Z</time>
      </trkpt>
      <trkpt lat="50.30014" lon="4.41274">
        <ele>209.6</ele>
        <time>2024-03-07T14:27:22Z</time>
      </trkpt>
      <trkpt lat="50.30015" lon="4.41273">
        <ele>209.6</ele>
        <time>2024-03-07T14:27:36Z</time>
      </trkpt>
      <trkpt lat="50.30015" lon="4.41273">
        <ele>209.8</ele>
        <time>2024-03-07T14:27:40Z</time>
      </trkpt>
      <trkpt lat="50.30011" lon="4.41263">
        <ele>209.8</ele>
        <time>2024-03-07T14:27:43Z</time>
      </trkpt>
      <trkpt lat="50.30002" lon="4.41248">
        <ele>210</ele>
        <time>2024-03-07T14:27:47Z</time>
      </trkpt>
      <trkpt lat="50.2999" lon="4.41234">
        <ele>210.2</ele>
        <time>2024-03-07T14:27:52Z</time>
      </trkpt>
      <trkpt lat="50.2998" lon="4.41219">
        <ele>210.4</ele>
        <time>2024-03-07T14:27:57Z</time>
      </trkpt>
      <trkpt lat="50.29969" lon="4.41202">
        <ele>210.6</ele>
        <time>2024-03-07T14:28:02Z</time>
      </trkpt>
      <trkpt lat="50.29955" lon="4.41185">
        <ele>210.8</ele>
        <time>2024-03-07T14:28:07Z</time>
      </trkpt>
      <trkpt lat="50.29945" lon="4.41172">
        <ele>211.2</ele>
        <time>2024-03-07T14:28:11Z</time>
      </trkpt>
      <trkpt lat="50.29933" lon="4.41156">
        <ele>211.6</ele>
        <time>2024-03-07T14:28:16Z</time>
      </trkpt>
      <trkpt lat="50.29922" lon="4.41144">
        <ele>211.8</ele>
        <time>2024-03-07T14:28:21Z</time>
      </trkpt>
      <trkpt lat="50.2991" lon="4.41126">
        <ele>212</ele>
        <time>2024-03-07T14:28:26Z</time>
      </trkpt>
      <trkpt lat="50.29896" lon="4.41109">
        <ele>212.2</ele>
        <time>2024-03-07T14:28:31Z</time>
      </trkpt>
      <trkpt lat="50.29879" lon="4.41083">
        <ele>212.2</ele>
        <time>2024-03-07T14:28:38Z</time>
      </trkpt>
      <trkpt lat="50.29869" lon="4.41069">
        <ele>212.2</ele>
        <time>2024-03-07T14:28:41Z</time>
      </trkpt>
      <trkpt lat="50.29861" lon="4.41057">
        <ele>212</ele>
        <time>2024-03-07T14:28:44Z</time>
      </trkpt>
      <trkpt lat="50.29852" lon="4.41042">
        <ele>211.6</ele>
        <time>2024-03-07T14:28:47Z</time>
      </trkpt>
      <trkpt lat="50.29849" lon="4.41037">
        <ele>211.6</ele>
        <time>2024-03-07T14:28:48Z</time>
      </trkpt>
      <trkpt lat="50.29829" lon="4.41004">
        <ele>211.6</ele>
        <time>2024-03-07T14:28:55Z</time>
      </trkpt>
      <trkpt lat="50.29809" lon="4.40972">
        <ele>211.2</ele>
        <time>2024-03-07T14:29:02Z</time>
      </trkpt>
      <trkpt lat="50.29806" lon="4.40968">
        <ele>211.2</ele>
        <time>2024-03-07T14:29:03Z</time>
      </trkpt>
      <trkpt lat="50.29797" lon="4.40952">
        <ele>211.2</ele>
        <time>2024-03-07T14:29:06Z</time>
      </trkpt>
      <trkpt lat="50.29782" lon="4.40923">
        <ele>211</ele>
        <time>2024-03-07T14:29:12Z</time>
      </trkpt>
      <trkpt lat="50.29767" lon="4.40896">
        <ele>210.6</ele>
        <time>2024-03-07T14:29:18Z</time>
      </trkpt>
      <trkpt lat="50.29757" lon="4.40869">
        <ele>210.2</ele>
        <time>2024-03-07T14:29:24Z</time>
      </trkpt>
      <trkpt lat="50.29746" lon="4.40841">
        <ele>210</ele>
        <time>2024-03-07T14:29:30Z</time>
      </trkpt>
      <trkpt lat="50.29737" lon="4.40809">
        <ele>209.6</ele>
        <time>2024-03-07T14:29:35Z</time>
      </trkpt>
      <trkpt lat="50.29724" lon="4.40761">
        <ele>209</ele>
        <time>2024-03-07T14:29:42Z</time>
      </trkpt>
      <trkpt lat="50.29714" lon="4.40731">
        <ele>208.4</ele>
        <time>2024-03-07T14:29:47Z</time>
      </trkpt>
      <trkpt lat="50.29712" lon="4.40726">
        <ele>208.4</ele>
        <time>2024-03-07T14:29:48Z</time>
      </trkpt>
      <trkpt lat="50.29708" lon="4.40722">
        <ele>208.2</ele>
        <time>2024-03-07T14:29:49Z</time>
      </trkpt>
      <trkpt lat="50.297" lon="4.40715">
        <ele>208</ele>
        <time>2024-03-07T14:29:51Z</time>
      </trkpt>
      <trkpt lat="50.29691" lon="4.40708">
        <ele>207.8</ele>
        <time>2024-03-07T14:29:53Z</time>
      </trkpt>
      <trkpt lat="50.2966" lon="4.40679">
        <ele>207</ele>
        <time>2024-03-07T14:30:01Z</time>
      </trkpt>
      <trkpt lat="50.29634" lon="4.40653">
        <ele>206.2</ele>
        <time>2024-03-07T14:30:09Z</time>
      </trkpt>
      <trkpt lat="50.29631" lon="4.40649">
        <ele>206.2</ele>
        <time>2024-03-07T14:30:10Z</time>
      </trkpt>
      <trkpt lat="50.29628" lon="4.40631">
        <ele>205.8</ele>
        <time>2024-03-07T14:30:13Z</time>
      </trkpt>
      <trkpt lat="50.2963" lon="4.40619">
        <ele>205.6</ele>
        <time>2024-03-07T14:30:15Z</time>
      </trkpt>
      <trkpt lat="50.29633" lon="4.40607">
        <ele>205.4</ele>
        <time>2024-03-07T14:30:17Z</time>
      </trkpt>
      <trkpt lat="50.29644" lon="4.40566">
        <ele>204.6</ele>
        <time>2024-03-07T14:30:24Z</time>
      </trkpt>
      <trkpt lat="50.29652" lon="4.40533">
        <ele>204</ele>
        <time>2024-03-07T14:30:30Z</time>
      </trkpt>
      <trkpt lat="50.2966" lon="4.40505">
        <ele>203.6</ele>
        <time>2024-03-07T14:30:36Z</time>
      </trkpt>
      <trkpt lat="50.29667" lon="4.40491">
        <ele>203.4</ele>
        <time>2024-03-07T14:30:40Z</time>
      </trkpt>
      <trkpt lat="50.29667" lon="4.40485">
        <ele>203.4</ele>
        <time>2024-03-07T14:30:41Z</time>
      </trkpt>
      <trkpt lat="50.29663" lon="4.4046">
        <ele>203</ele>
        <time>2024-03-07T14:30:46Z</time>
      </trkpt>
      <trkpt lat="50.29661" lon="4.4043">
        <ele>202.8</ele>
        <time>2024-03-07T14:30:53Z</time>
      </trkpt>
      <trkpt lat="50.29654" lon="4.40411">
        <ele>202.6</ele>
        <time>2024-03-07T14:30:58Z</time>
      </trkpt>
      <trkpt lat="50.29643" lon="4.40401">
        <ele>202.6</ele>
        <time>2024-03-07T14:31:01Z</time>
      </trkpt>
      <trkpt lat="50.29635" lon="4.40392">
        <ele>202.6</ele>
        <time>2024-03-07T14:31:03Z</time>
      </trkpt>
      <trkpt lat="50.29602" lon="4.4036">
        <ele>202</ele>
        <time>2024-03-07T14:31:10Z</time>
      </trkpt>
      <trkpt lat="50.2957" lon="4.40329">
        <ele>201.4</ele>
        <time>2024-03-07T14:31:16Z</time>
      </trkpt>
      <trkpt lat="50.29536" lon="4.40294">
        <ele>200.6</ele>
        <time>2024-03-07T14:31:23Z</time>
      </trkpt>
      <trkpt lat="50.29494" lon="4.40254">
        <ele>199.8</ele>
        <time>2024-03-07T14:31:31Z</time>
      </trkpt>
      <trkpt lat="50.2946" lon="4.4022">
        <ele>198.6</ele>
        <time>2024-03-07T14:31:37Z</time>
      </trkpt>
      <trkpt lat="50.29451" lon="4.40212">
        <ele>198.2</ele>
        <time>2024-03-07T14:31:39Z</time>
      </trkpt>
      <trkpt lat="50.29442" lon="4.40213">
        <ele>197.8</ele>
        <time>2024-03-07T14:31:41Z</time>
      </trkpt>
      <trkpt lat="50.29434" lon="4.40222">
        <ele>197.2</ele>
        <time>2024-03-07T14:31:43Z</time>
      </trkpt>
      <trkpt lat="50.29431" lon="4.40229">
        <ele>197</ele>
        <time>2024-03-07T14:31:44Z</time>
      </trkpt>
      <trkpt lat="50.29428" lon="4.40236">
        <ele>196.8</ele>
        <time>2024-03-07T14:31:45Z</time>
      </trkpt>
      <trkpt lat="50.29416" lon="4.40263">
        <ele>196</ele>
        <time>2024-03-07T14:31:49Z</time>
      </trkpt>
      <trkpt lat="50.29393" lon="4.4031">
        <ele>194.6</ele>
        <time>2024-03-07T14:31:56Z</time>
      </trkpt>
      <trkpt lat="50.29371" lon="4.40356">
        <ele>193.6</ele>
        <time>2024-03-07T14:32:02Z</time>
      </trkpt>
      <trkpt lat="50.29343" lon="4.40415">
        <ele>192.8</ele>
        <time>2024-03-07T14:32:09Z</time>
      </trkpt>
      <trkpt lat="50.2932" lon="4.40461">
        <ele>191.8</ele>
        <time>2024-03-07T14:32:15Z</time>
      </trkpt>
      <trkpt lat="50.29302" lon="4.40515">
        <ele>190.8</ele>
        <time>2024-03-07T14:32:22Z</time>
      </trkpt>
      <trkpt lat="50.29301" lon="4.40522">
        <ele>190.6</ele>
        <time>2024-03-07T14:32:23Z</time>
      </trkpt>
      <trkpt lat="50.29296" lon="4.4056">
        <ele>190.4</ele>
        <time>2024-03-07T14:32:28Z</time>
      </trkpt>
      <trkpt lat="50.29285" lon="4.40612">
        <ele>190</ele>
        <time>2024-03-07T14:32:35Z</time>
      </trkpt>
      <trkpt lat="50.29266" lon="4.40658">
        <ele>190.2</ele>
        <time>2024-03-07T14:32:42Z</time>
      </trkpt>
      <trkpt lat="50.29248" lon="4.40699">
        <ele>190.2</ele>
        <time>2024-03-07T14:32:48Z</time>
      </trkpt>
      <trkpt lat="50.29225" lon="4.4076">
        <ele>190.4</ele>
        <time>2024-03-07T14:32:57Z</time>
      </trkpt>
      <trkpt lat="50.29206" lon="4.40808">
        <ele>190.4</ele>
        <time>2024-03-07T14:33:04Z</time>
      </trkpt>
      <trkpt lat="50.29182" lon="4.40869">
        <ele>190.6</ele>
        <time>2024-03-07T14:33:13Z</time>
      </trkpt>
      <trkpt lat="50.2916" lon="4.40923">
        <ele>190.8</ele>
        <time>2024-03-07T14:33:21Z</time>
      </trkpt>
      <trkpt lat="50.29139" lon="4.40977">
        <ele>191.2</ele>
        <time>2024-03-07T14:33:29Z</time>
      </trkpt>
      <trkpt lat="50.29135" lon="4.40988">
        <ele>191.2</ele>
        <time>2024-03-07T14:33:31Z</time>
      </trkpt>
      <trkpt lat="50.2913" lon="4.40999">
        <ele>191.4</ele>
        <time>2024-03-07T14:33:33Z</time>
      </trkpt>
      <trkpt lat="50.29126" lon="4.41011">
        <ele>191.4</ele>
        <time>2024-03-07T14:33:35Z</time>
      </trkpt>
      <trkpt lat="50.29116" lon="4.41037">
        <ele>191.6</ele>
        <time>2024-03-07T14:33:40Z</time>
      </trkpt>
      <trkpt lat="50.29113" lon="4.41041">
        <ele>191.8</ele>
        <time>2024-03-07T14:33:41Z</time>
      </trkpt>
      <trkpt lat="50.29107" lon="4.41059">
        <ele>191.8</ele>
        <time>2024-03-07T14:33:45Z</time>
      </trkpt>
      <trkpt lat="50.29095" lon="4.41085">
        <ele>192</ele>
        <time>2024-03-07T14:33:50Z</time>
      </trkpt>
      <trkpt lat="50.29086" lon="4.41108">
        <ele>192</ele>
        <time>2024-03-07T14:33:54Z</time>
      </trkpt>
      <trkpt lat="50.29074" lon="4.41136">
        <ele>192.4</ele>
        <time>2024-03-07T14:34:00Z</time>
      </trkpt>
      <trkpt lat="50.2906" lon="4.41164">
        <ele>192.4</ele>
        <time>2024-03-07T14:34:06Z</time>
      </trkpt>
      <trkpt lat="50.29036" lon="4.41207">
        <ele>192.4</ele>
        <time>2024-03-07T14:34:12Z</time>
      </trkpt>
      <trkpt lat="50.29015" lon="4.41264">
        <ele>191.8</ele>
        <time>2024-03-07T14:34:18Z</time>
      </trkpt>
      <trkpt lat="50.29012" lon="4.41286">
        <ele>191.6</ele>
        <time>2024-03-07T14:34:20Z</time>
      </trkpt>
      <trkpt lat="50.29013" lon="4.41298">
        <ele>191.4</ele>
        <time>2024-03-07T14:34:21Z</time>
      </trkpt>
      <trkpt lat="50.29022" lon="4.41366">
        <ele>190.8</ele>
        <time>2024-03-07T14:34:27Z</time>
      </trkpt>
      <trkpt lat="50.29023" lon="4.41376">
        <ele>190.6</ele>
        <time>2024-03-07T14:34:28Z</time>
      </trkpt>
      <trkpt lat="50.29022" lon="4.41397">
        <ele>190.4</ele>
        <time>2024-03-07T14:34:30Z</time>
      </trkpt>
      <trkpt lat="50.29021" lon="4.41407">
        <ele>190.4</ele>
        <time>2024-03-07T14:34:31Z</time>
      </trkpt>
      <trkpt lat="50.29019" lon="4.41415">
        <ele>190.2</ele>
        <time>2024-03-07T14:34:32Z</time>
      </trkpt>
      <trkpt lat="50.29009" lon="4.41448">
        <ele>190</ele>
        <time>2024-03-07T14:34:36Z</time>
      </trkpt>
      <trkpt lat="50.28995" lon="4.41496">
        <ele>190</ele>
        <time>2024-03-07T14:34:43Z</time>
      </trkpt>
      <trkpt lat="50.28977" lon="4.41553">
        <ele>191.2</ele>
        <time>2024-03-07T14:34:53Z</time>
      </trkpt>
      <trkpt lat="50.28961" lon="4.41603">
        <ele>191.6</ele>
        <time>2024-03-07T14:35:02Z</time>
      </trkpt>
      <trkpt lat="50.28944" lon="4.41656">
        <ele>193</ele>
        <time>2024-03-07T14:35:12Z</time>
      </trkpt>
      <trkpt lat="50.2894" lon="4.41667">
        <ele>193.2</ele>
        <time>2024-03-07T14:35:14Z</time>
      </trkpt>
      <trkpt lat="50.28936" lon="4.41678">
        <ele>193.4</ele>
        <time>2024-03-07T14:35:16Z</time>
      </trkpt>
      <trkpt lat="50.28934" lon="4.41684">
        <ele>193.6</ele>
        <time>2024-03-07T14:35:17Z</time>
      </trkpt>
      <trkpt lat="50.28925" lon="4.4173">
        <ele>195</ele>
        <time>2024-03-07T14:35:25Z</time>
      </trkpt>
      <trkpt lat="50.28919" lon="4.41778">
        <ele>196.4</ele>
        <time>2024-03-07T14:35:33Z</time>
      </trkpt>
      <trkpt lat="50.28912" lon="4.41829">
        <ele>197.8</ele>
        <time>2024-03-07T14:35:41Z</time>
      </trkpt>
      <trkpt lat="50.28905" lon="4.41878">
        <ele>199</ele>
        <time>2024-03-07T14:35:49Z</time>
      </trkpt>
      <trkpt lat="50.28897" lon="4.41928">
        <ele>200.4</ele>
        <time>2024-03-07T14:35:57Z</time>
      </trkpt>
      <trkpt lat="50.28894" lon="4.41941">
        <ele>200.6</ele>
        <time>2024-03-07T14:35:59Z</time>
      </trkpt>
      <trkpt lat="50.2889" lon="4.41958">
        <ele>201</ele>
        <time>2024-03-07T14:36:02Z</time>
      </trkpt>
      <trkpt lat="50.28883" lon="4.41987">
        <ele>201.8</ele>
        <time>2024-03-07T14:36:07Z</time>
      </trkpt>
      <trkpt lat="50.28876" lon="4.42008">
        <ele>202.6</ele>
        <time>2024-03-07T14:36:12Z</time>
      </trkpt>
      <trkpt lat="50.28869" lon="4.42025">
        <ele>203.2</ele>
        <time>2024-03-07T14:36:16Z</time>
      </trkpt>
      <trkpt lat="50.28868" lon="4.42028">
        <ele>203.2</ele>
        <time>2024-03-07T14:36:17Z</time>
      </trkpt>
      <trkpt lat="50.28868" lon="4.42029">
        <ele>203.8</ele>
        <time>2024-03-07T14:36:21Z</time>
      </trkpt>
      <trkpt lat="50.28868" lon="4.42029">
        <ele>205.6</ele>
        <time>2024-03-07T14:36:38Z</time>
      </trkpt>
      <trkpt lat="50.28869" lon="4.42032">
        <ele>206.6</ele>
        <time>2024-03-07T14:36:49Z</time>
      </trkpt>
      <trkpt lat="50.2887" lon="4.42061">
        <ele>207</ele>
        <time>2024-03-07T14:36:54Z</time>
      </trkpt>
      <trkpt lat="50.28871" lon="4.42089">
        <ele>207.4</ele>
        <time>2024-03-07T14:37:00Z</time>
      </trkpt>
      <trkpt lat="50.28873" lon="4.42124">
        <ele>207.6</ele>
        <time>2024-03-07T14:37:06Z</time>
      </trkpt>
      <trkpt lat="50.28874" lon="4.4213">
        <ele>207.6</ele>
        <time>2024-03-07T14:37:07Z</time>
      </trkpt>
      <trkpt lat="50.28878" lon="4.42159">
        <ele>207.8</ele>
        <time>2024-03-07T14:37:11Z</time>
      </trkpt>
      <trkpt lat="50.28888" lon="4.42221">
        <ele>207.8</ele>
        <time>2024-03-07T14:37:19Z</time>
      </trkpt>
      <trkpt lat="50.28894" lon="4.42251">
        <ele>207.8</ele>
        <time>2024-03-07T14:37:24Z</time>
      </trkpt>
      <trkpt lat="50.289" lon="4.4227">
        <ele>207.4</ele>
        <time>2024-03-07T14:37:30Z</time>
      </trkpt>
      <trkpt lat="50.28902" lon="4.42281">
        <ele>207.2</ele>
        <time>2024-03-07T14:37:35Z</time>
      </trkpt>
      <trkpt lat="50.28903" lon="4.42282">
        <ele>207.2</ele>
        <time>2024-03-07T14:37:36Z</time>
      </trkpt>
      <trkpt lat="50.28914" lon="4.42277">
        <ele>207</ele>
        <time>2024-03-07T14:37:41Z</time>
      </trkpt>
      <trkpt lat="50.28931" lon="4.42271">
        <ele>206.8</ele>
        <time>2024-03-07T14:37:47Z</time>
      </trkpt>
      <trkpt lat="50.28955" lon="4.4226">
        <ele>206.6</ele>
        <time>2024-03-07T14:37:56Z</time>
      </trkpt>
      <trkpt lat="50.28969" lon="4.42251">
        <ele>206.4</ele>
        <time>2024-03-07T14:38:01Z</time>
      </trkpt>
      <trkpt lat="50.28989" lon="4.42235">
        <ele>206.4</ele>
        <time>2024-03-07T14:38:07Z</time>
      </trkpt>
      <trkpt lat="50.29012" lon="4.42214">
        <ele>206.8</ele>
        <time>2024-03-07T14:38:15Z</time>
      </trkpt>
      <trkpt lat="50.29029" lon="4.422">
        <ele>207</ele>
        <time>2024-03-07T14:38:21Z</time>
      </trkpt>
      <trkpt lat="50.29044" lon="4.42188">
        <ele>207.4</ele>
        <time>2024-03-07T14:38:27Z</time>
      </trkpt>
      <trkpt lat="50.2906" lon="4.42177">
        <ele>208</ele>
        <time>2024-03-07T14:38:33Z</time>
      </trkpt>
      <trkpt lat="50.29074" lon="4.42167">
        <ele>208.4</ele>
        <time>2024-03-07T14:38:38Z</time>
      </trkpt>
      <trkpt lat="50.29088" lon="4.42158">
        <ele>208.8</ele>
        <time>2024-03-07T14:38:43Z</time>
      </trkpt>
      <trkpt lat="50.29103" lon="4.4215">
        <ele>209.2</ele>
        <time>2024-03-07T14:38:48Z</time>
      </trkpt>
      <trkpt lat="50.29117" lon="4.42142">
        <ele>209.6</ele>
        <time>2024-03-07T14:38:53Z</time>
      </trkpt>
      <trkpt lat="50.29138" lon="4.4213">
        <ele>210.2</ele>
        <time>2024-03-07T14:39:02Z</time>
      </trkpt>
      <trkpt lat="50.29151" lon="4.42123">
        <ele>210.6</ele>
        <time>2024-03-07T14:39:07Z</time>
      </trkpt>
      <trkpt lat="50.29168" lon="4.42112">
        <ele>210.8</ele>
        <time>2024-03-07T14:39:13Z</time>
      </trkpt>
      <trkpt lat="50.29187" lon="4.42102">
        <ele>211</ele>
        <time>2024-03-07T14:39:19Z</time>
      </trkpt>
      <trkpt lat="50.29206" lon="4.42095">
        <ele>211.2</ele>
        <time>2024-03-07T14:39:24Z</time>
      </trkpt>
      <trkpt lat="50.29227" lon="4.42093">
        <ele>211.2</ele>
        <time>2024-03-07T14:39:30Z</time>
      </trkpt>
      <trkpt lat="50.29248" lon="4.42091">
        <ele>211.2</ele>
        <time>2024-03-07T14:39:35Z</time>
      </trkpt>
      <trkpt lat="50.29274" lon="4.42087">
        <ele>211.4</ele>
        <time>2024-03-07T14:39:42Z</time>
      </trkpt>
      <trkpt lat="50.29298" lon="4.42078">
        <ele>211.4</ele>
        <time>2024-03-07T14:39:49Z</time>
      </trkpt>
      <trkpt lat="50.2931" lon="4.42071">
        <ele>211</ele>
        <time>2024-03-07T14:39:52Z</time>
      </trkpt>
      <trkpt lat="50.29317" lon="4.42064">
        <ele>211</ele>
        <time>2024-03-07T14:39:54Z</time>
      </trkpt>
      <trkpt lat="50.29335" lon="4.42042">
        <ele>210.6</ele>
        <time>2024-03-07T14:40:00Z</time>
      </trkpt>
      <trkpt lat="50.29351" lon="4.42023">
        <ele>210.2</ele>
        <time>2024-03-07T14:40:05Z</time>
      </trkpt>
      <trkpt lat="50.29367" lon="4.42006">
        <ele>209.6</ele>
        <time>2024-03-07T14:40:10Z</time>
      </trkpt>
      <trkpt lat="50.29383" lon="4.41985">
        <ele>209</ele>
        <time>2024-03-07T14:40:16Z</time>
      </trkpt>
      <trkpt lat="50.29396" lon="4.41969">
        <ele>208.8</ele>
        <time>2024-03-07T14:40:20Z</time>
      </trkpt>
      <trkpt lat="50.29411" lon="4.41949">
        <ele>208.6</ele>
        <time>2024-03-07T14:40:25Z</time>
      </trkpt>
      <trkpt lat="50.29418" lon="4.41942">
        <ele>208.6</ele>
        <time>2024-03-07T14:40:27Z</time>
      </trkpt>
      <trkpt lat="50.29429" lon="4.41932">
        <ele>208.6</ele>
        <time>2024-03-07T14:40:30Z</time>
      </trkpt>
      <trkpt lat="50.29445" lon="4.41919">
        <ele>208.6</ele>
        <time>2024-03-07T14:40:35Z</time>
      </trkpt>
      <trkpt lat="50.29454" lon="4.41915">
        <ele>208.6</ele>
        <time>2024-03-07T14:40:37Z</time>
      </trkpt>
      <trkpt lat="50.29461" lon="4.4191">
        <ele>208.6</ele>
        <time>2024-03-07T14:40:39Z</time>
      </trkpt>
      <trkpt lat="50.29469" lon="4.41904">
        <ele>208.6</ele>
        <time>2024-03-07T14:40:41Z</time>
      </trkpt>
      <trkpt lat="50.29479" lon="4.41895">
        <ele>209.2</ele>
        <time>2024-03-07T14:40:44Z</time>
      </trkpt>
      <trkpt lat="50.29493" lon="4.41885">
        <ele>209.8</ele>
        <time>2024-03-07T14:40:48Z</time>
      </trkpt>
      <trkpt lat="50.2951" lon="4.4187">
        <ele>210.6</ele>
        <time>2024-03-07T14:40:53Z</time>
      </trkpt>
      <trkpt lat="50.29524" lon="4.4186">
        <ele>210.8</ele>
        <time>2024-03-07T14:40:58Z</time>
      </trkpt>
      <trkpt lat="50.2953" lon="4.41857">
        <ele>211</ele>
        <time>2024-03-07T14:41:00Z</time>
      </trkpt>
      <trkpt lat="50.29536" lon="4.41853">
        <ele>211</ele>
        <time>2024-03-07T14:41:02Z</time>
      </trkpt>
      <trkpt lat="50.29548" lon="4.41844">
        <ele>211.2</ele>
        <time>2024-03-07T14:41:06Z</time>
      </trkpt>
      <trkpt lat="50.29553" lon="4.41837">
        <ele>211.4</ele>
        <time>2024-03-07T14:41:09Z</time>
      </trkpt>
      <trkpt lat="50.29562" lon="4.41833">
        <ele>211.6</ele>
        <time>2024-03-07T14:41:12Z</time>
      </trkpt>
      <trkpt lat="50.29565" lon="4.4183">
        <ele>211.6</ele>
        <time>2024-03-07T14:41:13Z</time>
      </trkpt>
      <trkpt lat="50.29586" lon="4.41815">
        <ele>212.2</ele>
        <time>2024-03-07T14:41:19Z</time>
      </trkpt>
      <trkpt lat="50.29593" lon="4.41808">
        <ele>212.4</ele>
        <time>2024-03-07T14:41:21Z</time>
      </trkpt>
      <trkpt lat="50.29606" lon="4.418">
        <ele>212.8</ele>
        <time>2024-03-07T14:41:24Z</time>
      </trkpt>
      <trkpt lat="50.2962" lon="4.41787">
        <ele>213.2</ele>
        <time>2024-03-07T14:41:28Z</time>
      </trkpt>
      <trkpt lat="50.2964" lon="4.4177">
        <ele>213.8</ele>
        <time>2024-03-07T14:41:34Z</time>
      </trkpt>
      <trkpt lat="50.29649" lon="4.4176">
        <ele>214.2</ele>
        <time>2024-03-07T14:41:37Z</time>
      </trkpt>
      <trkpt lat="50.29662" lon="4.41744">
        <ele>214.6</ele>
        <time>2024-03-07T14:41:41Z</time>
      </trkpt>
      <trkpt lat="50.29666" lon="4.4174">
        <ele>214.6</ele>
        <time>2024-03-07T14:41:42Z</time>
      </trkpt>
      <trkpt lat="50.29675" lon="4.4173">
        <ele>214.8</ele>
        <time>2024-03-07T14:41:44Z</time>
      </trkpt>
      <trkpt lat="50.29679" lon="4.41725">
        <ele>214.8</ele>
        <time>2024-03-07T14:41:45Z</time>
      </trkpt>
      <trkpt lat="50.29698" lon="4.41692">
        <ele>214.6</ele>
        <time>2024-03-07T14:41:50Z</time>
      </trkpt>
      <trkpt lat="50.29709" lon="4.41672">
        <ele>214.6</ele>
        <time>2024-03-07T14:41:53Z</time>
      </trkpt>
      <trkpt lat="50.29711" lon="4.41668">
        <ele>214.6</ele>
        <time>2024-03-07T14:41:54Z</time>
      </trkpt>
      <trkpt lat="50.29722" lon="4.41649">
        <ele>214.6</ele>
        <time>2024-03-07T14:41:58Z</time>
      </trkpt>
      <trkpt lat="50.29725" lon="4.41645">
        <ele>214.6</ele>
        <time>2024-03-07T14:41:59Z</time>
      </trkpt>
      <trkpt lat="50.29741" lon="4.41641">
        <ele>214.6</ele>
        <time>2024-03-07T14:42:03Z</time>
      </trkpt>
      <trkpt lat="50.29745" lon="4.41641">
        <ele>215</ele>
        <time>2024-03-07T14:42:04Z</time>
      </trkpt>
      <trkpt lat="50.29754" lon="4.41642">
        <ele>214.2</ele>
        <time>2024-03-07T14:42:06Z</time>
      </trkpt>
      <trkpt lat="50.29765" lon="4.41642">
        <ele>214.2</ele>
        <time>2024-03-07T14:42:08Z</time>
      </trkpt>
      <trkpt lat="50.29781" lon="4.41643">
        <ele>214.4</ele>
        <time>2024-03-07T14:42:11Z</time>
      </trkpt>
      <trkpt lat="50.29811" lon="4.41646">
        <ele>214.2</ele>
        <time>2024-03-07T14:42:18Z</time>
      </trkpt>
      <trkpt lat="50.29821" lon="4.41648">
        <ele>214.2</ele>
        <time>2024-03-07T14:42:20Z</time>
      </trkpt>
      <trkpt lat="50.2983" lon="4.41651">
        <ele>214.2</ele>
        <time>2024-03-07T14:42:22Z</time>
      </trkpt>
      <trkpt lat="50.2984" lon="4.41654">
        <ele>214</ele>
        <time>2024-03-07T14:42:24Z</time>
      </trkpt>
      <trkpt lat="50.2985" lon="4.41654">
        <ele>214</ele>
        <time>2024-03-07T14:42:26Z</time>
      </trkpt>
      <trkpt lat="50.29862" lon="4.41655">
        <ele>213.8</ele>
        <time>2024-03-07T14:42:28Z</time>
      </trkpt>
      <trkpt lat="50.29867" lon="4.41657">
        <ele>213.8</ele>
        <time>2024-03-07T14:42:29Z</time>
      </trkpt>
      <trkpt lat="50.2989" lon="4.41663">
        <ele>213.6</ele>
        <time>2024-03-07T14:42:33Z</time>
      </trkpt>
      <trkpt lat="50.29918" lon="4.4167">
        <ele>213</ele>
        <time>2024-03-07T14:42:38Z</time>
      </trkpt>
      <trkpt lat="50.29935" lon="4.41674">
        <ele>212.6</ele>
        <time>2024-03-07T14:42:41Z</time>
      </trkpt>
      <trkpt lat="50.29946" lon="4.41676">
        <ele>212.4</ele>
        <time>2024-03-07T14:42:43Z</time>
      </trkpt>
      <trkpt lat="50.29966" lon="4.41679">
        <ele>212</ele>
        <time>2024-03-07T14:42:47Z</time>
      </trkpt>
      <trkpt lat="50.29998" lon="4.41686">
        <ele>211.2</ele>
        <time>2024-03-07T14:42:54Z</time>
      </trkpt>
      <trkpt lat="50.30018" lon="4.4169">
        <ele>210.4</ele>
        <time>2024-03-07T14:42:59Z</time>
      </trkpt>
      <trkpt lat="50.30027" lon="4.41691">
        <ele>210.2</ele>
        <time>2024-03-07T14:43:01Z</time>
      </trkpt>
      <trkpt lat="50.30035" lon="4.41693">
        <ele>209.8</ele>
        <time>2024-03-07T14:43:03Z</time>
      </trkpt>
      <trkpt lat="50.3006" lon="4.41694">
        <ele>209</ele>
        <time>2024-03-07T14:43:08Z</time>
      </trkpt>
      <trkpt lat="50.30065" lon="4.41695">
        <ele>209</ele>
        <time>2024-03-07T14:43:09Z</time>
      </trkpt>
      <trkpt lat="50.30074" lon="4.41696">
        <ele>208.6</ele>
        <time>2024-03-07T14:43:11Z</time>
      </trkpt>
      <trkpt lat="50.30083" lon="4.41697">
        <ele>208.4</ele>
        <time>2024-03-07T14:43:13Z</time>
      </trkpt>
      <trkpt lat="50.30088" lon="4.41697">
        <ele>208.2</ele>
        <time>2024-03-07T14:43:14Z</time>
      </trkpt>
      <trkpt lat="50.30101" lon="4.417">
        <ele>207.8</ele>
        <time>2024-03-07T14:43:17Z</time>
      </trkpt>
      <trkpt lat="50.3011" lon="4.41703">
        <ele>207.6</ele>
        <time>2024-03-07T14:43:19Z</time>
      </trkpt>
      <trkpt lat="50.3012" lon="4.41715">
        <ele>207.2</ele>
        <time>2024-03-07T14:43:22Z</time>
      </trkpt>
      <trkpt lat="50.30126" lon="4.41726">
        <ele>206.8</ele>
        <time>2024-03-07T14:43:24Z</time>
      </trkpt>
      <trkpt lat="50.30127" lon="4.41733">
        <ele>206.8</ele>
        <time>2024-03-07T14:43:25Z</time>
      </trkpt>
      <trkpt lat="50.30133" lon="4.41751">
        <ele>206.2</ele>
        <time>2024-03-07T14:43:28Z</time>
      </trkpt>
      <trkpt lat="50.30135" lon="4.41757">
        <ele>206</ele>
        <time>2024-03-07T14:43:29Z</time>
      </trkpt>
      <trkpt lat="50.30137" lon="4.41763">
        <ele>205.8</ele>
        <time>2024-03-07T14:43:30Z</time>
      </trkpt>
      <trkpt lat="50.30139" lon="4.41773">
        <ele>205.6</ele>
        <time>2024-03-07T14:43:32Z</time>
      </trkpt>
      <trkpt lat="50.30141" lon="4.41778">
        <ele>205.4</ele>
        <time>2024-03-07T14:43:33Z</time>
      </trkpt>
      <trkpt lat="50.30145" lon="4.4179">
        <ele>204.8</ele>
        <time>2024-03-07T14:43:35Z</time>
      </trkpt>
      <trkpt lat="50.30149" lon="4.41803">
        <ele>204.6</ele>
        <time>2024-03-07T14:43:37Z</time>
      </trkpt>
      <trkpt lat="50.30154" lon="4.41825">
        <ele>204.2</ele>
        <time>2024-03-07T14:43:40Z</time>
      </trkpt>
      <trkpt lat="50.3016" lon="4.41848">
        <ele>203.6</ele>
        <time>2024-03-07T14:43:44Z</time>
      </trkpt>
      <trkpt lat="50.30164" lon="4.41868">
        <ele>202.6</ele>
        <time>2024-03-07T14:43:49Z</time>
      </trkpt>
      <trkpt lat="50.30169" lon="4.41885">
        <ele>202.2</ele>
        <time>2024-03-07T14:43:53Z</time>
      </trkpt>
      <trkpt lat="50.30175" lon="4.41899">
        <ele>201.4</ele>
        <time>2024-03-07T14:43:56Z</time>
      </trkpt>
      <trkpt lat="50.30176" lon="4.41904">
        <ele>201.2</ele>
        <time>2024-03-07T14:43:57Z</time>
      </trkpt>
      <trkpt lat="50.30179" lon="4.41922">
        <ele>200.4</ele>
        <time>2024-03-07T14:44:00Z</time>
      </trkpt>
      <trkpt lat="50.30178" lon="4.41929">
        <ele>200.2</ele>
        <time>2024-03-07T14:44:01Z</time>
      </trkpt>
      <trkpt lat="50.30178" lon="4.41937">
        <ele>200</ele>
        <time>2024-03-07T14:44:02Z</time>
      </trkpt>
      <trkpt lat="50.30173" lon="4.41952">
        <ele>199.6</ele>
        <time>2024-03-07T14:44:04Z</time>
      </trkpt>
      <trkpt lat="50.30165" lon="4.41969">
        <ele>199</ele>
        <time>2024-03-07T14:44:07Z</time>
      </trkpt>
      <trkpt lat="50.30162" lon="4.41974">
        <ele>198.8</ele>
        <time>2024-03-07T14:44:08Z</time>
      </trkpt>
      <trkpt lat="50.30147" lon="4.41994">
        <ele>198.2</ele>
        <time>2024-03-07T14:44:13Z</time>
      </trkpt>
      <trkpt lat="50.30134" lon="4.42014">
        <ele>197.6</ele>
        <time>2024-03-07T14:44:18Z</time>
      </trkpt>
      <trkpt lat="50.30125" lon="4.42028">
        <ele>196.8</ele>
        <time>2024-03-07T14:44:22Z</time>
      </trkpt>
      <trkpt lat="50.30116" lon="4.42051">
        <ele>196.4</ele>
        <time>2024-03-07T14:44:27Z</time>
      </trkpt>
      <trkpt lat="50.30114" lon="4.42056">
        <ele>196.4</ele>
        <time>2024-03-07T14:44:28Z</time>
      </trkpt>
      <trkpt lat="50.30109" lon="4.42073">
        <ele>196.4</ele>
        <time>2024-03-07T14:44:31Z</time>
      </trkpt>
      <trkpt lat="50.30107" lon="4.42079">
        <ele>196.2</ele>
        <time>2024-03-07T14:44:32Z</time>
      </trkpt>
      <trkpt lat="50.30104" lon="4.4209">
        <ele>196.2</ele>
        <time>2024-03-07T14:44:34Z</time>
      </trkpt>
      <trkpt lat="50.30097" lon="4.42114">
        <ele>196.2</ele>
        <time>2024-03-07T14:44:39Z</time>
      </trkpt>
      <trkpt lat="50.30089" lon="4.42137">
        <ele>196.4</ele>
        <time>2024-03-07T14:44:44Z</time>
      </trkpt>
      <trkpt lat="50.30084" lon="4.42158">
        <ele>197</ele>
        <time>2024-03-07T14:44:48Z</time>
      </trkpt>
      <trkpt lat="50.30081" lon="4.42185">
        <ele>197</ele>
        <time>2024-03-07T14:44:53Z</time>
      </trkpt>
      <trkpt lat="50.3008" lon="4.42189">
        <ele>197</ele>
        <time>2024-03-07T14:44:54Z</time>
      </trkpt>
      <trkpt lat="50.30078" lon="4.42203">
        <ele>197.2</ele>
        <time>2024-03-07T14:44:57Z</time>
      </trkpt>
      <trkpt lat="50.30075" lon="4.42225">
        <ele>197.2</ele>
        <time>2024-03-07T14:45:01Z</time>
      </trkpt>
      <trkpt lat="50.30071" lon="4.42242">
        <ele>197.4</ele>
        <time>2024-03-07T14:45:05Z</time>
      </trkpt>
      <trkpt lat="50.30067" lon="4.42257">
        <ele>197.8</ele>
        <time>2024-03-07T14:45:08Z</time>
      </trkpt>
      <trkpt lat="50.30067" lon="4.42262">
        <ele>198</ele>
        <time>2024-03-07T14:45:09Z</time>
      </trkpt>
      <trkpt lat="50.30064" lon="4.42271">
        <ele>198.4</ele>
        <time>2024-03-07T14:45:11Z</time>
      </trkpt>
      <trkpt lat="50.30062" lon="4.42281">
        <ele>198.4</ele>
        <time>2024-03-07T14:45:13Z</time>
      </trkpt>
      <trkpt lat="50.30064" lon="4.4231">
        <ele>198.6</ele>
        <time>2024-03-07T14:45:18Z</time>
      </trkpt>
      <trkpt lat="50.30066" lon="4.42323">
        <ele>198.8</ele>
        <time>2024-03-07T14:45:21Z</time>
      </trkpt>
      <trkpt lat="50.30067" lon="4.42345">
        <ele>199</ele>
        <time>2024-03-07T14:45:26Z</time>
      </trkpt>
      <trkpt lat="50.30068" lon="4.42363">
        <ele>199</ele>
        <time>2024-03-07T14:45:30Z</time>
      </trkpt>
      <trkpt lat="50.30067" lon="4.42377">
        <ele>199.2</ele>
        <time>2024-03-07T14:45:33Z</time>
      </trkpt>
      <trkpt lat="50.30065" lon="4.42381">
        <ele>199.2</ele>
        <time>2024-03-07T14:45:34Z</time>
      </trkpt>
      <trkpt lat="50.3006" lon="4.42395">
        <ele>199.4</ele>
        <time>2024-03-07T14:45:38Z</time>
      </trkpt>
      <trkpt lat="50.30059" lon="4.42407">
        <ele>199.8</ele>
        <time>2024-03-07T14:45:41Z</time>
      </trkpt>
      <trkpt lat="50.30057" lon="4.42411">
        <ele>199.8</ele>
        <time>2024-03-07T14:45:42Z</time>
      </trkpt>
      <trkpt lat="50.30051" lon="4.42419">
        <ele>200.4</ele>
        <time>2024-03-07T14:45:45Z</time>
      </trkpt>
      <trkpt lat="50.30048" lon="4.4242">
        <ele>200.6</ele>
        <time>2024-03-07T14:45:46Z</time>
      </trkpt>
      <trkpt lat="50.30035" lon="4.42421">
        <ele>200.6</ele>
        <time>2024-03-07T14:45:50Z</time>
      </trkpt>
      <trkpt lat="50.30022" lon="4.42422">
        <ele>200.8</ele>
        <time>2024-03-07T14:45:54Z</time>
      </trkpt>
      <trkpt lat="50.30008" lon="4.42421">
        <ele>201</ele>
        <time>2024-03-07T14:45:58Z</time>
      </trkpt>
      <trkpt lat="50.29991" lon="4.42423">
        <ele>201</ele>
        <time>2024-03-07T14:46:03Z</time>
      </trkpt>
      <trkpt lat="50.29977" lon="4.42422">
        <ele>201</ele>
        <time>2024-03-07T14:46:07Z</time>
      </trkpt>
      <trkpt lat="50.29959" lon="4.42432">
        <ele>201</ele>
        <time>2024-03-07T14:46:12Z</time>
      </trkpt>
      <trkpt lat="50.29958" lon="4.42435">
        <ele>201</ele>
        <time>2024-03-07T14:46:13Z</time>
      </trkpt>
      <trkpt lat="50.29955" lon="4.42447">
        <ele>200.8</ele>
        <time>2024-03-07T14:46:16Z</time>
      </trkpt>
      <trkpt lat="50.29953" lon="4.42463">
        <ele>200.8</ele>
        <time>2024-03-07T14:46:19Z</time>
      </trkpt>
      <trkpt lat="50.29956" lon="4.42485">
        <ele>200.4</ele>
        <time>2024-03-07T14:46:23Z</time>
      </trkpt>
      <trkpt lat="50.29956" lon="4.42507">
        <ele>200.2</ele>
        <time>2024-03-07T14:46:27Z</time>
      </trkpt>
      <trkpt lat="50.29958" lon="4.42529">
        <ele>200</ele>
        <time>2024-03-07T14:46:31Z</time>
      </trkpt>
      <trkpt lat="50.29957" lon="4.42563">
        <ele>199.8</ele>
        <time>2024-03-07T14:46:37Z</time>
      </trkpt>
      <trkpt lat="50.29953" lon="4.42584">
        <ele>199.6</ele>
        <time>2024-03-07T14:46:41Z</time>
      </trkpt>
      <trkpt lat="50.29945" lon="4.42606">
        <ele>200</ele>
        <time>2024-03-07T14:46:46Z</time>
      </trkpt>
      <trkpt lat="50.29933" lon="4.4264">
        <ele>200.6</ele>
        <time>2024-03-07T14:46:53Z</time>
      </trkpt>
      <trkpt lat="50.29929" lon="4.4266">
        <ele>201</ele>
        <time>2024-03-07T14:46:57Z</time>
      </trkpt>
      <trkpt lat="50.2993" lon="4.42665">
        <ele>201.2</ele>
        <time>2024-03-07T14:46:58Z</time>
      </trkpt>
      <trkpt lat="50.29931" lon="4.42668">
        <ele>201.2</ele>
        <time>2024-03-07T14:46:59Z</time>
      </trkpt>
      <trkpt lat="50.29936" lon="4.42673">
        <ele>201.6</ele>
        <time>2024-03-07T14:47:01Z</time>
      </trkpt>
      <trkpt lat="50.29951" lon="4.42685">
        <ele>202</ele>
        <time>2024-03-07T14:47:06Z</time>
      </trkpt>
      <trkpt lat="50.29965" lon="4.42699">
        <ele>202.4</ele>
        <time>2024-03-07T14:47:11Z</time>
      </trkpt>
      <trkpt lat="50.29972" lon="4.42705">
        <ele>202.6</ele>
        <time>2024-03-07T14:47:14Z</time>
      </trkpt>
      <trkpt lat="50.29986" lon="4.42717">
        <ele>203</ele>
        <time>2024-03-07T14:47:19Z</time>
      </trkpt>
      <trkpt lat="50.29999" lon="4.42728">
        <ele>203.4</ele>
        <time>2024-03-07T14:47:24Z</time>
      </trkpt>
      <trkpt lat="50.30016" lon="4.42741">
        <ele>204.2</ele>
        <time>2024-03-07T14:47:29Z</time>
      </trkpt>
      <trkpt lat="50.30034" lon="4.42748">
        <ele>204.6</ele>
        <time>2024-03-07T14:47:34Z</time>
      </trkpt>
      <trkpt lat="50.30048" lon="4.42755">
        <ele>205</ele>
        <time>2024-03-07T14:47:38Z</time>
      </trkpt>
      <trkpt lat="50.30069" lon="4.42763">
        <ele>205.6</ele>
        <time>2024-03-07T14:47:44Z</time>
      </trkpt>
      <trkpt lat="50.30086" lon="4.42769">
        <ele>206</ele>
        <time>2024-03-07T14:47:49Z</time>
      </trkpt>
      <trkpt lat="50.30098" lon="4.42775">
        <ele>206</ele>
        <time>2024-03-07T14:47:53Z</time>
      </trkpt>
      <trkpt lat="50.3011" lon="4.42779">
        <ele>206.4</ele>
        <time>2024-03-07T14:47:57Z</time>
      </trkpt>
      <trkpt lat="50.30124" lon="4.42785">
        <ele>206.6</ele>
        <time>2024-03-07T14:48:01Z</time>
      </trkpt>
      <trkpt lat="50.30138" lon="4.42795">
        <ele>207</ele>
        <time>2024-03-07T14:48:05Z</time>
      </trkpt>
      <trkpt lat="50.30142" lon="4.42799">
        <ele>207.2</ele>
        <time>2024-03-07T14:48:06Z</time>
      </trkpt>
      <trkpt lat="50.30153" lon="4.4282">
        <ele>207.6</ele>
        <time>2024-03-07T14:48:11Z</time>
      </trkpt>
      <trkpt lat="50.30162" lon="4.42836">
        <ele>207.8</ele>
        <time>2024-03-07T14:48:15Z</time>
      </trkpt>
      <trkpt lat="50.30171" lon="4.42856">
        <ele>207.6</ele>
        <time>2024-03-07T14:48:20Z</time>
      </trkpt>
      <trkpt lat="50.30179" lon="4.42878">
        <ele>207.8</ele>
        <time>2024-03-07T14:48:24Z</time>
      </trkpt>
      <trkpt lat="50.30183" lon="4.42889">
        <ele>207.8</ele>
        <time>2024-03-07T14:48:26Z</time>
      </trkpt>
      <trkpt lat="50.30188" lon="4.42908">
        <ele>207.8</ele>
        <time>2024-03-07T14:48:29Z</time>
      </trkpt>
      <trkpt lat="50.30193" lon="4.42928">
        <ele>207.6</ele>
        <time>2024-03-07T14:48:32Z</time>
      </trkpt>
      <trkpt lat="50.30196" lon="4.42948">
        <ele>207.8</ele>
        <time>2024-03-07T14:48:35Z</time>
      </trkpt>
      <trkpt lat="50.30198" lon="4.42979">
        <ele>207.2</ele>
        <time>2024-03-07T14:48:40Z</time>
      </trkpt>
      <trkpt lat="50.30198" lon="4.42985">
        <ele>207</ele>
        <time>2024-03-07T14:48:41Z</time>
      </trkpt>
      <trkpt lat="50.30198" lon="4.43001">
        <ele>206.8</ele>
        <time>2024-03-07T14:48:44Z</time>
      </trkpt>
      <trkpt lat="50.30196" lon="4.43024">
        <ele>206.6</ele>
        <time>2024-03-07T14:48:48Z</time>
      </trkpt>
      <trkpt lat="50.30196" lon="4.43043">
        <ele>206.6</ele>
        <time>2024-03-07T14:48:51Z</time>
      </trkpt>
      <trkpt lat="50.30195" lon="4.43049">
        <ele>206.4</ele>
        <time>2024-03-07T14:48:52Z</time>
      </trkpt>
      <trkpt lat="50.30195" lon="4.43072">
        <ele>206.4</ele>
        <time>2024-03-07T14:48:56Z</time>
      </trkpt>
      <trkpt lat="50.30196" lon="4.43078">
        <ele>206.6</ele>
        <time>2024-03-07T14:48:57Z</time>
      </trkpt>
      <trkpt lat="50.30196" lon="4.43098">
        <ele>206.6</ele>
        <time>2024-03-07T14:49:00Z</time>
      </trkpt>
      <trkpt lat="50.30196" lon="4.43104">
        <ele>206.8</ele>
        <time>2024-03-07T14:49:01Z</time>
      </trkpt>
      <trkpt lat="50.30194" lon="4.43137">
        <ele>206.4</ele>
        <time>2024-03-07T14:49:06Z</time>
      </trkpt>
      <trkpt lat="50.30194" lon="4.43152">
        <ele>206.8</ele>
        <time>2024-03-07T14:49:08Z</time>
      </trkpt>
      <trkpt lat="50.30192" lon="4.43164">
        <ele>207.2</ele>
        <time>2024-03-07T14:49:10Z</time>
      </trkpt>
      <trkpt lat="50.30189" lon="4.43196">
        <ele>207</ele>
        <time>2024-03-07T14:49:15Z</time>
      </trkpt>
      <trkpt lat="50.30183" lon="4.43225">
        <ele>207.4</ele>
        <time>2024-03-07T14:49:20Z</time>
      </trkpt>
      <trkpt lat="50.30175" lon="4.43249">
        <ele>207.8</ele>
        <time>2024-03-07T14:49:25Z</time>
      </trkpt>
      <trkpt lat="50.30167" lon="4.43278">
        <ele>208.4</ele>
        <time>2024-03-07T14:49:30Z</time>
      </trkpt>
      <trkpt lat="50.30165" lon="4.43283">
        <ele>208.4</ele>
        <time>2024-03-07T14:49:31Z</time>
      </trkpt>
      <trkpt lat="50.30161" lon="4.43301">
        <ele>208.6</ele>
        <time>2024-03-07T14:49:34Z</time>
      </trkpt>
      <trkpt lat="50.30152" lon="4.43328">
        <ele>209</ele>
        <time>2024-03-07T14:49:39Z</time>
      </trkpt>
      <trkpt lat="50.3014" lon="4.43357">
        <ele>209.8</ele>
        <time>2024-03-07T14:49:45Z</time>
      </trkpt>
      <trkpt lat="50.30131" lon="4.43376">
        <ele>210.4</ele>
        <time>2024-03-07T14:49:50Z</time>
      </trkpt>
      <trkpt lat="50.3012" lon="4.43401">
        <ele>211.6</ele>
        <time>2024-03-07T14:49:56Z</time>
      </trkpt>
      <trkpt lat="50.30112" lon="4.43426">
        <ele>212.6</ele>
        <time>2024-03-07T14:50:01Z</time>
      </trkpt>
      <trkpt lat="50.30105" lon="4.43464">
        <ele>213.6</ele>
        <time>2024-03-07T14:50:08Z</time>
      </trkpt>
      <trkpt lat="50.30101" lon="4.43481">
        <ele>213.6</ele>
        <time>2024-03-07T14:50:11Z</time>
      </trkpt>
      <trkpt lat="50.30096" lon="4.43511">
        <ele>214.2</ele>
        <time>2024-03-07T14:50:16Z</time>
      </trkpt>
      <trkpt lat="50.30092" lon="4.43536">
        <ele>214.6</ele>
        <time>2024-03-07T14:50:21Z</time>
      </trkpt>
      <trkpt lat="50.30089" lon="4.43552">
        <ele>214.8</ele>
        <time>2024-03-07T14:50:25Z</time>
      </trkpt>
      <trkpt lat="50.30088" lon="4.43558">
        <ele>215</ele>
        <time>2024-03-07T14:50:29Z</time>
      </trkpt>
      <trkpt lat="50.30088" lon="4.43558">
        <ele>215.6</ele>
        <time>2024-03-07T14:50:38Z</time>
      </trkpt>
      <trkpt lat="50.30089" lon="4.4356">
        <ele>215.6</ele>
        <time>2024-03-07T14:50:39Z</time>
      </trkpt>
      <trkpt lat="50.30097" lon="4.43569">
        <ele>215.8</ele>
        <time>2024-03-07T14:50:44Z</time>
      </trkpt>
      <trkpt lat="50.30099" lon="4.43571">
        <ele>215.8</ele>
        <time>2024-03-07T14:50:45Z</time>
      </trkpt>
      <trkpt lat="50.30107" lon="4.43574">
        <ele>215.8</ele>
        <time>2024-03-07T14:50:48Z</time>
      </trkpt>
      <trkpt lat="50.30108" lon="4.43573">
        <ele>216.2</ele>
        <time>2024-03-07T14:50:51Z</time>
      </trkpt>
      <trkpt lat="50.30112" lon="4.43573">
        <ele>216.4</ele>
        <time>2024-03-07T14:50:59Z</time>
      </trkpt>
      <trkpt lat="50.30121" lon="4.43573">
        <ele>216.4</ele>
        <time>2024-03-07T14:51:01Z</time>
      </trkpt>
      <trkpt lat="50.3013" lon="4.43576">
        <ele>216.4</ele>
        <time>2024-03-07T14:51:03Z</time>
      </trkpt>
      <trkpt lat="50.30163" lon="4.43583">
        <ele>216.2</ele>
        <time>2024-03-07T14:51:09Z</time>
      </trkpt>
      <trkpt lat="50.3021" lon="4.43593">
        <ele>215.8</ele>
        <time>2024-03-07T14:51:16Z</time>
      </trkpt>
      <trkpt lat="50.30264" lon="4.43605">
        <ele>215.2</ele>
        <time>2024-03-07T14:51:23Z</time>
      </trkpt>
      <trkpt lat="50.3032" lon="4.43616">
        <ele>214.4</ele>
        <time>2024-03-07T14:51:30Z</time>
      </trkpt>
      <trkpt lat="50.30373" lon="4.43628">
        <ele>213.8</ele>
        <time>2024-03-07T14:51:37Z</time>
      </trkpt>
      <trkpt lat="50.30428" lon="4.43641">
        <ele>213</ele>
        <time>2024-03-07T14:51:45Z</time>
      </trkpt>
      <trkpt lat="50.30487" lon="4.43653">
        <ele>211.6</ele>
        <time>2024-03-07T14:51:54Z</time>
      </trkpt>
      <trkpt lat="50.30532" lon="4.43662">
        <ele>211</ele>
        <time>2024-03-07T14:52:01Z</time>
      </trkpt>
      <trkpt lat="50.30582" lon="4.43673">
        <ele>210</ele>
        <time>2024-03-07T14:52:09Z</time>
      </trkpt>
      <trkpt lat="50.30628" lon="4.43682">
        <ele>209</ele>
        <time>2024-03-07T14:52:17Z</time>
      </trkpt>
      <trkpt lat="50.30668" lon="4.4369">
        <ele>208</ele>
        <time>2024-03-07T14:52:24Z</time>
      </trkpt>
      <trkpt lat="50.30714" lon="4.437">
        <ele>207</ele>
        <time>2024-03-07T14:52:32Z</time>
      </trkpt>
      <trkpt lat="50.30729" lon="4.43704">
        <ele>206.6</ele>
        <time>2024-03-07T14:52:35Z</time>
      </trkpt>
      <trkpt lat="50.30734" lon="4.43706">
        <ele>206.4</ele>
        <time>2024-03-07T14:52:36Z</time>
      </trkpt>
      <trkpt lat="50.3075" lon="4.43707">
        <ele>205.8</ele>
        <time>2024-03-07T14:52:40Z</time>
      </trkpt>
      <trkpt lat="50.30755" lon="4.43704">
        <ele>205.8</ele>
        <time>2024-03-07T14:52:41Z</time>
      </trkpt>
      <trkpt lat="50.30762" lon="4.43695">
        <ele>205.8</ele>
        <time>2024-03-07T14:52:44Z</time>
      </trkpt>
      <trkpt lat="50.30777" lon="4.43677">
        <ele>205.8</ele>
        <time>2024-03-07T14:52:50Z</time>
      </trkpt>
      <trkpt lat="50.30792" lon="4.4366">
        <ele>205.6</ele>
        <time>2024-03-07T14:52:58Z</time>
      </trkpt>
      <trkpt lat="50.308" lon="4.43648">
        <ele>205.4</ele>
        <time>2024-03-07T14:53:02Z</time>
      </trkpt>
      <trkpt lat="50.30801" lon="4.43644">
        <ele>205.4</ele>
        <time>2024-03-07T14:53:03Z</time>
      </trkpt>
      <trkpt lat="50.30805" lon="4.43619">
        <ele>205.2</ele>
        <time>2024-03-07T14:53:09Z</time>
      </trkpt>
      <trkpt lat="50.30807" lon="4.43587">
        <ele>205</ele>
        <time>2024-03-07T14:53:15Z</time>
      </trkpt>
      <trkpt lat="50.30813" lon="4.43555">
        <ele>204.4</ele>
        <time>2024-03-07T14:53:21Z</time>
      </trkpt>
      <trkpt lat="50.30822" lon="4.43523">
        <ele>203.8</ele>
        <time>2024-03-07T14:53:27Z</time>
      </trkpt>
      <trkpt lat="50.30835" lon="4.43497">
        <ele>203.4</ele>
        <time>2024-03-07T14:53:32Z</time>
      </trkpt>
      <trkpt lat="50.30844" lon="4.43479">
        <ele>203.2</ele>
        <time>2024-03-07T14:53:36Z</time>
      </trkpt>
      <trkpt lat="50.30863" lon="4.43454">
        <ele>202.6</ele>
        <time>2024-03-07T14:53:42Z</time>
      </trkpt>
      <trkpt lat="50.30883" lon="4.43435">
        <ele>202</ele>
        <time>2024-03-07T14:53:48Z</time>
      </trkpt>
      <trkpt lat="50.30896" lon="4.43419">
        <ele>201.4</ele>
        <time>2024-03-07T14:53:52Z</time>
      </trkpt>
      <trkpt lat="50.30901" lon="4.43411">
        <ele>201.2</ele>
        <time>2024-03-07T14:53:54Z</time>
      </trkpt>
      <trkpt lat="50.30911" lon="4.43395">
        <ele>200.4</ele>
        <time>2024-03-07T14:53:58Z</time>
      </trkpt>
      <trkpt lat="50.30931" lon="4.43364">
        <ele>199.8</ele>
        <time>2024-03-07T14:54:04Z</time>
      </trkpt>
      <trkpt lat="50.30935" lon="4.4336">
        <ele>199.6</ele>
        <time>2024-03-07T14:54:05Z</time>
      </trkpt>
      <trkpt lat="50.30943" lon="4.4335">
        <ele>199.4</ele>
        <time>2024-03-07T14:54:07Z</time>
      </trkpt>
      <trkpt lat="50.30964" lon="4.4332">
        <ele>198.8</ele>
        <time>2024-03-07T14:54:13Z</time>
      </trkpt>
      <trkpt lat="50.30983" lon="4.43291">
        <ele>198.6</ele>
        <time>2024-03-07T14:54:18Z</time>
      </trkpt>
      <trkpt lat="50.30998" lon="4.43269">
        <ele>198.2</ele>
        <time>2024-03-07T14:54:23Z</time>
      </trkpt>
      <trkpt lat="50.31013" lon="4.4325">
        <ele>198</ele>
        <time>2024-03-07T14:54:30Z</time>
      </trkpt>
      <trkpt lat="50.31027" lon="4.4325">
        <ele>197.4</ele>
        <time>2024-03-07T14:54:35Z</time>
      </trkpt>
      <trkpt lat="50.31048" lon="4.43256">
        <ele>196.6</ele>
        <time>2024-03-07T14:54:41Z</time>
      </trkpt>
      <trkpt lat="50.31059" lon="4.43252">
        <ele>196.2</ele>
        <time>2024-03-07T14:54:45Z</time>
      </trkpt>
      <trkpt lat="50.31071" lon="4.4324">
        <ele>196</ele>
        <time>2024-03-07T14:54:49Z</time>
      </trkpt>
      <trkpt lat="50.31093" lon="4.43215">
        <ele>195.4</ele>
        <time>2024-03-07T14:54:56Z</time>
      </trkpt>
      <trkpt lat="50.31109" lon="4.43201">
        <ele>194.8</ele>
        <time>2024-03-07T14:55:01Z</time>
      </trkpt>
      <trkpt lat="50.31121" lon="4.43183">
        <ele>194.8</ele>
        <time>2024-03-07T14:55:06Z</time>
      </trkpt>
      <trkpt lat="50.31134" lon="4.4317">
        <ele>194.4</ele>
        <time>2024-03-07T14:55:11Z</time>
      </trkpt>
      <trkpt lat="50.3115" lon="4.4315">
        <ele>194</ele>
        <time>2024-03-07T14:55:17Z</time>
      </trkpt>
      <trkpt lat="50.31169" lon="4.43126">
        <ele>193.8</ele>
        <time>2024-03-07T14:55:24Z</time>
      </trkpt>
      <trkpt lat="50.31181" lon="4.43103">
        <ele>193.8</ele>
        <time>2024-03-07T14:55:30Z</time>
      </trkpt>
      <trkpt lat="50.3119" lon="4.43082">
        <ele>193.4</ele>
        <time>2024-03-07T14:55:37Z</time>
      </trkpt>
      <trkpt lat="50.31198" lon="4.43071">
        <ele>193.2</ele>
        <time>2024-03-07T14:55:41Z</time>
      </trkpt>
      <trkpt lat="50.31215" lon="4.43075">
        <ele>192.6</ele>
        <time>2024-03-07T14:55:46Z</time>
      </trkpt>
      <trkpt lat="50.31233" lon="4.43082">
        <ele>192.4</ele>
        <time>2024-03-07T14:55:51Z</time>
      </trkpt>
      <trkpt lat="50.31245" lon="4.43086">
        <ele>192.4</ele>
        <time>2024-03-07T14:55:54Z</time>
      </trkpt>
      <trkpt lat="50.31256" lon="4.4309">
        <ele>192.4</ele>
        <time>2024-03-07T14:55:57Z</time>
      </trkpt>
      <trkpt lat="50.31284" lon="4.43094">
        <ele>192.4</ele>
        <time>2024-03-07T14:56:04Z</time>
      </trkpt>
      <trkpt lat="50.31297" lon="4.43093">
        <ele>192.4</ele>
        <time>2024-03-07T14:56:07Z</time>
      </trkpt>
      <trkpt lat="50.31306" lon="4.4309">
        <ele>192.4</ele>
        <time>2024-03-07T14:56:09Z</time>
      </trkpt>
      <trkpt lat="50.31314" lon="4.43084">
        <ele>192.4</ele>
        <time>2024-03-07T14:56:11Z</time>
      </trkpt>
      <trkpt lat="50.31332" lon="4.43068">
        <ele>192.2</ele>
        <time>2024-03-07T14:56:16Z</time>
      </trkpt>
      <trkpt lat="50.31339" lon="4.43062">
        <ele>192.2</ele>
        <time>2024-03-07T14:56:18Z</time>
      </trkpt>
      <trkpt lat="50.31359" lon="4.43044">
        <ele>192.2</ele>
        <time>2024-03-07T14:56:24Z</time>
      </trkpt>
      <trkpt lat="50.31394" lon="4.43012">
        <ele>192.4</ele>
        <time>2024-03-07T14:56:34Z</time>
      </trkpt>
      <trkpt lat="50.31418" lon="4.42992">
        <ele>192.6</ele>
        <time>2024-03-07T14:56:41Z</time>
      </trkpt>
      <trkpt lat="50.31448" lon="4.42972">
        <ele>193</ele>
        <time>2024-03-07T14:56:49Z</time>
      </trkpt>
      <trkpt lat="50.3148" lon="4.42957">
        <ele>193.4</ele>
        <time>2024-03-07T14:56:57Z</time>
      </trkpt>
      <trkpt lat="50.3149" lon="4.42952">
        <ele>193.4</ele>
        <time>2024-03-07T14:56:59Z</time>
      </trkpt>
      <trkpt lat="50.31504" lon="4.42945">
        <ele>193.4</ele>
        <time>2024-03-07T14:57:02Z</time>
      </trkpt>
      <trkpt lat="50.31532" lon="4.42927">
        <ele>193.8</ele>
        <time>2024-03-07T14:57:08Z</time>
      </trkpt>
      <trkpt lat="50.31564" lon="4.42905">
        <ele>194</ele>
        <time>2024-03-07T14:57:15Z</time>
      </trkpt>
      <trkpt lat="50.3159" lon="4.42881">
        <ele>194.2</ele>
        <time>2024-03-07T14:57:21Z</time>
      </trkpt>
      <trkpt lat="50.31618" lon="4.42859">
        <ele>194.2</ele>
        <time>2024-03-07T14:57:27Z</time>
      </trkpt>
      <trkpt lat="50.31657" lon="4.42839">
        <ele>194.2</ele>
        <time>2024-03-07T14:57:34Z</time>
      </trkpt>
      <trkpt lat="50.31695" lon="4.42835">
        <ele>194.4</ele>
        <time>2024-03-07T14:57:41Z</time>
      </trkpt>
      <trkpt lat="50.31713" lon="4.42836">
        <ele>194.6</ele>
        <time>2024-03-07T14:57:45Z</time>
      </trkpt>
      <trkpt lat="50.31723" lon="4.42852">
        <ele>194.6</ele>
        <time>2024-03-07T14:57:49Z</time>
      </trkpt>
      <trkpt lat="50.31734" lon="4.42881">
        <ele>194.6</ele>
        <time>2024-03-07T14:57:54Z</time>
      </trkpt>
      <trkpt lat="50.31735" lon="4.42886">
        <ele>194.6</ele>
        <time>2024-03-07T14:57:55Z</time>
      </trkpt>
      <trkpt lat="50.31742" lon="4.42905">
        <ele>194.6</ele>
        <time>2024-03-07T14:57:58Z</time>
      </trkpt>
      <trkpt lat="50.31748" lon="4.42915">
        <ele>194.6</ele>
        <time>2024-03-07T14:58:00Z</time>
      </trkpt>
      <trkpt lat="50.31752" lon="4.42919">
        <ele>194.8</ele>
        <time>2024-03-07T14:58:01Z</time>
      </trkpt>
      <trkpt lat="50.3176" lon="4.42922">
        <ele>194.8</ele>
        <time>2024-03-07T14:58:03Z</time>
      </trkpt>
      <trkpt lat="50.31765" lon="4.42921">
        <ele>194.8</ele>
        <time>2024-03-07T14:58:04Z</time>
      </trkpt>
      <trkpt lat="50.31769" lon="4.42919">
        <ele>194.8</ele>
        <time>2024-03-07T14:58:05Z</time>
      </trkpt>
      <trkpt lat="50.31785" lon="4.42907">
        <ele>195</ele>
        <time>2024-03-07T14:58:09Z</time>
      </trkpt>
      <trkpt lat="50.3179" lon="4.42904">
        <ele>195.2</ele>
        <time>2024-03-07T14:58:10Z</time>
      </trkpt>
      <trkpt lat="50.31809" lon="4.4289">
        <ele>195.4</ele>
        <time>2024-03-07T14:58:15Z</time>
      </trkpt>
      <trkpt lat="50.31843" lon="4.42865">
        <ele>196.2</ele>
        <time>2024-03-07T14:58:24Z</time>
      </trkpt>
      <trkpt lat="50.31867" lon="4.42849">
        <ele>196.6</ele>
        <time>2024-03-07T14:58:30Z</time>
      </trkpt>
      <trkpt lat="50.31896" lon="4.42833">
        <ele>197.4</ele>
        <time>2024-03-07T14:58:37Z</time>
      </trkpt>
      <trkpt lat="50.31936" lon="4.42811">
        <ele>199.2</ele>
        <time>2024-03-07T14:58:47Z</time>
      </trkpt>
      <trkpt lat="50.31941" lon="4.42809">
        <ele>199.4</ele>
        <time>2024-03-07T14:58:48Z</time>
      </trkpt>
      <trkpt lat="50.31966" lon="4.42791">
        <ele>200.2</ele>
        <time>2024-03-07T14:58:54Z</time>
      </trkpt>
      <trkpt lat="50.31996" lon="4.42776">
        <ele>201.2</ele>
        <time>2024-03-07T14:59:01Z</time>
      </trkpt>
      <trkpt lat="50.32029" lon="4.4276">
        <ele>202.6</ele>
        <time>2024-03-07T14:59:09Z</time>
      </trkpt>
      <trkpt lat="50.32056" lon="4.42744">
        <ele>203.8</ele>
        <time>2024-03-07T14:59:16Z</time>
      </trkpt>
      <trkpt lat="50.32065" lon="4.4274">
        <ele>204.2</ele>
        <time>2024-03-07T14:59:18Z</time>
      </trkpt>
      <trkpt lat="50.32072" lon="4.4273">
        <ele>204.6</ele>
        <time>2024-03-07T14:59:20Z</time>
      </trkpt>
      <trkpt lat="50.32076" lon="4.42716">
        <ele>204.8</ele>
        <time>2024-03-07T14:59:22Z</time>
      </trkpt>
      <trkpt lat="50.32077" lon="4.42702">
        <ele>205.2</ele>
        <time>2024-03-07T14:59:24Z</time>
      </trkpt>
      <trkpt lat="50.32079" lon="4.42672">
        <ele>206</ele>
        <time>2024-03-07T14:59:30Z</time>
      </trkpt>
      <trkpt lat="50.32081" lon="4.42641">
        <ele>206.6</ele>
        <time>2024-03-07T14:59:36Z</time>
      </trkpt>
      <trkpt lat="50.32083" lon="4.42633">
        <ele>206.8</ele>
        <time>2024-03-07T14:59:38Z</time>
      </trkpt>
      <trkpt lat="50.32088" lon="4.42632">
        <ele>207</ele>
        <time>2024-03-07T14:59:40Z</time>
      </trkpt>
      <trkpt lat="50.32093" lon="4.42634">
        <ele>207.2</ele>
        <time>2024-03-07T14:59:42Z</time>
      </trkpt>
      <trkpt lat="50.32101" lon="4.42643">
        <ele>207.4</ele>
        <time>2024-03-07T14:59:45Z</time>
      </trkpt>
      <trkpt lat="50.32111" lon="4.42662">
        <ele>208</ele>
        <time>2024-03-07T14:59:50Z</time>
      </trkpt>
      <trkpt lat="50.32125" lon="4.42677">
        <ele>208.4</ele>
        <time>2024-03-07T14:59:54Z</time>
      </trkpt>
      <trkpt lat="50.32152" lon="4.4271">
        <ele>209.2</ele>
        <time>2024-03-07T15:00:02Z</time>
      </trkpt>
      <trkpt lat="50.32187" lon="4.42751">
        <ele>210.2</ele>
        <time>2024-03-07T15:00:12Z</time>
      </trkpt>
      <trkpt lat="50.32222" lon="4.42789">
        <ele>211.2</ele>
        <time>2024-03-07T15:00:22Z</time>
      </trkpt>
      <trkpt lat="50.32247" lon="4.42813">
        <ele>211.8</ele>
        <time>2024-03-07T15:00:29Z</time>
      </trkpt>
      <trkpt lat="50.32274" lon="4.4284">
        <ele>212.4</ele>
        <time>2024-03-07T15:00:37Z</time>
      </trkpt>
      <trkpt lat="50.32306" lon="4.42866">
        <ele>213.2</ele>
        <time>2024-03-07T15:00:46Z</time>
      </trkpt>
      <trkpt lat="50.32335" lon="4.42887">
        <ele>213.8</ele>
        <time>2024-03-07T15:00:54Z</time>
      </trkpt>
      <trkpt lat="50.32357" lon="4.429">
        <ele>214.2</ele>
        <time>2024-03-07T15:01:00Z</time>
      </trkpt>
      <trkpt lat="50.32362" lon="4.42903">
        <ele>214.2</ele>
        <time>2024-03-07T15:01:01Z</time>
      </trkpt>
      <trkpt lat="50.3239" lon="4.42919">
        <ele>214.6</ele>
        <time>2024-03-07T15:01:08Z</time>
      </trkpt>
      <trkpt lat="50.32423" lon="4.42938">
        <ele>215.2</ele>
        <time>2024-03-07T15:01:17Z</time>
      </trkpt>
      <trkpt lat="50.3246" lon="4.42958">
        <ele>215.8</ele>
        <time>2024-03-07T15:01:27Z</time>
      </trkpt>
      <trkpt lat="50.32495" lon="4.42974">
        <ele>216.2</ele>
        <time>2024-03-07T15:01:36Z</time>
      </trkpt>
      <trkpt lat="50.32527" lon="4.42985">
        <ele>216.4</ele>
        <time>2024-03-07T15:01:44Z</time>
      </trkpt>
      <trkpt lat="50.32553" lon="4.42988">
        <ele>216.6</ele>
        <time>2024-03-07T15:01:50Z</time>
      </trkpt>
      <trkpt lat="50.32583" lon="4.42996">
        <ele>216.8</ele>
        <time>2024-03-07T15:01:57Z</time>
      </trkpt>
      <trkpt lat="50.32615" lon="4.43007">
        <ele>216.8</ele>
        <time>2024-03-07T15:02:04Z</time>
      </trkpt>
      <trkpt lat="50.32648" lon="4.43017">
        <ele>217</ele>
        <time>2024-03-07T15:02:11Z</time>
      </trkpt>
      <trkpt lat="50.32653" lon="4.43018">
        <ele>217</ele>
        <time>2024-03-07T15:02:12Z</time>
      </trkpt>
      <trkpt lat="50.32661" lon="4.43021">
        <ele>217</ele>
        <time>2024-03-07T15:02:14Z</time>
      </trkpt>
      <trkpt lat="50.32666" lon="4.43023">
        <ele>217</ele>
        <time>2024-03-07T15:02:15Z</time>
      </trkpt>
      <trkpt lat="50.3267" lon="4.43025">
        <ele>217</ele>
        <time>2024-03-07T15:02:16Z</time>
      </trkpt>
      <trkpt lat="50.32685" lon="4.43036">
        <ele>217</ele>
        <time>2024-03-07T15:02:20Z</time>
      </trkpt>
      <trkpt lat="50.327" lon="4.4305">
        <ele>217</ele>
        <time>2024-03-07T15:02:25Z</time>
      </trkpt>
      <trkpt lat="50.32708" lon="4.43062">
        <ele>217</ele>
        <time>2024-03-07T15:02:29Z</time>
      </trkpt>
      <trkpt lat="50.32711" lon="4.43067">
        <ele>217</ele>
        <time>2024-03-07T15:02:34Z</time>
      </trkpt>
      <trkpt lat="50.32711" lon="4.43067">
        <ele>217</ele>
        <time>2024-03-07T15:02:46Z</time>
      </trkpt>
      <trkpt lat="50.32711" lon="4.43067">
        <ele>217</ele>
        <time>2024-03-07T15:03:03Z</time>
      </trkpt>
      <trkpt lat="50.32712" lon="4.43069">
        <ele>217.2</ele>
        <time>2024-03-07T15:03:16Z</time>
      </trkpt>
      <trkpt lat="50.32717" lon="4.43082">
        <ele>217.2</ele>
        <time>2024-03-07T15:03:20Z</time>
      </trkpt>
      <trkpt lat="50.3273" lon="4.43111">
        <ele>217.4</ele>
        <time>2024-03-07T15:03:26Z</time>
      </trkpt>
      <trkpt lat="50.32749" lon="4.43152">
        <ele>217.4</ele>
        <time>2024-03-07T15:03:32Z</time>
      </trkpt>
      <trkpt lat="50.32771" lon="4.43202">
        <ele>217.4</ele>
        <time>2024-03-07T15:03:40Z</time>
      </trkpt>
      <trkpt lat="50.32791" lon="4.43249">
        <ele>217.2</ele>
        <time>2024-03-07T15:03:47Z</time>
      </trkpt>
      <trkpt lat="50.32811" lon="4.43294">
        <ele>217.2</ele>
        <time>2024-03-07T15:03:53Z</time>
      </trkpt>
      <trkpt lat="50.32833" lon="4.43346">
        <ele>217</ele>
        <time>2024-03-07T15:04:00Z</time>
      </trkpt>
      <trkpt lat="50.32854" lon="4.434">
        <ele>217</ele>
        <time>2024-03-07T15:04:07Z</time>
      </trkpt>
      <trkpt lat="50.32865" lon="4.4345">
        <ele>217</ele>
        <time>2024-03-07T15:04:13Z</time>
      </trkpt>
      <trkpt lat="50.32877" lon="4.43515">
        <ele>217</ele>
        <time>2024-03-07T15:04:21Z</time>
      </trkpt>
      <trkpt lat="50.32896" lon="4.43601">
        <ele>217.4</ele>
        <time>2024-03-07T15:04:31Z</time>
      </trkpt>
      <trkpt lat="50.3291" lon="4.43679">
        <ele>217.4</ele>
        <time>2024-03-07T15:04:40Z</time>
      </trkpt>
      <trkpt lat="50.32921" lon="4.4374">
        <ele>217.4</ele>
        <time>2024-03-07T15:04:47Z</time>
      </trkpt>
      <trkpt lat="50.32934" lon="4.43801">
        <ele>217.2</ele>
        <time>2024-03-07T15:04:55Z</time>
      </trkpt>
      <trkpt lat="50.32936" lon="4.43807">
        <ele>217</ele>
        <time>2024-03-07T15:04:56Z</time>
      </trkpt>
      <trkpt lat="50.32943" lon="4.43813">
        <ele>217</ele>
        <time>2024-03-07T15:04:58Z</time>
      </trkpt>
      <trkpt lat="50.32967" lon="4.43811">
        <ele>216.6</ele>
        <time>2024-03-07T15:05:03Z</time>
      </trkpt>
      <trkpt lat="50.33007" lon="4.43803">
        <ele>216.2</ele>
        <time>2024-03-07T15:05:10Z</time>
      </trkpt>
      <trkpt lat="50.33032" lon="4.43794">
        <ele>215.8</ele>
        <time>2024-03-07T15:05:14Z</time>
      </trkpt>
      <trkpt lat="50.33038" lon="4.4379">
        <ele>215.8</ele>
        <time>2024-03-07T15:05:15Z</time>
      </trkpt>
      <trkpt lat="50.33075" lon="4.43753">
        <ele>215</ele>
        <time>2024-03-07T15:05:21Z</time>
      </trkpt>
      <trkpt lat="50.33113" lon="4.43709">
        <ele>214.6</ele>
        <time>2024-03-07T15:05:28Z</time>
      </trkpt>
      <trkpt lat="50.33144" lon="4.4367">
        <ele>214.4</ele>
        <time>2024-03-07T15:05:35Z</time>
      </trkpt>
      <trkpt lat="50.33167" lon="4.43629">
        <ele>214.2</ele>
        <time>2024-03-07T15:05:41Z</time>
      </trkpt>
      <trkpt lat="50.33193" lon="4.43587">
        <ele>214</ele>
        <time>2024-03-07T15:05:48Z</time>
      </trkpt>
      <trkpt lat="50.33203" lon="4.43569">
        <ele>214</ele>
        <time>2024-03-07T15:05:51Z</time>
      </trkpt>
      <trkpt lat="50.33211" lon="4.43559">
        <ele>214</ele>
        <time>2024-03-07T15:05:53Z</time>
      </trkpt>
      <trkpt lat="50.33229" lon="4.43525">
        <ele>214</ele>
        <time>2024-03-07T15:05:59Z</time>
      </trkpt>
      <trkpt lat="50.33249" lon="4.43491">
        <ele>214.4</ele>
        <time>2024-03-07T15:06:06Z</time>
      </trkpt>
      <trkpt lat="50.33257" lon="4.4349">
        <ele>214.6</ele>
        <time>2024-03-07T15:06:08Z</time>
      </trkpt>
      <trkpt lat="50.33261" lon="4.43493">
        <ele>214.6</ele>
        <time>2024-03-07T15:06:09Z</time>
      </trkpt>
      <trkpt lat="50.33293" lon="4.4352">
        <ele>214.6</ele>
        <time>2024-03-07T15:06:18Z</time>
      </trkpt>
      <trkpt lat="50.33307" lon="4.4353">
        <ele>214.4</ele>
        <time>2024-03-07T15:06:22Z</time>
      </trkpt>
      <trkpt lat="50.33315" lon="4.43535">
        <ele>214.4</ele>
        <time>2024-03-07T15:06:24Z</time>
      </trkpt>
      <trkpt lat="50.3334" lon="4.43554">
        <ele>214.6</ele>
        <time>2024-03-07T15:06:31Z</time>
      </trkpt>
      <trkpt lat="50.33372" lon="4.43574">
        <ele>215</ele>
        <time>2024-03-07T15:06:40Z</time>
      </trkpt>
      <trkpt lat="50.33405" lon="4.43602">
        <ele>215.4</ele>
        <time>2024-03-07T15:06:50Z</time>
      </trkpt>
      <trkpt lat="50.3344" lon="4.43632">
        <ele>215.8</ele>
        <time>2024-03-07T15:07:00Z</time>
      </trkpt>
      <trkpt lat="50.33467" lon="4.43654">
        <ele>216.2</ele>
        <time>2024-03-07T15:07:08Z</time>
      </trkpt>
      <trkpt lat="50.33489" lon="4.43671">
        <ele>216.6</ele>
        <time>2024-03-07T15:07:14Z</time>
      </trkpt>
      <trkpt lat="50.335" lon="4.43681">
        <ele>216.8</ele>
        <time>2024-03-07T15:07:17Z</time>
      </trkpt>
      <trkpt lat="50.33537" lon="4.43719">
        <ele>217.4</ele>
        <time>2024-03-07T15:07:28Z</time>
      </trkpt>
      <trkpt lat="50.33565" lon="4.43746">
        <ele>217.8</ele>
        <time>2024-03-07T15:07:36Z</time>
      </trkpt>
      <trkpt lat="50.33593" lon="4.43771">
        <ele>218.2</ele>
        <time>2024-03-07T15:07:44Z</time>
      </trkpt>
      <trkpt lat="50.33624" lon="4.43798">
        <ele>218.8</ele>
        <time>2024-03-07T15:07:53Z</time>
      </trkpt>
      <trkpt lat="50.33638" lon="4.43806">
        <ele>219.2</ele>
        <time>2024-03-07T15:07:58Z</time>
      </trkpt>
      <trkpt lat="50.33653" lon="4.43815">
        <ele>219.8</ele>
        <time>2024-03-07T15:08:04Z</time>
      </trkpt>
      <trkpt lat="50.33669" lon="4.43823">
        <ele>220</ele>
        <time>2024-03-07T15:08:09Z</time>
      </trkpt>
      <trkpt lat="50.33688" lon="4.4383">
        <ele>220.2</ele>
        <time>2024-03-07T15:08:15Z</time>
      </trkpt>
      <trkpt lat="50.33707" lon="4.43838">
        <ele>220.6</ele>
        <time>2024-03-07T15:08:20Z</time>
      </trkpt>
      <trkpt lat="50.33711" lon="4.43839">
        <ele>220.8</ele>
        <time>2024-03-07T15:08:21Z</time>
      </trkpt>
      <trkpt lat="50.33719" lon="4.4384">
        <ele>221</ele>
        <time>2024-03-07T15:08:23Z</time>
      </trkpt>
      <trkpt lat="50.33735" lon="4.43843">
        <ele>221.2</ele>
        <time>2024-03-07T15:08:27Z</time>
      </trkpt>
      <trkpt lat="50.33766" lon="4.43848">
        <ele>221.8</ele>
        <time>2024-03-07T15:08:35Z</time>
      </trkpt>
      <trkpt lat="50.33791" lon="4.43852">
        <ele>222.2</ele>
        <time>2024-03-07T15:08:42Z</time>
      </trkpt>
      <trkpt lat="50.33815" lon="4.43862">
        <ele>222.8</ele>
        <time>2024-03-07T15:08:49Z</time>
      </trkpt>
      <trkpt lat="50.33835" lon="4.43873">
        <ele>223.2</ele>
        <time>2024-03-07T15:08:55Z</time>
      </trkpt>
      <trkpt lat="50.3385" lon="4.43882">
        <ele>223.6</ele>
        <time>2024-03-07T15:09:00Z</time>
      </trkpt>
      <trkpt lat="50.33867" lon="4.43893">
        <ele>223.8</ele>
        <time>2024-03-07T15:09:05Z</time>
      </trkpt>
      <trkpt lat="50.33887" lon="4.43905">
        <ele>224</ele>
        <time>2024-03-07T15:09:11Z</time>
      </trkpt>
      <trkpt lat="50.33902" lon="4.43912">
        <ele>224.4</ele>
        <time>2024-03-07T15:09:16Z</time>
      </trkpt>
      <trkpt lat="50.33929" lon="4.43921">
        <ele>224.6</ele>
        <time>2024-03-07T15:09:22Z</time>
      </trkpt>
      <trkpt lat="50.33957" lon="4.43928">
        <ele>224.8</ele>
        <time>2024-03-07T15:09:28Z</time>
      </trkpt>
      <trkpt lat="50.33988" lon="4.43937">
        <ele>225</ele>
        <time>2024-03-07T15:09:35Z</time>
      </trkpt>
      <trkpt lat="50.34022" lon="4.4395">
        <ele>225</ele>
        <time>2024-03-07T15:09:42Z</time>
      </trkpt>
      <trkpt lat="50.34054" lon="4.43966">
        <ele>225</ele>
        <time>2024-03-07T15:09:49Z</time>
      </trkpt>
      <trkpt lat="50.34081" lon="4.43979">
        <ele>224.8</ele>
        <time>2024-03-07T15:09:55Z</time>
      </trkpt>
      <trkpt lat="50.34114" lon="4.43983">
        <ele>224.6</ele>
        <time>2024-03-07T15:10:02Z</time>
      </trkpt>
      <trkpt lat="50.34125" lon="4.43982">
        <ele>224.6</ele>
        <time>2024-03-07T15:10:04Z</time>
      </trkpt>
      <trkpt lat="50.3415" lon="4.43976">
        <ele>224.4</ele>
        <time>2024-03-07T15:10:09Z</time>
      </trkpt>
      <trkpt lat="50.34183" lon="4.43965">
        <ele>224</ele>
        <time>2024-03-07T15:10:16Z</time>
      </trkpt>
      <trkpt lat="50.34205" lon="4.43954">
        <ele>223.6</ele>
        <time>2024-03-07T15:10:22Z</time>
      </trkpt>
      <trkpt lat="50.3423" lon="4.43939">
        <ele>223</ele>
        <time>2024-03-07T15:10:29Z</time>
      </trkpt>
      <trkpt lat="50.34237" lon="4.43934">
        <ele>223</ele>
        <time>2024-03-07T15:10:31Z</time>
      </trkpt>
      <trkpt lat="50.34251" lon="4.43921">
        <ele>222.6</ele>
        <time>2024-03-07T15:10:35Z</time>
      </trkpt>
      <trkpt lat="50.34261" lon="4.43914">
        <ele>222.4</ele>
        <time>2024-03-07T15:10:37Z</time>
      </trkpt>
      <trkpt lat="50.3427" lon="4.43906">
        <ele>222.2</ele>
        <time>2024-03-07T15:10:40Z</time>
      </trkpt>
      <trkpt lat="50.3428" lon="4.43896">
        <ele>222</ele>
        <time>2024-03-07T15:10:43Z</time>
      </trkpt>
      <trkpt lat="50.34292" lon="4.43886">
        <ele>221.8</ele>
        <time>2024-03-07T15:10:48Z</time>
      </trkpt>
      <trkpt lat="50.34295" lon="4.43888">
        <ele>221.8</ele>
        <time>2024-03-07T15:10:50Z</time>
      </trkpt>
      <trkpt lat="50.34298" lon="4.43893">
        <ele>221.6</ele>
        <time>2024-03-07T15:10:52Z</time>
      </trkpt>
      <trkpt lat="50.34303" lon="4.43908">
        <ele>221.4</ele>
        <time>2024-03-07T15:10:56Z</time>
      </trkpt>
      <trkpt lat="50.34312" lon="4.43939">
        <ele>221</ele>
        <time>2024-03-07T15:11:02Z</time>
      </trkpt>
      <trkpt lat="50.34321" lon="4.43969">
        <ele>220.6</ele>
        <time>2024-03-07T15:11:08Z</time>
      </trkpt>
      <trkpt lat="50.34326" lon="4.43992">
        <ele>220.6</ele>
        <time>2024-03-07T15:11:13Z</time>
      </trkpt>
      <trkpt lat="50.34335" lon="4.44022">
        <ele>220.6</ele>
        <time>2024-03-07T15:11:19Z</time>
      </trkpt>
      <trkpt lat="50.34342" lon="4.44045">
        <ele>220.8</ele>
        <time>2024-03-07T15:11:25Z</time>
      </trkpt>
      <trkpt lat="50.34347" lon="4.44062">
        <ele>220.6</ele>
        <time>2024-03-07T15:11:31Z</time>
      </trkpt>
      <trkpt lat="50.34353" lon="4.4408">
        <ele>220.4</ele>
        <time>2024-03-07T15:11:37Z</time>
      </trkpt>
      <trkpt lat="50.34361" lon="4.44076">
        <ele>220.6</ele>
        <time>2024-03-07T15:11:41Z</time>
      </trkpt>
      <trkpt lat="50.34362" lon="4.44075">
        <ele>220.6</ele>
        <time>2024-03-07T15:11:42Z</time>
      </trkpt>
      <trkpt lat="50.34364" lon="4.4408">
        <ele>220.6</ele>
        <time>2024-03-07T15:11:44Z</time>
      </trkpt>
      <trkpt lat="50.34368" lon="4.44094">
        <ele>220.6</ele>
        <time>2024-03-07T15:11:48Z</time>
      </trkpt>
      <trkpt lat="50.3437" lon="4.44097">
        <ele>220.6</ele>
        <time>2024-03-07T15:11:51Z</time>
      </trkpt>
      <trkpt lat="50.34372" lon="4.44099">
        <ele>220.4</ele>
        <time>2024-03-07T15:11:52Z</time>
      </trkpt>
      <trkpt lat="50.34374" lon="4.44103">
        <ele>220.4</ele>
        <time>2024-03-07T15:11:53Z</time>
      </trkpt>
      <trkpt lat="50.34377" lon="4.44117">
        <ele>220.2</ele>
        <time>2024-03-07T15:11:56Z</time>
      </trkpt>
      <trkpt lat="50.3438" lon="4.44133">
        <ele>220.2</ele>
        <time>2024-03-07T15:12:02Z</time>
      </trkpt>
      <trkpt lat="50.34381" lon="4.44136">
        <ele>220.2</ele>
        <time>2024-03-07T15:12:07Z</time>
      </trkpt>
      <trkpt lat="50.34381" lon="4.44136">
        <ele>220</ele>
        <time>2024-03-07T15:12:20Z</time>
      </trkpt>
      <trkpt lat="50.34384" lon="4.44139">
        <ele>220</ele>
        <time>2024-03-07T15:12:32Z</time>
      </trkpt>
      <trkpt lat="50.34386" lon="4.44139">
        <ele>220.2</ele>
        <time>2024-03-07T15:12:33Z</time>
      </trkpt>
      <trkpt lat="50.34394" lon="4.44134">
        <ele>220.2</ele>
        <time>2024-03-07T15:12:36Z</time>
      </trkpt>
      <trkpt lat="50.34406" lon="4.44122">
        <ele>220.2</ele>
        <time>2024-03-07T15:12:40Z</time>
      </trkpt>
      <trkpt lat="50.34409" lon="4.44122">
        <ele>220.2</ele>
        <time>2024-03-07T15:12:41Z</time>
      </trkpt>
      <trkpt lat="50.34416" lon="4.44135">
        <ele>220</ele>
        <time>2024-03-07T15:12:44Z</time>
      </trkpt>
      <trkpt lat="50.34425" lon="4.44156">
        <ele>220.2</ele>
        <time>2024-03-07T15:12:48Z</time>
      </trkpt>
      <trkpt lat="50.34432" lon="4.44179">
        <ele>220.2</ele>
        <time>2024-03-07T15:12:53Z</time>
      </trkpt>
      <trkpt lat="50.34447" lon="4.44216">
        <ele>220.2</ele>
        <time>2024-03-07T15:13:00Z</time>
      </trkpt>
      <trkpt lat="50.34454" lon="4.44237">
        <ele>220.2</ele>
        <time>2024-03-07T15:13:05Z</time>
      </trkpt>
      <trkpt lat="50.34463" lon="4.44247">
        <ele>220.2</ele>
        <time>2024-03-07T15:13:09Z</time>
      </trkpt>
      <trkpt lat="50.34476" lon="4.44255">
        <ele>220</ele>
        <time>2024-03-07T15:13:14Z</time>
      </trkpt>
      <trkpt lat="50.34495" lon="4.44264">
        <ele>219.6</ele>
        <time>2024-03-07T15:13:19Z</time>
      </trkpt>
      <trkpt lat="50.34515" lon="4.44275">
        <ele>219.4</ele>
        <time>2024-03-07T15:13:24Z</time>
      </trkpt>
      <trkpt lat="50.34546" lon="4.44293">
        <ele>219.4</ele>
        <time>2024-03-07T15:13:31Z</time>
      </trkpt>
      <trkpt lat="50.34571" lon="4.44306">
        <ele>219.2</ele>
        <time>2024-03-07T15:13:38Z</time>
      </trkpt>
      <trkpt lat="50.34588" lon="4.44314">
        <ele>219</ele>
        <time>2024-03-07T15:13:43Z</time>
      </trkpt>
      <trkpt lat="50.34589" lon="4.44315">
        <ele>218.8</ele>
        <time>2024-03-07T15:13:44Z</time>
      </trkpt>
      <trkpt lat="50.34599" lon="4.44321">
        <ele>218.8</ele>
        <time>2024-03-07T15:13:48Z</time>
      </trkpt>
      <trkpt lat="50.34631" lon="4.44339">
        <ele>218.6</ele>
        <time>2024-03-07T15:13:54Z</time>
      </trkpt>
      <trkpt lat="50.34659" lon="4.44355">
        <ele>218.4</ele>
        <time>2024-03-07T15:13:59Z</time>
      </trkpt>
      <trkpt lat="50.34694" lon="4.44375">
        <ele>218</ele>
        <time>2024-03-07T15:14:06Z</time>
      </trkpt>
      <trkpt lat="50.3471" lon="4.44383">
        <ele>217.6</ele>
        <time>2024-03-07T15:14:10Z</time>
      </trkpt>
      <trkpt lat="50.34718" lon="4.44387">
        <ele>217.4</ele>
        <time>2024-03-07T15:14:12Z</time>
      </trkpt>
      <trkpt lat="50.34732" lon="4.44389">
        <ele>217</ele>
        <time>2024-03-07T15:14:16Z</time>
      </trkpt>
      <trkpt lat="50.34747" lon="4.44388">
        <ele>216.2</ele>
        <time>2024-03-07T15:14:22Z</time>
      </trkpt>
      <trkpt lat="50.34754" lon="4.44384">
        <ele>215.4</ele>
        <time>2024-03-07T15:14:27Z</time>
      </trkpt>
      <trkpt lat="50.34755" lon="4.44382">
        <ele>215.4</ele>
        <time>2024-03-07T15:14:28Z</time>
      </trkpt>
      <trkpt lat="50.34753" lon="4.44369">
        <ele>215</ele>
        <time>2024-03-07T15:14:33Z</time>
      </trkpt>
      <trkpt lat="50.34753" lon="4.44366">
        <ele>215</ele>
        <time>2024-03-07T15:14:34Z</time>
      </trkpt>
      <trkpt lat="50.34756" lon="4.44363">
        <ele>214.8</ele>
        <time>2024-03-07T15:14:36Z</time>
      </trkpt>
      <trkpt lat="50.34766" lon="4.44357">
        <ele>214.4</ele>
        <time>2024-03-07T15:14:41Z</time>
      </trkpt>
      <trkpt lat="50.34778" lon="4.44348">
        <ele>214</ele>
        <time>2024-03-07T15:14:47Z</time>
      </trkpt>
      <trkpt lat="50.3479" lon="4.4434">
        <ele>213.4</ele>
        <time>2024-03-07T15:14:53Z</time>
      </trkpt>
      <trkpt lat="50.34803" lon="4.44332">
        <ele>213</ele>
        <time>2024-03-07T15:14:58Z</time>
      </trkpt>
      <trkpt lat="50.34823" lon="4.44319">
        <ele>212.8</ele>
        <time>2024-03-07T15:15:06Z</time>
      </trkpt>
      <trkpt lat="50.3484" lon="4.44308">
        <ele>212.8</ele>
        <time>2024-03-07T15:15:13Z</time>
      </trkpt>
      <trkpt lat="50.34858" lon="4.44295">
        <ele>212.2</ele>
        <time>2024-03-07T15:15:21Z</time>
      </trkpt>
      <trkpt lat="50.34863" lon="4.44292">
        <ele>212</ele>
        <time>2024-03-07T15:15:24Z</time>
      </trkpt>
      <trkpt lat="50.34865" lon="4.44291">
        <ele>211.8</ele>
        <time>2024-03-07T15:15:25Z</time>
      </trkpt>
      <trkpt lat="50.34866" lon="4.44289">
        <ele>211.8</ele>
        <time>2024-03-07T15:15:26Z</time>
      </trkpt>
      <trkpt lat="50.34868" lon="4.44285">
        <ele>211.6</ele>
        <time>2024-03-07T15:15:28Z</time>
      </trkpt>
      <trkpt lat="50.34876" lon="4.4428">
        <ele>211.2</ele>
        <time>2024-03-07T15:15:32Z</time>
      </trkpt>
      <trkpt lat="50.34878" lon="4.44281">
        <ele>211</ele>
        <time>2024-03-07T15:15:33Z</time>
      </trkpt>
      <trkpt lat="50.34887" lon="4.44291">
        <ele>210.6</ele>
        <time>2024-03-07T15:15:39Z</time>
      </trkpt>
      <trkpt lat="50.34892" lon="4.44302">
        <ele>210.2</ele>
        <time>2024-03-07T15:15:44Z</time>
      </trkpt>
      <trkpt lat="50.34893" lon="4.44304">
        <ele>209.8</ele>
        <time>2024-03-07T15:15:50Z</time>
      </trkpt>
      <trkpt lat="50.34893" lon="4.44304">
        <ele>208.8</ele>
        <time>2024-03-07T15:16:08Z</time>
      </trkpt>
      <trkpt lat="50.34893" lon="4.44304">
        <ele>208.2</ele>
        <time>2024-03-07T15:16:24Z</time>
      </trkpt>
      <trkpt lat="50.34893" lon="4.44303">
        <ele>207.8</ele>
        <time>2024-03-07T15:16:34Z</time>
      </trkpt>
      <trkpt lat="50.34893" lon="4.44303">
        <ele>207.4</ele>
        <time>2024-03-07T15:16:45Z</time>
      </trkpt>
      <trkpt lat="50.34893" lon="4.44303">
        <ele>207</ele>
        <time>2024-03-07T15:17:03Z</time>
      </trkpt>
      <trkpt lat="50.34902" lon="4.44318">
        <ele>207</ele>
        <time>2024-03-07T15:17:09Z</time>
      </trkpt>
      <trkpt lat="50.34911" lon="4.44326">
        <ele>206.8</ele>
        <time>2024-03-07T15:17:13Z</time>
      </trkpt>
      <trkpt lat="50.34923" lon="4.44335">
        <ele>206.4</ele>
        <time>2024-03-07T15:17:18Z</time>
      </trkpt>
      <trkpt lat="50.34939" lon="4.44345">
        <ele>205.8</ele>
        <time>2024-03-07T15:17:23Z</time>
      </trkpt>
      <trkpt lat="50.34953" lon="4.44353">
        <ele>205.4</ele>
        <time>2024-03-07T15:17:28Z</time>
      </trkpt>
      <trkpt lat="50.3496" lon="4.44357">
        <ele>205.2</ele>
        <time>2024-03-07T15:17:31Z</time>
      </trkpt>
      <trkpt lat="50.34962" lon="4.44359">
        <ele>205.2</ele>
        <time>2024-03-07T15:17:32Z</time>
      </trkpt>
      <trkpt lat="50.34969" lon="4.44363">
        <ele>205</ele>
        <time>2024-03-07T15:17:34Z</time>
      </trkpt>
      <trkpt lat="50.34982" lon="4.44371">
        <ele>204.6</ele>
        <time>2024-03-07T15:17:38Z</time>
      </trkpt>
      <trkpt lat="50.34996" lon="4.44379">
        <ele>204.2</ele>
        <time>2024-03-07T15:17:42Z</time>
      </trkpt>
      <trkpt lat="50.3501" lon="4.44393">
        <ele>203.4</ele>
        <time>2024-03-07T15:17:47Z</time>
      </trkpt>
      <trkpt lat="50.35013" lon="4.44401">
        <ele>203.2</ele>
        <time>2024-03-07T15:17:49Z</time>
      </trkpt>
      <trkpt lat="50.35014" lon="4.44407">
        <ele>203</ele>
        <time>2024-03-07T15:17:50Z</time>
      </trkpt>
      <trkpt lat="50.35014" lon="4.44413">
        <ele>202.8</ele>
        <time>2024-03-07T15:17:51Z</time>
      </trkpt>
      <trkpt lat="50.35016" lon="4.44432">
        <ele>202.8</ele>
        <time>2024-03-07T15:17:54Z</time>
      </trkpt>
      <trkpt lat="50.35018" lon="4.44465">
        <ele>202.8</ele>
        <time>2024-03-07T15:17:59Z</time>
      </trkpt>
      <trkpt lat="50.3502" lon="4.445">
        <ele>203</ele>
        <time>2024-03-07T15:18:04Z</time>
      </trkpt>
      <trkpt lat="50.35031" lon="4.44504">
        <ele>203.2</ele>
        <time>2024-03-07T15:18:07Z</time>
      </trkpt>
      <trkpt lat="50.3504" lon="4.44504">
        <ele>202</ele>
        <time>2024-03-07T15:18:09Z</time>
      </trkpt>
      <trkpt lat="50.35047" lon="4.44503">
        <ele>202.8</ele>
        <time>2024-03-07T15:18:11Z</time>
      </trkpt>
      <trkpt lat="50.35061" lon="4.44501">
        <ele>201.6</ele>
        <time>2024-03-07T15:18:16Z</time>
      </trkpt>
      <trkpt lat="50.35077" lon="4.44496">
        <ele>200.4</ele>
        <time>2024-03-07T15:18:21Z</time>
      </trkpt>
      <trkpt lat="50.35095" lon="4.44492">
        <ele>199</ele>
        <time>2024-03-07T15:18:27Z</time>
      </trkpt>
      <trkpt lat="50.35111" lon="4.4449">
        <ele>199</ele>
        <time>2024-03-07T15:18:31Z</time>
      </trkpt>
      <trkpt lat="50.35132" lon="4.44486">
        <ele>197.8</ele>
        <time>2024-03-07T15:18:37Z</time>
      </trkpt>
      <trkpt lat="50.35155" lon="4.44485">
        <ele>197</ele>
        <time>2024-03-07T15:18:42Z</time>
      </trkpt>
      <trkpt lat="50.35179" lon="4.44487">
        <ele>196.2</ele>
        <time>2024-03-07T15:18:48Z</time>
      </trkpt>
      <trkpt lat="50.35196" lon="4.44481">
        <ele>195.4</ele>
        <time>2024-03-07T15:18:53Z</time>
      </trkpt>
      <trkpt lat="50.35215" lon="4.44473">
        <ele>194.4</ele>
        <time>2024-03-07T15:18:59Z</time>
      </trkpt>
      <trkpt lat="50.35231" lon="4.44464">
        <ele>193.4</ele>
        <time>2024-03-07T15:19:04Z</time>
      </trkpt>
      <trkpt lat="50.35244" lon="4.44453">
        <ele>192.6</ele>
        <time>2024-03-07T15:19:08Z</time>
      </trkpt>
      <trkpt lat="50.35248" lon="4.44442">
        <ele>191.6</ele>
        <time>2024-03-07T15:19:11Z</time>
      </trkpt>
      <trkpt lat="50.3525" lon="4.4444">
        <ele>191.4</ele>
        <time>2024-03-07T15:19:12Z</time>
      </trkpt>
      <trkpt lat="50.35259" lon="4.44432">
        <ele>190.6</ele>
        <time>2024-03-07T15:19:14Z</time>
      </trkpt>
      <trkpt lat="50.35264" lon="4.44428">
        <ele>190.2</ele>
        <time>2024-03-07T15:19:15Z</time>
      </trkpt>
      <trkpt lat="50.35289" lon="4.44413">
        <ele>189</ele>
        <time>2024-03-07T15:19:20Z</time>
      </trkpt>
      <trkpt lat="50.35304" lon="4.44406">
        <ele>188</ele>
        <time>2024-03-07T15:19:24Z</time>
      </trkpt>
      <trkpt lat="50.35319" lon="4.44399">
        <ele>186.8</ele>
        <time>2024-03-07T15:19:28Z</time>
      </trkpt>
      <trkpt lat="50.35334" lon="4.44393">
        <ele>185.8</ele>
        <time>2024-03-07T15:19:32Z</time>
      </trkpt>
      <trkpt lat="50.35352" lon="4.44388">
        <ele>185.8</ele>
        <time>2024-03-07T15:19:36Z</time>
      </trkpt>
      <trkpt lat="50.35371" lon="4.44376">
        <ele>188.2</ele>
        <time>2024-03-07T15:19:41Z</time>
      </trkpt>
      <trkpt lat="50.35378" lon="4.44381">
        <ele>189.6</ele>
        <time>2024-03-07T15:19:45Z</time>
      </trkpt>
      <trkpt lat="50.35385" lon="4.44388">
        <ele>190</ele>
        <time>2024-03-07T15:19:48Z</time>
      </trkpt>
      <trkpt lat="50.35388" lon="4.4439">
        <ele>190</ele>
        <time>2024-03-07T15:19:49Z</time>
      </trkpt>
      <trkpt lat="50.35399" lon="4.44404">
        <ele>189.8</ele>
        <time>2024-03-07T15:19:53Z</time>
      </trkpt>
      <trkpt lat="50.35412" lon="4.4442">
        <ele>190</ele>
        <time>2024-03-07T15:19:58Z</time>
      </trkpt>
      <trkpt lat="50.35421" lon="4.44427">
        <ele>190.6</ele>
        <time>2024-03-07T15:20:02Z</time>
      </trkpt>
      <trkpt lat="50.35421" lon="4.44431">
        <ele>190.6</ele>
        <time>2024-03-07T15:20:03Z</time>
      </trkpt>
      <trkpt lat="50.35423" lon="4.44434">
        <ele>190.8</ele>
        <time>2024-03-07T15:20:04Z</time>
      </trkpt>
      <trkpt lat="50.35428" lon="4.44443">
        <ele>191.2</ele>
        <time>2024-03-07T15:20:07Z</time>
      </trkpt>
      <trkpt lat="50.35437" lon="4.44458">
        <ele>192</ele>
        <time>2024-03-07T15:20:12Z</time>
      </trkpt>
      <trkpt lat="50.35451" lon="4.44481">
        <ele>193.4</ele>
        <time>2024-03-07T15:20:18Z</time>
      </trkpt>
      <trkpt lat="50.35464" lon="4.44501">
        <ele>194.6</ele>
        <time>2024-03-07T15:20:24Z</time>
      </trkpt>
      <trkpt lat="50.35473" lon="4.44517">
        <ele>195.6</ele>
        <time>2024-03-07T15:20:28Z</time>
      </trkpt>
      <trkpt lat="50.35481" lon="4.44534">
        <ele>196.4</ele>
        <time>2024-03-07T15:20:32Z</time>
      </trkpt>
      <trkpt lat="50.35489" lon="4.44547">
        <ele>197.2</ele>
        <time>2024-03-07T15:20:36Z</time>
      </trkpt>
      <trkpt lat="50.35492" lon="4.4455">
        <ele>197.6</ele>
        <time>2024-03-07T15:20:38Z</time>
      </trkpt>
      <trkpt lat="50.35494" lon="4.44556">
        <ele>198</ele>
        <time>2024-03-07T15:20:41Z</time>
      </trkpt>
      <trkpt lat="50.35495" lon="4.44558">
        <ele>198.2</ele>
        <time>2024-03-07T15:20:42Z</time>
      </trkpt>
      <trkpt lat="50.35495" lon="4.44559">
        <ele>198.8</ele>
        <time>2024-03-07T15:20:45Z</time>
      </trkpt>
      <trkpt lat="50.35495" lon="4.44559">
        <ele>199.8</ele>
        <time>2024-03-07T15:20:52Z</time>
      </trkpt>
      <trkpt lat="50.35495" lon="4.44559">
        <ele>200.4</ele>
        <time>2024-03-07T15:20:55Z</time>
      </trkpt>
      <trkpt lat="50.35499" lon="4.44564">
        <ele>201</ele>
        <time>2024-03-07T15:20:58Z</time>
      </trkpt>
      <trkpt lat="50.35501" lon="4.44566">
        <ele>201.2</ele>
        <time>2024-03-07T15:20:59Z</time>
      </trkpt>
      <trkpt lat="50.35504" lon="4.44573">
        <ele>201.6</ele>
        <time>2024-03-07T15:21:02Z</time>
      </trkpt>
      <trkpt lat="50.35507" lon="4.44577">
        <ele>202.2</ele>
        <time>2024-03-07T15:21:06Z</time>
      </trkpt>
      <trkpt lat="50.35514" lon="4.44582">
        <ele>202.8</ele>
        <time>2024-03-07T15:21:10Z</time>
      </trkpt>
      <trkpt lat="50.35517" lon="4.44583">
        <ele>203.2</ele>
        <time>2024-03-07T15:21:11Z</time>
      </trkpt>
      <trkpt lat="50.35523" lon="4.44585">
        <ele>203.6</ele>
        <time>2024-03-07T15:21:14Z</time>
      </trkpt>
      <trkpt lat="50.35524" lon="4.44587">
        <ele>203.6</ele>
        <time>2024-03-07T15:21:15Z</time>
      </trkpt>
      <trkpt lat="50.3553" lon="4.44597">
        <ele>204.4</ele>
        <time>2024-03-07T15:21:20Z</time>
      </trkpt>
      <trkpt lat="50.3554" lon="4.44608">
        <ele>205</ele>
        <time>2024-03-07T15:21:25Z</time>
      </trkpt>
      <trkpt lat="50.35548" lon="4.44617">
        <ele>205.2</ele>
        <time>2024-03-07T15:21:29Z</time>
      </trkpt>
      <trkpt lat="50.35554" lon="4.44625">
        <ele>205.6</ele>
        <time>2024-03-07T15:21:33Z</time>
      </trkpt>
      <trkpt lat="50.35564" lon="4.44636">
        <ele>205.8</ele>
        <time>2024-03-07T15:21:39Z</time>
      </trkpt>
      <trkpt lat="50.35568" lon="4.44639">
        <ele>205.8</ele>
        <time>2024-03-07T15:21:41Z</time>
      </trkpt>
      <trkpt lat="50.35573" lon="4.44645">
        <ele>205.8</ele>
        <time>2024-03-07T15:21:44Z</time>
      </trkpt>
      <trkpt lat="50.35576" lon="4.44647">
        <ele>206</ele>
        <time>2024-03-07T15:21:49Z</time>
      </trkpt>
      <trkpt lat="50.35576" lon="4.44647">
        <ele>206.8</ele>
        <time>2024-03-07T15:22:05Z</time>
      </trkpt>
      <trkpt lat="50.35576" lon="4.44647">
        <ele>207.4</ele>
        <time>2024-03-07T15:22:23Z</time>
      </trkpt>
      <trkpt lat="50.35576" lon="4.44647">
        <ele>207.6</ele>
        <time>2024-03-07T15:22:42Z</time>
      </trkpt>
      <trkpt lat="50.3558" lon="4.44652">
        <ele>207.8</ele>
        <time>2024-03-07T15:22:50Z</time>
      </trkpt>
      <trkpt lat="50.35594" lon="4.44667">
        <ele>207.8</ele>
        <time>2024-03-07T15:22:55Z</time>
      </trkpt>
      <trkpt lat="50.35606" lon="4.4468">
        <ele>207.4</ele>
        <time>2024-03-07T15:23:00Z</time>
      </trkpt>
      <trkpt lat="50.35626" lon="4.44699">
        <ele>208</ele>
        <time>2024-03-07T15:23:06Z</time>
      </trkpt>
      <trkpt lat="50.35646" lon="4.44717">
        <ele>209.2</ele>
        <time>2024-03-07T15:23:12Z</time>
      </trkpt>
      <trkpt lat="50.35665" lon="4.44734">
        <ele>210</ele>
        <time>2024-03-07T15:23:17Z</time>
      </trkpt>
      <trkpt lat="50.35667" lon="4.44739">
        <ele>210</ele>
        <time>2024-03-07T15:23:18Z</time>
      </trkpt>
      <trkpt lat="50.35669" lon="4.44746">
        <ele>210.4</ele>
        <time>2024-03-07T15:23:20Z</time>
      </trkpt>
      <trkpt lat="50.35679" lon="4.44764">
        <ele>210.8</ele>
        <time>2024-03-07T15:23:24Z</time>
      </trkpt>
      <trkpt lat="50.35685" lon="4.4477">
        <ele>211.2</ele>
        <time>2024-03-07T15:23:26Z</time>
      </trkpt>
      <trkpt lat="50.35695" lon="4.4478">
        <ele>211.6</ele>
        <time>2024-03-07T15:23:29Z</time>
      </trkpt>
      <trkpt lat="50.35707" lon="4.44795">
        <ele>212.2</ele>
        <time>2024-03-07T15:23:33Z</time>
      </trkpt>
      <trkpt lat="50.3572" lon="4.44813">
        <ele>212.4</ele>
        <time>2024-03-07T15:23:38Z</time>
      </trkpt>
      <trkpt lat="50.35731" lon="4.44838">
        <ele>213</ele>
        <time>2024-03-07T15:23:43Z</time>
      </trkpt>
      <trkpt lat="50.35737" lon="4.44862">
        <ele>214</ele>
        <time>2024-03-07T15:23:48Z</time>
      </trkpt>
      <trkpt lat="50.35745" lon="4.44886">
        <ele>214.8</ele>
        <time>2024-03-07T15:23:52Z</time>
      </trkpt>
      <trkpt lat="50.35755" lon="4.44905">
        <ele>215.2</ele>
        <time>2024-03-07T15:23:56Z</time>
      </trkpt>
      <trkpt lat="50.35766" lon="4.44918">
        <ele>215.6</ele>
        <time>2024-03-07T15:24:00Z</time>
      </trkpt>
      <trkpt lat="50.3578" lon="4.44937">
        <ele>216.6</ele>
        <time>2024-03-07T15:24:05Z</time>
      </trkpt>
      <trkpt lat="50.35795" lon="4.44954">
        <ele>216.8</ele>
        <time>2024-03-07T15:24:11Z</time>
      </trkpt>
      <trkpt lat="50.35802" lon="4.44967">
        <ele>217</ele>
        <time>2024-03-07T15:24:15Z</time>
      </trkpt>
      <trkpt lat="50.35814" lon="4.44987">
        <ele>217.2</ele>
        <time>2024-03-07T15:24:20Z</time>
      </trkpt>
      <trkpt lat="50.35819" lon="4.44998">
        <ele>217.4</ele>
        <time>2024-03-07T15:24:24Z</time>
      </trkpt>
      <trkpt lat="50.35827" lon="4.45017">
        <ele>218</ele>
        <time>2024-03-07T15:24:29Z</time>
      </trkpt>
      <trkpt lat="50.35837" lon="4.45041">
        <ele>218.8</ele>
        <time>2024-03-07T15:24:35Z</time>
      </trkpt>
      <trkpt lat="50.35843" lon="4.45056">
        <ele>219</ele>
        <time>2024-03-07T15:24:39Z</time>
      </trkpt>
      <trkpt lat="50.35852" lon="4.45073">
        <ele>219.2</ele>
        <time>2024-03-07T15:24:43Z</time>
      </trkpt>
      <trkpt lat="50.35861" lon="4.45091">
        <ele>219.6</ele>
        <time>2024-03-07T15:24:47Z</time>
      </trkpt>
      <trkpt lat="50.35869" lon="4.45102">
        <ele>219.8</ele>
        <time>2024-03-07T15:24:51Z</time>
      </trkpt>
      <trkpt lat="50.35879" lon="4.45108">
        <ele>220</ele>
        <time>2024-03-07T15:24:56Z</time>
      </trkpt>
      <trkpt lat="50.35881" lon="4.45111">
        <ele>220</ele>
        <time>2024-03-07T15:24:57Z</time>
      </trkpt>
      <trkpt lat="50.35885" lon="4.45117">
        <ele>220</ele>
        <time>2024-03-07T15:24:59Z</time>
      </trkpt>
      <trkpt lat="50.35892" lon="4.45133">
        <ele>220.2</ele>
        <time>2024-03-07T15:25:04Z</time>
      </trkpt>
      <trkpt lat="50.359" lon="4.45147">
        <ele>220.4</ele>
        <time>2024-03-07T15:25:09Z</time>
      </trkpt>
      <trkpt lat="50.359" lon="4.45148">
        <ele>220.4</ele>
        <time>2024-03-07T15:25:13Z</time>
      </trkpt>
      <trkpt lat="50.359" lon="4.45148">
        <ele>220.8</ele>
        <time>2024-03-07T15:25:21Z</time>
      </trkpt>
      <trkpt lat="50.359" lon="4.45148">
        <ele>221</ele>
        <time>2024-03-07T15:25:31Z</time>
      </trkpt>
      <trkpt lat="50.359" lon="4.45148">
        <ele>221.2</ele>
        <time>2024-03-07T15:25:36Z</time>
      </trkpt>
      <trkpt lat="50.35901" lon="4.45151">
        <ele>221</ele>
        <time>2024-03-07T15:25:37Z</time>
      </trkpt>
      <trkpt lat="50.35909" lon="4.45166">
        <ele>221</ele>
        <time>2024-03-07T15:25:41Z</time>
      </trkpt>
      <trkpt lat="50.35923" lon="4.45184">
        <ele>221.2</ele>
        <time>2024-03-07T15:25:46Z</time>
      </trkpt>
      <trkpt lat="50.35931" lon="4.45195">
        <ele>220.8</ele>
        <time>2024-03-07T15:25:50Z</time>
      </trkpt>
      <trkpt lat="50.35932" lon="4.45196">
        <ele>220.8</ele>
        <time>2024-03-07T15:25:51Z</time>
      </trkpt>
      <trkpt lat="50.35938" lon="4.45198">
        <ele>221</ele>
        <time>2024-03-07T15:25:54Z</time>
      </trkpt>
      <trkpt lat="50.35942" lon="4.452">
        <ele>221</ele>
        <time>2024-03-07T15:25:56Z</time>
      </trkpt>
      <trkpt lat="50.35948" lon="4.452">
        <ele>221.2</ele>
        <time>2024-03-07T15:25:59Z</time>
      </trkpt>
      <trkpt lat="50.35962" lon="4.45213">
        <ele>220.6</ele>
        <time>2024-03-07T15:26:05Z</time>
      </trkpt>
      <trkpt lat="50.3597" lon="4.45224">
        <ele>220.2</ele>
        <time>2024-03-07T15:26:10Z</time>
      </trkpt>
      <trkpt lat="50.35978" lon="4.45231">
        <ele>219.8</ele>
        <time>2024-03-07T15:26:16Z</time>
      </trkpt>
      <trkpt lat="50.3598" lon="4.45233">
        <ele>219.8</ele>
        <time>2024-03-07T15:26:20Z</time>
      </trkpt>
      <trkpt lat="50.3598" lon="4.45233">
        <ele>219.6</ele>
        <time>2024-03-07T15:26:26Z</time>
      </trkpt>
      <trkpt lat="50.3598" lon="4.45233">
        <ele>219.4</ele>
        <time>2024-03-07T15:26:32Z</time>
      </trkpt>
      <trkpt lat="50.35982" lon="4.45234">
        <ele>219.4</ele>
        <time>2024-03-07T15:26:33Z</time>
      </trkpt>
      <trkpt lat="50.35985" lon="4.45235">
        <ele>219.2</ele>
        <time>2024-03-07T15:26:39Z</time>
      </trkpt>
      <trkpt lat="50.35985" lon="4.45235">
        <ele>219</ele>
        <time>2024-03-07T15:26:41Z</time>
      </trkpt>
      <trkpt lat="50.3599" lon="4.45237">
        <ele>219</ele>
        <time>2024-03-07T15:26:44Z</time>
      </trkpt>
      <trkpt lat="50.36001" lon="4.45247">
        <ele>218.6</ele>
        <time>2024-03-07T15:26:50Z</time>
      </trkpt>
      <trkpt lat="50.36003" lon="4.45253">
        <ele>218.4</ele>
        <time>2024-03-07T15:26:52Z</time>
      </trkpt>
      <trkpt lat="50.36002" lon="4.45261">
        <ele>218.2</ele>
        <time>2024-03-07T15:26:55Z</time>
      </trkpt>
      <trkpt lat="50.36002" lon="4.45275">
        <ele>218</ele>
        <time>2024-03-07T15:27:00Z</time>
      </trkpt>
      <trkpt lat="50.36003" lon="4.45279">
        <ele>217.8</ele>
        <time>2024-03-07T15:27:02Z</time>
      </trkpt>
      <trkpt lat="50.36005" lon="4.45281">
        <ele>217.4</ele>
        <time>2024-03-07T15:27:06Z</time>
      </trkpt>
      <trkpt lat="50.36004" lon="4.45289">
        <ele>216.8</ele>
        <time>2024-03-07T15:27:09Z</time>
      </trkpt>
      <trkpt lat="50.36004" lon="4.45292">
        <ele>216.8</ele>
        <time>2024-03-07T15:27:10Z</time>
      </trkpt>
      <trkpt lat="50.3601" lon="4.45308">
        <ele>216</ele>
        <time>2024-03-07T15:27:16Z</time>
      </trkpt>
      <trkpt lat="50.36019" lon="4.45313">
        <ele>215.6</ele>
        <time>2024-03-07T15:27:21Z</time>
      </trkpt>
      <trkpt lat="50.3603" lon="4.45322">
        <ele>214.8</ele>
        <time>2024-03-07T15:27:27Z</time>
      </trkpt>
      <trkpt lat="50.36041" lon="4.45331">
        <ele>214.2</ele>
        <time>2024-03-07T15:27:31Z</time>
      </trkpt>
      <trkpt lat="50.36056" lon="4.45341">
        <ele>213</ele>
        <time>2024-03-07T15:27:36Z</time>
      </trkpt>
      <trkpt lat="50.36069" lon="4.45353">
        <ele>211.8</ele>
        <time>2024-03-07T15:27:41Z</time>
      </trkpt>
      <trkpt lat="50.3608" lon="4.45366">
        <ele>210.6</ele>
        <time>2024-03-07T15:27:46Z</time>
      </trkpt>
      <trkpt lat="50.36092" lon="4.45379">
        <ele>209.2</ele>
        <time>2024-03-07T15:27:51Z</time>
      </trkpt>
      <trkpt lat="50.36105" lon="4.45387">
        <ele>207.6</ele>
        <time>2024-03-07T15:27:56Z</time>
      </trkpt>
      <trkpt lat="50.36115" lon="4.45397">
        <ele>206</ele>
        <time>2024-03-07T15:28:00Z</time>
      </trkpt>
      <trkpt lat="50.36124" lon="4.45417">
        <ele>204.6</ele>
        <time>2024-03-07T15:28:05Z</time>
      </trkpt>
      <trkpt lat="50.36127" lon="4.45419">
        <ele>204.4</ele>
        <time>2024-03-07T15:28:06Z</time>
      </trkpt>
      <trkpt lat="50.36138" lon="4.45429">
        <ele>203.4</ele>
        <time>2024-03-07T15:28:11Z</time>
      </trkpt>
      <trkpt lat="50.36142" lon="4.45434">
        <ele>203</ele>
        <time>2024-03-07T15:28:13Z</time>
      </trkpt>
      <trkpt lat="50.3615" lon="4.45436">
        <ele>202.6</ele>
        <time>2024-03-07T15:28:16Z</time>
      </trkpt>
      <trkpt lat="50.36162" lon="4.45434">
        <ele>201.8</ele>
        <time>2024-03-07T15:28:20Z</time>
      </trkpt>
      <trkpt lat="50.36172" lon="4.45428">
        <ele>201.2</ele>
        <time>2024-03-07T15:28:24Z</time>
      </trkpt>
      <trkpt lat="50.36173" lon="4.45426">
        <ele>201.2</ele>
        <time>2024-03-07T15:28:25Z</time>
      </trkpt>
      <trkpt lat="50.36173" lon="4.45423">
        <ele>201.4</ele>
        <time>2024-03-07T15:28:26Z</time>
      </trkpt>
      <trkpt lat="50.36171" lon="4.45414">
        <ele>201</ele>
        <time>2024-03-07T15:28:29Z</time>
      </trkpt>
      <trkpt lat="50.3617" lon="4.45401">
        <ele>200.6</ele>
        <time>2024-03-07T15:28:33Z</time>
      </trkpt>
      <trkpt lat="50.3617" lon="4.45397">
        <ele>200.6</ele>
        <time>2024-03-07T15:28:34Z</time>
      </trkpt>
      <trkpt lat="50.36171" lon="4.45385">
        <ele>200.8</ele>
        <time>2024-03-07T15:28:37Z</time>
      </trkpt>
      <trkpt lat="50.36171" lon="4.45381">
        <ele>200.8</ele>
        <time>2024-03-07T15:28:38Z</time>
      </trkpt>
      <trkpt lat="50.36171" lon="4.45359">
        <ele>201.6</ele>
        <time>2024-03-07T15:28:43Z</time>
      </trkpt>
      <trkpt lat="50.36175" lon="4.45343">
        <ele>202</ele>
        <time>2024-03-07T15:28:47Z</time>
      </trkpt>
      <trkpt lat="50.3618" lon="4.45325">
        <ele>201.8</ele>
        <time>2024-03-07T15:28:51Z</time>
      </trkpt>
      <trkpt lat="50.3618" lon="4.45298">
        <ele>202.6</ele>
        <time>2024-03-07T15:28:57Z</time>
      </trkpt>
      <trkpt lat="50.36181" lon="4.45284">
        <ele>203.4</ele>
        <time>2024-03-07T15:29:00Z</time>
      </trkpt>
      <trkpt lat="50.36181" lon="4.45275">
        <ele>204.4</ele>
        <time>2024-03-07T15:29:02Z</time>
      </trkpt>
      <trkpt lat="50.36183" lon="4.4525">
        <ele>205.8</ele>
        <time>2024-03-07T15:29:06Z</time>
      </trkpt>
      <trkpt lat="50.36184" lon="4.45221">
        <ele>206.4</ele>
        <time>2024-03-07T15:29:10Z</time>
      </trkpt>
      <trkpt lat="50.36186" lon="4.45195">
        <ele>207.2</ele>
        <time>2024-03-07T15:29:15Z</time>
      </trkpt>
      <trkpt lat="50.36191" lon="4.45179">
        <ele>207.6</ele>
        <time>2024-03-07T15:29:19Z</time>
      </trkpt>
      <trkpt lat="50.36195" lon="4.45174">
        <ele>207.6</ele>
        <time>2024-03-07T15:29:21Z</time>
      </trkpt>
      <trkpt lat="50.36201" lon="4.45174">
        <ele>208</ele>
        <time>2024-03-07T15:29:24Z</time>
      </trkpt>
      <trkpt lat="50.36214" lon="4.4518">
        <ele>208.4</ele>
        <time>2024-03-07T15:29:29Z</time>
      </trkpt>
      <trkpt lat="50.36224" lon="4.45185">
        <ele>208.4</ele>
        <time>2024-03-07T15:29:32Z</time>
      </trkpt>
      <trkpt lat="50.36231" lon="4.45185">
        <ele>208.4</ele>
        <time>2024-03-07T15:29:34Z</time>
      </trkpt>
      <trkpt lat="50.36236" lon="4.45187">
        <ele>208.4</ele>
        <time>2024-03-07T15:29:36Z</time>
      </trkpt>
      <trkpt lat="50.36238" lon="4.45186">
        <ele>208.4</ele>
        <time>2024-03-07T15:29:37Z</time>
      </trkpt>
      <trkpt lat="50.36249" lon="4.45183">
        <ele>208.2</ele>
        <time>2024-03-07T15:29:41Z</time>
      </trkpt>
      <trkpt lat="50.36263" lon="4.45188">
        <ele>207.4</ele>
        <time>2024-03-07T15:29:46Z</time>
      </trkpt>
      <trkpt lat="50.36278" lon="4.45192">
        <ele>206.8</ele>
        <time>2024-03-07T15:29:51Z</time>
      </trkpt>
      <trkpt lat="50.36293" lon="4.45198">
        <ele>206.2</ele>
        <time>2024-03-07T15:29:56Z</time>
      </trkpt>
      <trkpt lat="50.36309" lon="4.45204">
        <ele>205.8</ele>
        <time>2024-03-07T15:30:00Z</time>
      </trkpt>
      <trkpt lat="50.36317" lon="4.45208">
        <ele>205.6</ele>
        <time>2024-03-07T15:30:02Z</time>
      </trkpt>
      <trkpt lat="50.36322" lon="4.45212">
        <ele>205.4</ele>
        <time>2024-03-07T15:30:03Z</time>
      </trkpt>
      <trkpt lat="50.36327" lon="4.45215">
        <ele>205.4</ele>
        <time>2024-03-07T15:30:04Z</time>
      </trkpt>
      <trkpt lat="50.36337" lon="4.45221">
        <ele>205</ele>
        <time>2024-03-07T15:30:06Z</time>
      </trkpt>
      <trkpt lat="50.36342" lon="4.45224">
        <ele>204.8</ele>
        <time>2024-03-07T15:30:07Z</time>
      </trkpt>
      <trkpt lat="50.36347" lon="4.45229">
        <ele>204.6</ele>
        <time>2024-03-07T15:30:08Z</time>
      </trkpt>
      <trkpt lat="50.36357" lon="4.45238">
        <ele>204.2</ele>
        <time>2024-03-07T15:30:10Z</time>
      </trkpt>
      <trkpt lat="50.36387" lon="4.45263">
        <ele>203.6</ele>
        <time>2024-03-07T15:30:15Z</time>
      </trkpt>
      <trkpt lat="50.36394" lon="4.45267">
        <ele>203.6</ele>
        <time>2024-03-07T15:30:16Z</time>
      </trkpt>
      <trkpt lat="50.36434" lon="4.45281">
        <ele>202.8</ele>
        <time>2024-03-07T15:30:22Z</time>
      </trkpt>
      <trkpt lat="50.36477" lon="4.45298">
        <ele>201.6</ele>
        <time>2024-03-07T15:30:29Z</time>
      </trkpt>
      <trkpt lat="50.36487" lon="4.45306">
        <ele>201</ele>
        <time>2024-03-07T15:30:32Z</time>
      </trkpt>
      <trkpt lat="50.36502" lon="4.45317">
        <ele>199.6</ele>
        <time>2024-03-07T15:30:38Z</time>
      </trkpt>
      <trkpt lat="50.36519" lon="4.45325">
        <ele>198.4</ele>
        <time>2024-03-07T15:30:44Z</time>
      </trkpt>
      <trkpt lat="50.36542" lon="4.45333">
        <ele>197</ele>
        <time>2024-03-07T15:30:50Z</time>
      </trkpt>
      <trkpt lat="50.36568" lon="4.45341">
        <ele>195.8</ele>
        <time>2024-03-07T15:30:57Z</time>
      </trkpt>
      <trkpt lat="50.36589" lon="4.45346">
        <ele>194.6</ele>
        <time>2024-03-07T15:31:03Z</time>
      </trkpt>
      <trkpt lat="50.36605" lon="4.45352">
        <ele>193.4</ele>
        <time>2024-03-07T15:31:08Z</time>
      </trkpt>
      <trkpt lat="50.36612" lon="4.45355">
        <ele>193</ele>
        <time>2024-03-07T15:31:10Z</time>
      </trkpt>
      <trkpt lat="50.36616" lon="4.45357">
        <ele>192.6</ele>
        <time>2024-03-07T15:31:11Z</time>
      </trkpt>
      <trkpt lat="50.36627" lon="4.45365">
        <ele>191.6</ele>
        <time>2024-03-07T15:31:15Z</time>
      </trkpt>
      <trkpt lat="50.36641" lon="4.4538">
        <ele>190.2</ele>
        <time>2024-03-07T15:31:20Z</time>
      </trkpt>
      <trkpt lat="50.36656" lon="4.45401">
        <ele>189.6</ele>
        <time>2024-03-07T15:31:24Z</time>
      </trkpt>
      <trkpt lat="50.36659" lon="4.45406">
        <ele>189.6</ele>
        <time>2024-03-07T15:31:25Z</time>
      </trkpt>
      <trkpt lat="50.36669" lon="4.45423">
        <ele>189</ele>
        <time>2024-03-07T15:31:28Z</time>
      </trkpt>
      <trkpt lat="50.36676" lon="4.45436">
        <ele>188.8</ele>
        <time>2024-03-07T15:31:30Z</time>
      </trkpt>
      <trkpt lat="50.36688" lon="4.45456">
        <ele>188.2</ele>
        <time>2024-03-07T15:31:33Z</time>
      </trkpt>
      <trkpt lat="50.36698" lon="4.45467">
        <ele>187.8</ele>
        <time>2024-03-07T15:31:35Z</time>
      </trkpt>
      <trkpt lat="50.36718" lon="4.45487">
        <ele>186.8</ele>
        <time>2024-03-07T15:31:39Z</time>
      </trkpt>
      <trkpt lat="50.36728" lon="4.45497">
        <ele>186.2</ele>
        <time>2024-03-07T15:31:41Z</time>
      </trkpt>
      <trkpt lat="50.36756" lon="4.45516">
        <ele>185</ele>
        <time>2024-03-07T15:31:46Z</time>
      </trkpt>
      <trkpt lat="50.36773" lon="4.45527">
        <ele>184.2</ele>
        <time>2024-03-07T15:31:50Z</time>
      </trkpt>
      <trkpt lat="50.36781" lon="4.45532">
        <ele>183.6</ele>
        <time>2024-03-07T15:31:52Z</time>
      </trkpt>
      <trkpt lat="50.36786" lon="4.45534">
        <ele>183.4</ele>
        <time>2024-03-07T15:31:53Z</time>
      </trkpt>
      <trkpt lat="50.3679" lon="4.45535">
        <ele>183</ele>
        <time>2024-03-07T15:31:54Z</time>
      </trkpt>
      <trkpt lat="50.36806" lon="4.45542">
        <ele>182.4</ele>
        <time>2024-03-07T15:31:57Z</time>
      </trkpt>
      <trkpt lat="50.36817" lon="4.45546">
        <ele>181.8</ele>
        <time>2024-03-07T15:31:59Z</time>
      </trkpt>
      <trkpt lat="50.36826" lon="4.45549">
        <ele>181.2</ele>
        <time>2024-03-07T15:32:01Z</time>
      </trkpt>
      <trkpt lat="50.3683" lon="4.45551">
        <ele>181</ele>
        <time>2024-03-07T15:32:02Z</time>
      </trkpt>
      <trkpt lat="50.36844" lon="4.45556">
        <ele>180.2</ele>
        <time>2024-03-07T15:32:05Z</time>
      </trkpt>
      <trkpt lat="50.36848" lon="4.45557">
        <ele>180</ele>
        <time>2024-03-07T15:32:06Z</time>
      </trkpt>
      <trkpt lat="50.36864" lon="4.45563">
        <ele>179.6</ele>
        <time>2024-03-07T15:32:10Z</time>
      </trkpt>
      <trkpt lat="50.36889" lon="4.45569">
        <ele>179.2</ele>
        <time>2024-03-07T15:32:16Z</time>
      </trkpt>
      <trkpt lat="50.36893" lon="4.45569">
        <ele>179</ele>
        <time>2024-03-07T15:32:17Z</time>
      </trkpt>
      <trkpt lat="50.36901" lon="4.45567">
        <ele>178.2</ele>
        <time>2024-03-07T15:32:19Z</time>
      </trkpt>
      <trkpt lat="50.36915" lon="4.4557">
        <ele>177.4</ele>
        <time>2024-03-07T15:32:23Z</time>
      </trkpt>
      <trkpt lat="50.36929" lon="4.45572">
        <ele>176.6</ele>
        <time>2024-03-07T15:32:26Z</time>
      </trkpt>
      <trkpt lat="50.36938" lon="4.45575">
        <ele>176</ele>
        <time>2024-03-07T15:32:28Z</time>
      </trkpt>
      <trkpt lat="50.36971" lon="4.45589">
        <ele>174.6</ele>
        <time>2024-03-07T15:32:34Z</time>
      </trkpt>
      <trkpt lat="50.36993" lon="4.45597">
        <ele>173.6</ele>
        <time>2024-03-07T15:32:38Z</time>
      </trkpt>
      <trkpt lat="50.37017" lon="4.45603">
        <ele>172.6</ele>
        <time>2024-03-07T15:32:43Z</time>
      </trkpt>
      <trkpt lat="50.37038" lon="4.45604">
        <ele>171.4</ele>
        <time>2024-03-07T15:32:47Z</time>
      </trkpt>
      <trkpt lat="50.37067" lon="4.45606">
        <ele>169.8</ele>
        <time>2024-03-07T15:32:52Z</time>
      </trkpt>
      <trkpt lat="50.37096" lon="4.45605">
        <ele>168.8</ele>
        <time>2024-03-07T15:32:57Z</time>
      </trkpt>
      <trkpt lat="50.37118" lon="4.45606">
        <ele>168.2</ele>
        <time>2024-03-07T15:33:01Z</time>
      </trkpt>
      <trkpt lat="50.37142" lon="4.45611">
        <ele>167</ele>
        <time>2024-03-07T15:33:06Z</time>
      </trkpt>
      <trkpt lat="50.37163" lon="4.45617">
        <ele>165.6</ele>
        <time>2024-03-07T15:33:11Z</time>
      </trkpt>
      <trkpt lat="50.37183" lon="4.45616">
        <ele>164.2</ele>
        <time>2024-03-07T15:33:16Z</time>
      </trkpt>
      <trkpt lat="50.3719" lon="4.45614">
        <ele>162.8</ele>
        <time>2024-03-07T15:33:19Z</time>
      </trkpt>
      <trkpt lat="50.37193" lon="4.45613">
        <ele>162.2</ele>
        <time>2024-03-07T15:33:20Z</time>
      </trkpt>
      <trkpt lat="50.37195" lon="4.4561">
        <ele>161.6</ele>
        <time>2024-03-07T15:33:21Z</time>
      </trkpt>
      <trkpt lat="50.37195" lon="4.45606">
        <ele>161</ele>
        <time>2024-03-07T15:33:23Z</time>
      </trkpt>
      <trkpt lat="50.37194" lon="4.45603">
        <ele>160.6</ele>
        <time>2024-03-07T15:33:24Z</time>
      </trkpt>
      <trkpt lat="50.37196" lon="4.45586">
        <ele>160</ele>
        <time>2024-03-07T15:33:28Z</time>
      </trkpt>
      <trkpt lat="50.37206" lon="4.45571">
        <ele>159.6</ele>
        <time>2024-03-07T15:33:33Z</time>
      </trkpt>
      <trkpt lat="50.37217" lon="4.45557">
        <ele>159.4</ele>
        <time>2024-03-07T15:33:38Z</time>
      </trkpt>
      <trkpt lat="50.37226" lon="4.45545">
        <ele>159.2</ele>
        <time>2024-03-07T15:33:43Z</time>
      </trkpt>
      <trkpt lat="50.37229" lon="4.45543">
        <ele>159.4</ele>
        <time>2024-03-07T15:33:44Z</time>
      </trkpt>
      <trkpt lat="50.37236" lon="4.45537">
        <ele>159.2</ele>
        <time>2024-03-07T15:33:47Z</time>
      </trkpt>
      <trkpt lat="50.37249" lon="4.45533">
        <ele>159.4</ele>
        <time>2024-03-07T15:33:51Z</time>
      </trkpt>
      <trkpt lat="50.37265" lon="4.4553">
        <ele>159.2</ele>
        <time>2024-03-07T15:33:55Z</time>
      </trkpt>
      <trkpt lat="50.37275" lon="4.45529">
        <ele>158.8</ele>
        <time>2024-03-07T15:33:58Z</time>
      </trkpt>
      <trkpt lat="50.37289" lon="4.45518">
        <ele>158.4</ele>
        <time>2024-03-07T15:34:03Z</time>
      </trkpt>
      <trkpt lat="50.37305" lon="4.45495">
        <ele>158</ele>
        <time>2024-03-07T15:34:09Z</time>
      </trkpt>
      <trkpt lat="50.37319" lon="4.45481">
        <ele>157.6</ele>
        <time>2024-03-07T15:34:13Z</time>
      </trkpt>
      <trkpt lat="50.37338" lon="4.45464">
        <ele>157.6</ele>
        <time>2024-03-07T15:34:17Z</time>
      </trkpt>
      <trkpt lat="50.37349" lon="4.45447">
        <ele>159</ele>
        <time>2024-03-07T15:34:20Z</time>
      </trkpt>
      <trkpt lat="50.37352" lon="4.45441">
        <ele>159.2</ele>
        <time>2024-03-07T15:34:21Z</time>
      </trkpt>
      <trkpt lat="50.37354" lon="4.45434">
        <ele>159.4</ele>
        <time>2024-03-07T15:34:22Z</time>
      </trkpt>
      <trkpt lat="50.37359" lon="4.45421">
        <ele>159.8</ele>
        <time>2024-03-07T15:34:24Z</time>
      </trkpt>
      <trkpt lat="50.37362" lon="4.45415">
        <ele>159.8</ele>
        <time>2024-03-07T15:34:25Z</time>
      </trkpt>
      <trkpt lat="50.37374" lon="4.45398">
        <ele>160.2</ele>
        <time>2024-03-07T15:34:28Z</time>
      </trkpt>
      <trkpt lat="50.37379" lon="4.45394">
        <ele>160.2</ele>
        <time>2024-03-07T15:34:29Z</time>
      </trkpt>
      <trkpt lat="50.37397" lon="4.45375">
        <ele>160.6</ele>
        <time>2024-03-07T15:34:33Z</time>
      </trkpt>
      <trkpt lat="50.3742" lon="4.4536">
        <ele>160.6</ele>
        <time>2024-03-07T15:34:37Z</time>
      </trkpt>
      <trkpt lat="50.37432" lon="4.45355">
        <ele>160.6</ele>
        <time>2024-03-07T15:34:39Z</time>
      </trkpt>
      <trkpt lat="50.37445" lon="4.45354">
        <ele>160.4</ele>
        <time>2024-03-07T15:34:41Z</time>
      </trkpt>
      <trkpt lat="50.37459" lon="4.45353">
        <ele>160.2</ele>
        <time>2024-03-07T15:34:43Z</time>
      </trkpt>
      <trkpt lat="50.37466" lon="4.4535">
        <ele>160</ele>
        <time>2024-03-07T15:34:44Z</time>
      </trkpt>
      <trkpt lat="50.37473" lon="4.45346">
        <ele>161.2</ele>
        <time>2024-03-07T15:34:45Z</time>
      </trkpt>
      <trkpt lat="50.37494" lon="4.4533">
        <ele>158.2</ele>
        <time>2024-03-07T15:34:48Z</time>
      </trkpt>
      <trkpt lat="50.37517" lon="4.45317">
        <ele>158.6</ele>
        <time>2024-03-07T15:34:51Z</time>
      </trkpt>
      <trkpt lat="50.37534" lon="4.45313">
        <ele>158.2</ele>
        <time>2024-03-07T15:34:53Z</time>
      </trkpt>
      <trkpt lat="50.37542" lon="4.45312">
        <ele>157.8</ele>
        <time>2024-03-07T15:34:54Z</time>
      </trkpt>
      <trkpt lat="50.37557" lon="4.45312">
        <ele>157.2</ele>
        <time>2024-03-07T15:34:56Z</time>
      </trkpt>
      <trkpt lat="50.3758" lon="4.4531">
        <ele>156</ele>
        <time>2024-03-07T15:35:00Z</time>
      </trkpt>
      <trkpt lat="50.37585" lon="4.4531">
        <ele>155.6</ele>
        <time>2024-03-07T15:35:01Z</time>
      </trkpt>
      <trkpt lat="50.3759" lon="4.45311">
        <ele>155.2</ele>
        <time>2024-03-07T15:35:03Z</time>
      </trkpt>
      <trkpt lat="50.37592" lon="4.4531">
        <ele>154.8</ele>
        <time>2024-03-07T15:35:04Z</time>
      </trkpt>
      <trkpt lat="50.37595" lon="4.45306">
        <ele>154.4</ele>
        <time>2024-03-07T15:35:06Z</time>
      </trkpt>
      <trkpt lat="50.37601" lon="4.45305">
        <ele>153.8</ele>
        <time>2024-03-07T15:35:08Z</time>
      </trkpt>
      <trkpt lat="50.37602" lon="4.45305">
        <ele>153.2</ele>
        <time>2024-03-07T15:35:11Z</time>
      </trkpt>
      <trkpt lat="50.37602" lon="4.45305">
        <ele>151.4</ele>
        <time>2024-03-07T15:35:22Z</time>
      </trkpt>
      <trkpt lat="50.37602" lon="4.45305">
        <ele>149.2</ele>
        <time>2024-03-07T15:35:36Z</time>
      </trkpt>
      <trkpt lat="50.37602" lon="4.45305">
        <ele>148.6</ele>
        <time>2024-03-07T15:35:40Z</time>
      </trkpt>
      <trkpt lat="50.37604" lon="4.45305">
        <ele>148.6</ele>
        <time>2024-03-07T15:35:41Z</time>
      </trkpt>
      <trkpt lat="50.37621" lon="4.45312">
        <ele>149.4</ele>
        <time>2024-03-07T15:35:46Z</time>
      </trkpt>
      <trkpt lat="50.37628" lon="4.45315">
        <ele>149.6</ele>
        <time>2024-03-07T15:35:48Z</time>
      </trkpt>
      <trkpt lat="50.37646" lon="4.45323">
        <ele>149.6</ele>
        <time>2024-03-07T15:35:52Z</time>
      </trkpt>
      <trkpt lat="50.37667" lon="4.45334">
        <ele>149.4</ele>
        <time>2024-03-07T15:35:57Z</time>
      </trkpt>
      <trkpt lat="50.37698" lon="4.45348">
        <ele>149.6</ele>
        <time>2024-03-07T15:36:03Z</time>
      </trkpt>
      <trkpt lat="50.37745" lon="4.45366">
        <ele>149.6</ele>
        <time>2024-03-07T15:36:10Z</time>
      </trkpt>
      <trkpt lat="50.37794" lon="4.45384">
        <ele>149.8</ele>
        <time>2024-03-07T15:36:17Z</time>
      </trkpt>
      <trkpt lat="50.37818" lon="4.4539">
        <ele>149.8</ele>
        <time>2024-03-07T15:36:21Z</time>
      </trkpt>
      <trkpt lat="50.37845" lon="4.45398">
        <ele>149.6</ele>
        <time>2024-03-07T15:36:26Z</time>
      </trkpt>
      <trkpt lat="50.37857" lon="4.45401">
        <ele>149.2</ele>
        <time>2024-03-07T15:36:29Z</time>
      </trkpt>
      <trkpt lat="50.37868" lon="4.45406">
        <ele>149</ele>
        <time>2024-03-07T15:36:33Z</time>
      </trkpt>
      <trkpt lat="50.37886" lon="4.45414">
        <ele>148</ele>
        <time>2024-03-07T15:36:39Z</time>
      </trkpt>
      <trkpt lat="50.37906" lon="4.45421">
        <ele>146.8</ele>
        <time>2024-03-07T15:36:44Z</time>
      </trkpt>
      <trkpt lat="50.37928" lon="4.45426">
        <ele>145.4</ele>
        <time>2024-03-07T15:36:49Z</time>
      </trkpt>
      <trkpt lat="50.37944" lon="4.45435">
        <ele>144.4</ele>
        <time>2024-03-07T15:36:53Z</time>
      </trkpt>
      <trkpt lat="50.37959" lon="4.4544">
        <ele>143.2</ele>
        <time>2024-03-07T15:36:57Z</time>
      </trkpt>
      <trkpt lat="50.37977" lon="4.45444">
        <ele>141.8</ele>
        <time>2024-03-07T15:37:02Z</time>
      </trkpt>
      <trkpt lat="50.37993" lon="4.45449">
        <ele>140.6</ele>
        <time>2024-03-07T15:37:06Z</time>
      </trkpt>
      <trkpt lat="50.38009" lon="4.45454">
        <ele>139.4</ele>
        <time>2024-03-07T15:37:10Z</time>
      </trkpt>
      <trkpt lat="50.38029" lon="4.45464">
        <ele>139.2</ele>
        <time>2024-03-07T15:37:15Z</time>
      </trkpt>
      <trkpt lat="50.38045" lon="4.45469">
        <ele>137.4</ele>
        <time>2024-03-07T15:37:20Z</time>
      </trkpt>
      <trkpt lat="50.38057" lon="4.45471">
        <ele>136.2</ele>
        <time>2024-03-07T15:37:24Z</time>
      </trkpt>
      <trkpt lat="50.38067" lon="4.45481">
        <ele>135.8</ele>
        <time>2024-03-07T15:37:29Z</time>
      </trkpt>
      <trkpt lat="50.38075" lon="4.45486">
        <ele>136.2</ele>
        <time>2024-03-07T15:37:34Z</time>
      </trkpt>
      <trkpt lat="50.38093" lon="4.45487">
        <ele>135.2</ele>
        <time>2024-03-07T15:37:39Z</time>
      </trkpt>
      <trkpt lat="50.38106" lon="4.45493">
        <ele>134.4</ele>
        <time>2024-03-07T15:37:44Z</time>
      </trkpt>
      <trkpt lat="50.38115" lon="4.45502">
        <ele>134.2</ele>
        <time>2024-03-07T15:37:51Z</time>
      </trkpt>
      <trkpt lat="50.38139" lon="4.4551">
        <ele>133.8</ele>
        <time>2024-03-07T15:37:58Z</time>
      </trkpt>
      <trkpt lat="50.3816" lon="4.45516">
        <ele>133.8</ele>
        <time>2024-03-07T15:38:03Z</time>
      </trkpt>
      <trkpt lat="50.3817" lon="4.45519">
        <ele>133</ele>
        <time>2024-03-07T15:38:07Z</time>
      </trkpt>
      <trkpt lat="50.38186" lon="4.45528">
        <ele>132.2</ele>
        <time>2024-03-07T15:38:13Z</time>
      </trkpt>
      <trkpt lat="50.38188" lon="4.45528">
        <ele>132</ele>
        <time>2024-03-07T15:38:14Z</time>
      </trkpt>
      <trkpt lat="50.38194" lon="4.45528">
        <ele>131.8</ele>
        <time>2024-03-07T15:38:17Z</time>
      </trkpt>
      <trkpt lat="50.38201" lon="4.4553">
        <ele>131.6</ele>
        <time>2024-03-07T15:38:22Z</time>
      </trkpt>
      <trkpt lat="50.38201" lon="4.4553">
        <ele>131</ele>
        <time>2024-03-07T15:38:33Z</time>
      </trkpt>
      <trkpt lat="50.38201" lon="4.4553">
        <ele>130.6</ele>
        <time>2024-03-07T15:38:41Z</time>
      </trkpt>
      <trkpt lat="50.38201" lon="4.4553">
        <ele>130</ele>
        <time>2024-03-07T15:38:51Z</time>
      </trkpt>
      <trkpt lat="50.38201" lon="4.4553">
        <ele>130</ele>
        <time>2024-03-07T15:38:53Z</time>
      </trkpt>
      <trkpt lat="50.38202" lon="4.45533">
        <ele>130.2</ele>
        <time>2024-03-07T15:38:56Z</time>
      </trkpt>
      <trkpt lat="50.38203" lon="4.45533">
        <ele>130</ele>
        <time>2024-03-07T15:39:02Z</time>
      </trkpt>
      <trkpt lat="50.38203" lon="4.45533">
        <ele>129.6</ele>
        <time>2024-03-07T15:39:21Z</time>
      </trkpt>
      <trkpt lat="50.38202" lon="4.45535">
        <ele>130.2</ele>
        <time>2024-03-07T15:39:49Z</time>
      </trkpt>
      <trkpt lat="50.38202" lon="4.45535">
        <ele>130.8</ele>
        <time>2024-03-07T15:40:14Z</time>
      </trkpt>
      <trkpt lat="50.38202" lon="4.45537">
        <ele>132.2</ele>
        <time>2024-03-07T15:40:38Z</time>
      </trkpt>
      <trkpt lat="50.38202" lon="4.45537">
        <ele>132.6</ele>
        <time>2024-03-07T15:40:50Z</time>
      </trkpt>
      <trkpt lat="50.38201" lon="4.45539">
        <ele>134</ele>
        <time>2024-03-07T15:40:55Z</time>
      </trkpt>
      <trkpt lat="50.38201" lon="4.45539">
        <ele>134.4</ele>
        <time>2024-03-07T15:40:57Z</time>
      </trkpt>
      <trkpt lat="50.38205" lon="4.45538">
        <ele>134.8</ele>
        <time>2024-03-07T15:40:59Z</time>
      </trkpt>
      <trkpt lat="50.38223" lon="4.45545">
        <ele>136.4</ele>
        <time>2024-03-07T15:41:05Z</time>
      </trkpt>
      <trkpt lat="50.38245" lon="4.45554">
        <ele>137.4</ele>
        <time>2024-03-07T15:41:11Z</time>
      </trkpt>
      <trkpt lat="50.38258" lon="4.45563">
        <ele>137.8</ele>
        <time>2024-03-07T15:41:15Z</time>
      </trkpt>
      <trkpt lat="50.38278" lon="4.45594">
        <ele>138.8</ele>
        <time>2024-03-07T15:41:22Z</time>
      </trkpt>
      <trkpt lat="50.38301" lon="4.45633">
        <ele>139.8</ele>
        <time>2024-03-07T15:41:29Z</time>
      </trkpt>
      <trkpt lat="50.38309" lon="4.45653">
        <ele>140.2</ele>
        <time>2024-03-07T15:41:32Z</time>
      </trkpt>
      <trkpt lat="50.38314" lon="4.45667">
        <ele>140.2</ele>
        <time>2024-03-07T15:41:34Z</time>
      </trkpt>
      <trkpt lat="50.38318" lon="4.4568">
        <ele>140.4</ele>
        <time>2024-03-07T15:41:36Z</time>
      </trkpt>
      <trkpt lat="50.38325" lon="4.45687">
        <ele>140.4</ele>
        <time>2024-03-07T15:41:38Z</time>
      </trkpt>
      <trkpt lat="50.38334" lon="4.45685">
        <ele>140.6</ele>
        <time>2024-03-07T15:41:40Z</time>
      </trkpt>
      <trkpt lat="50.38338" lon="4.45682">
        <ele>140.6</ele>
        <time>2024-03-07T15:41:41Z</time>
      </trkpt>
      <trkpt lat="50.3835" lon="4.45676">
        <ele>140.6</ele>
        <time>2024-03-07T15:41:43Z</time>
      </trkpt>
      <trkpt lat="50.38363" lon="4.45671">
        <ele>140.6</ele>
        <time>2024-03-07T15:41:45Z</time>
      </trkpt>
      <trkpt lat="50.38409" lon="4.45651">
        <ele>140.2</ele>
        <time>2024-03-07T15:41:51Z</time>
      </trkpt>
      <trkpt lat="50.38438" lon="4.45643">
        <ele>139.4</ele>
        <time>2024-03-07T15:41:55Z</time>
      </trkpt>
      <trkpt lat="50.38456" lon="4.45636">
        <ele>139.2</ele>
        <time>2024-03-07T15:41:59Z</time>
      </trkpt>
      <trkpt lat="50.38478" lon="4.45624">
        <ele>138.6</ele>
        <time>2024-03-07T15:42:04Z</time>
      </trkpt>
      <trkpt lat="50.38508" lon="4.45613">
        <ele>137.8</ele>
        <time>2024-03-07T15:42:09Z</time>
      </trkpt>
      <trkpt lat="50.38544" lon="4.45601">
        <ele>137.2</ele>
        <time>2024-03-07T15:42:14Z</time>
      </trkpt>
      <trkpt lat="50.38578" lon="4.4559">
        <ele>136.4</ele>
        <time>2024-03-07T15:42:19Z</time>
      </trkpt>
      <trkpt lat="50.386" lon="4.45589">
        <ele>135.8</ele>
        <time>2024-03-07T15:42:23Z</time>
      </trkpt>
      <trkpt lat="50.38611" lon="4.45591">
        <ele>135.4</ele>
        <time>2024-03-07T15:42:25Z</time>
      </trkpt>
      <trkpt lat="50.38656" lon="4.45603">
        <ele>134.4</ele>
        <time>2024-03-07T15:42:33Z</time>
      </trkpt>
      <trkpt lat="50.38709" lon="4.45616">
        <ele>134</ele>
        <time>2024-03-07T15:42:42Z</time>
      </trkpt>
      <trkpt lat="50.3876" lon="4.45626">
        <ele>133.2</ele>
        <time>2024-03-07T15:42:51Z</time>
      </trkpt>
      <trkpt lat="50.38792" lon="4.45633">
        <ele>132.2</ele>
        <time>2024-03-07T15:42:57Z</time>
      </trkpt>
      <trkpt lat="50.38835" lon="4.45642">
        <ele>131</ele>
        <time>2024-03-07T15:43:05Z</time>
      </trkpt>
      <trkpt lat="50.38866" lon="4.45649">
        <ele>130.4</ele>
        <time>2024-03-07T15:43:11Z</time>
      </trkpt>
      <trkpt lat="50.38921" lon="4.45663">
        <ele>129.4</ele>
        <time>2024-03-07T15:43:22Z</time>
      </trkpt>
      <trkpt lat="50.38926" lon="4.45666">
        <ele>129.6</ele>
        <time>2024-03-07T15:43:23Z</time>
      </trkpt>
      <trkpt lat="50.3896" lon="4.45673">
        <ele>129.2</ele>
        <time>2024-03-07T15:43:30Z</time>
      </trkpt>
      <trkpt lat="50.38993" lon="4.45677">
        <ele>128.4</ele>
        <time>2024-03-07T15:43:37Z</time>
      </trkpt>
      <trkpt lat="50.39" lon="4.4568">
        <ele>128.2</ele>
        <time>2024-03-07T15:43:39Z</time>
      </trkpt>
      <trkpt lat="50.39002" lon="4.45684">
        <ele>128</ele>
        <time>2024-03-07T15:43:40Z</time>
      </trkpt>
      <trkpt lat="50.39005" lon="4.45703">
        <ele>127.4</ele>
        <time>2024-03-07T15:43:45Z</time>
      </trkpt>
      <trkpt lat="50.39017" lon="4.45711">
        <ele>126.6</ele>
        <time>2024-03-07T15:43:51Z</time>
      </trkpt>
      <trkpt lat="50.39024" lon="4.45713">
        <ele>126</ele>
        <time>2024-03-07T15:43:55Z</time>
      </trkpt>
      <trkpt lat="50.39025" lon="4.45712">
        <ele>125.8</ele>
        <time>2024-03-07T15:43:57Z</time>
      </trkpt>
      <trkpt lat="50.39025" lon="4.45712">
        <ele>125</ele>
        <time>2024-03-07T15:44:05Z</time>
      </trkpt>
      <trkpt lat="50.39025" lon="4.45712">
        <ele>124.2</ele>
        <time>2024-03-07T15:44:15Z</time>
      </trkpt>
      <trkpt lat="50.39026" lon="4.45712">
        <ele>122</ele>
        <time>2024-03-07T15:44:47Z</time>
      </trkpt>
      <trkpt lat="50.39026" lon="4.45712">
        <ele>121</ele>
        <time>2024-03-07T15:45:12Z</time>
      </trkpt>
      <trkpt lat="50.39026" lon="4.45712">
        <ele>120.4</ele>
        <time>2024-03-07T15:45:35Z</time>
      </trkpt>
      <trkpt lat="50.39025" lon="4.45712">
        <ele>119.8</ele>
        <time>2024-03-07T15:45:56Z</time>
      </trkpt>
      <trkpt lat="50.39025" lon="4.45712">
        <ele>119.4</ele>
        <time>2024-03-07T15:46:14Z</time>
      </trkpt>
      <trkpt lat="50.39026" lon="4.45712">
        <ele>119.2</ele>
        <time>2024-03-07T15:46:37Z</time>
      </trkpt>
      <trkpt lat="50.39026" lon="4.45712">
        <ele>119</ele>
        <time>2024-03-07T15:47:03Z</time>
      </trkpt>
      <trkpt lat="50.39026" lon="4.45712">
        <ele>119</ele>
        <time>2024-03-07T15:47:25Z</time>
      </trkpt>
      <trkpt lat="50.39026" lon="4.45712">
        <ele>119</ele>
        <time>2024-03-07T15:47:43Z</time>
      </trkpt>
      <trkpt lat="50.39026" lon="4.45712">
        <ele>119</ele>
        <time>2024-03-07T15:47:53Z</time>
      </trkpt>
      <trkpt lat="50.39026" lon="4.45712">
        <ele>119</ele>
        <time>2024-03-07T15:48:03Z</time>
        <extensions>
          <visugpx:TrkExtension xmlns:visugpx="https://www.visugpx.com/editgpx/">
            <visugpx:node>1</visugpx:node>
            </visugpx:TrkExtension>
        </extensions>
      </trkpt>
    </trkseg>
  </trk>
</gpx>